<?xml version="1.0" encoding="UTF-8" standalone="no" ?>
<gpx xmlns="http://www.topografix.com/GPX/1/1" xmlns:xsi="http://www.w3.org/2001/XMLSchema-instance" xsi:schemaLocation="http://www.topografix.com/GPX/1/1 http://www.topografix.com/GPX/1/1/gpx.xsd" version="1.1" creator="VisuGPX - https://www.visugpx.com">
  <metadata>
    <name>BEARN</name>
    <desc><![CDATA[Eysus Asasp Issor Escot]]></desc>
  </metadata>
  <trk>
    <name><![CDATA[PIEMONT OSSALOIS REY]]></name>
    <trkseg>
      <trkpt lat="43.12704" lon="-0.44275">
        <ele>427.92</ele>
        <time>2015-10-24T11:12:57Z</time>
      </trkpt>
      <trkpt lat="43.12714" lon="-0.44279">
        <ele>426.96</ele>
        <time>2015-10-24T11:13:14Z</time>
      </trkpt>
      <trkpt lat="43.12716" lon="-0.44278">
        <ele>426.96</ele>
        <time>2015-10-24T11:13:15Z</time>
      </trkpt>
      <trkpt lat="43.12718" lon="-0.44278">
        <ele>426.48</ele>
        <time>2015-10-24T11:13:16Z</time>
      </trkpt>
      <trkpt lat="43.1272" lon="-0.4428">
        <ele>426.48</ele>
        <time>2015-10-24T11:13:17Z</time>
      </trkpt>
      <trkpt lat="43.1272" lon="-0.44284">
        <ele>426</ele>
        <time>2015-10-24T11:13:18Z</time>
      </trkpt>
      <trkpt lat="43.12723" lon="-0.44287">
        <ele>426</ele>
        <time>2015-10-24T11:13:19Z</time>
      </trkpt>
      <trkpt lat="43.12726" lon="-0.44289">
        <ele>426</ele>
        <time>2015-10-24T11:13:20Z</time>
      </trkpt>
      <trkpt lat="43.12753" lon="-0.44304">
        <ele>425.52</ele>
        <time>2015-10-24T11:13:26Z</time>
      </trkpt>
      <trkpt lat="43.12757" lon="-0.44306">
        <ele>425.04</ele>
        <time>2015-10-24T11:13:27Z</time>
      </trkpt>
      <trkpt lat="43.12806" lon="-0.44333">
        <ele>426</ele>
        <time>2015-10-24T11:13:39Z</time>
      </trkpt>
      <trkpt lat="43.12833" lon="-0.44345">
        <ele>425.52</ele>
        <time>2015-10-24T11:13:50Z</time>
      </trkpt>
      <trkpt lat="43.12849" lon="-0.4435">
        <ele>424.08</ele>
        <time>2015-10-24T11:13:54Z</time>
      </trkpt>
      <trkpt lat="43.12854" lon="-0.44352">
        <ele>423.6</ele>
        <time>2015-10-24T11:13:55Z</time>
      </trkpt>
      <trkpt lat="43.12859" lon="-0.44355">
        <ele>423.12</ele>
        <time>2015-10-24T11:13:56Z</time>
      </trkpt>
      <trkpt lat="43.12864" lon="-0.44358">
        <ele>422.16</ele>
        <time>2015-10-24T11:13:57Z</time>
      </trkpt>
      <trkpt lat="43.12869" lon="-0.4436">
        <ele>422.16</ele>
        <time>2015-10-24T11:13:58Z</time>
      </trkpt>
      <trkpt lat="43.12879" lon="-0.4437">
        <ele>420.23</ele>
        <time>2015-10-24T11:14:02Z</time>
      </trkpt>
      <trkpt lat="43.12882" lon="-0.4437">
        <ele>420.23</ele>
        <time>2015-10-24T11:14:03Z</time>
      </trkpt>
      <trkpt lat="43.1289" lon="-0.44371">
        <ele>420.23</ele>
        <time>2015-10-24T11:14:05Z</time>
      </trkpt>
      <trkpt lat="43.12927" lon="-0.44387">
        <ele>418.31</ele>
        <time>2015-10-24T11:14:14Z</time>
      </trkpt>
      <trkpt lat="43.12939" lon="-0.44399">
        <ele>417.83</ele>
        <time>2015-10-24T11:14:17Z</time>
      </trkpt>
      <trkpt lat="43.12957" lon="-0.44429">
        <ele>415.91</ele>
        <time>2015-10-24T11:14:25Z</time>
      </trkpt>
      <trkpt lat="43.12959" lon="-0.44433">
        <ele>415.43</ele>
        <time>2015-10-24T11:14:26Z</time>
      </trkpt>
      <trkpt lat="43.12962" lon="-0.44434">
        <ele>415.43</ele>
        <time>2015-10-24T11:14:27Z</time>
      </trkpt>
      <trkpt lat="43.12965" lon="-0.44431">
        <ele>414.47</ele>
        <time>2015-10-24T11:14:28Z</time>
      </trkpt>
      <trkpt lat="43.12967" lon="-0.44426">
        <ele>413.98</ele>
        <time>2015-10-24T11:14:29Z</time>
      </trkpt>
      <trkpt lat="43.12969" lon="-0.44419">
        <ele>413.5</ele>
        <time>2015-10-24T11:14:30Z</time>
      </trkpt>
      <trkpt lat="43.12972" lon="-0.44413">
        <ele>413.02</ele>
        <time>2015-10-24T11:14:31Z</time>
      </trkpt>
      <trkpt lat="43.12978" lon="-0.44409">
        <ele>412.06</ele>
        <time>2015-10-24T11:14:32Z</time>
      </trkpt>
      <trkpt lat="43.12984" lon="-0.44407">
        <ele>411.1</ele>
        <time>2015-10-24T11:14:33Z</time>
      </trkpt>
      <trkpt lat="43.12991" lon="-0.44407">
        <ele>410.14</ele>
        <time>2015-10-24T11:14:34Z</time>
      </trkpt>
      <trkpt lat="43.12998" lon="-0.44409">
        <ele>409.18</ele>
        <time>2015-10-24T11:14:35Z</time>
      </trkpt>
      <trkpt lat="43.13004" lon="-0.44413">
        <ele>408.7</ele>
        <time>2015-10-24T11:14:36Z</time>
      </trkpt>
      <trkpt lat="43.13011" lon="-0.44416">
        <ele>408.22</ele>
        <time>2015-10-24T11:14:37Z</time>
      </trkpt>
      <trkpt lat="43.13017" lon="-0.44419">
        <ele>408.22</ele>
        <time>2015-10-24T11:14:38Z</time>
      </trkpt>
      <trkpt lat="43.13102" lon="-0.44458">
        <ele>402.45</ele>
        <time>2015-10-24T11:14:50Z</time>
      </trkpt>
      <trkpt lat="43.1311" lon="-0.44462">
        <ele>401.97</ele>
        <time>2015-10-24T11:14:51Z</time>
      </trkpt>
      <trkpt lat="43.13117" lon="-0.44467">
        <ele>401.49</ele>
        <time>2015-10-24T11:14:52Z</time>
      </trkpt>
      <trkpt lat="43.13125" lon="-0.44472">
        <ele>401.49</ele>
        <time>2015-10-24T11:14:53Z</time>
      </trkpt>
      <trkpt lat="43.13133" lon="-0.44477">
        <ele>401.01</ele>
        <time>2015-10-24T11:14:54Z</time>
      </trkpt>
      <trkpt lat="43.13141" lon="-0.44481">
        <ele>400.53</ele>
        <time>2015-10-24T11:14:55Z</time>
      </trkpt>
      <trkpt lat="43.13149" lon="-0.44485">
        <ele>399.57</ele>
        <time>2015-10-24T11:14:56Z</time>
      </trkpt>
      <trkpt lat="43.13181" lon="-0.44502">
        <ele>397.16</ele>
        <time>2015-10-24T11:15:00Z</time>
      </trkpt>
      <trkpt lat="43.13188" lon="-0.44507">
        <ele>396.68</ele>
        <time>2015-10-24T11:15:01Z</time>
      </trkpt>
      <trkpt lat="43.13195" lon="-0.44513">
        <ele>396.2</ele>
        <time>2015-10-24T11:15:02Z</time>
      </trkpt>
      <trkpt lat="43.13226" lon="-0.44539">
        <ele>395.72</ele>
        <time>2015-10-24T11:15:07Z</time>
      </trkpt>
      <trkpt lat="43.13232" lon="-0.44542">
        <ele>395.72</ele>
        <time>2015-10-24T11:15:08Z</time>
      </trkpt>
      <trkpt lat="43.13239" lon="-0.44544">
        <ele>395.72</ele>
        <time>2015-10-24T11:15:09Z</time>
      </trkpt>
      <trkpt lat="43.13245" lon="-0.44545">
        <ele>395.72</ele>
        <time>2015-10-24T11:15:10Z</time>
      </trkpt>
      <trkpt lat="43.13251" lon="-0.44545">
        <ele>395.72</ele>
        <time>2015-10-24T11:15:11Z</time>
      </trkpt>
      <trkpt lat="43.13257" lon="-0.44544">
        <ele>395.72</ele>
        <time>2015-10-24T11:15:12Z</time>
      </trkpt>
      <trkpt lat="43.13268" lon="-0.44542">
        <ele>396.68</ele>
        <time>2015-10-24T11:15:14Z</time>
      </trkpt>
      <trkpt lat="43.13274" lon="-0.44542">
        <ele>396.68</ele>
        <time>2015-10-24T11:15:15Z</time>
      </trkpt>
      <trkpt lat="43.1331" lon="-0.44538">
        <ele>398.6</ele>
        <time>2015-10-24T11:15:25Z</time>
      </trkpt>
      <trkpt lat="43.13315" lon="-0.44538">
        <ele>398.6</ele>
        <time>2015-10-24T11:15:26Z</time>
      </trkpt>
      <trkpt lat="43.13327" lon="-0.44541">
        <ele>398.12</ele>
        <time>2015-10-24T11:15:28Z</time>
      </trkpt>
      <trkpt lat="43.13332" lon="-0.44545">
        <ele>398.12</ele>
        <time>2015-10-24T11:15:29Z</time>
      </trkpt>
      <trkpt lat="43.13337" lon="-0.4455">
        <ele>397.64</ele>
        <time>2015-10-24T11:15:30Z</time>
      </trkpt>
      <trkpt lat="43.13343" lon="-0.44552">
        <ele>397.16</ele>
        <time>2015-10-24T11:15:31Z</time>
      </trkpt>
      <trkpt lat="43.13349" lon="-0.44551">
        <ele>397.16</ele>
        <time>2015-10-24T11:15:32Z</time>
      </trkpt>
      <trkpt lat="43.13354" lon="-0.44547">
        <ele>396.68</ele>
        <time>2015-10-24T11:15:33Z</time>
      </trkpt>
      <trkpt lat="43.13358" lon="-0.44541">
        <ele>396.68</ele>
        <time>2015-10-24T11:15:34Z</time>
      </trkpt>
      <trkpt lat="43.1336" lon="-0.44534">
        <ele>396.68</ele>
        <time>2015-10-24T11:15:35Z</time>
      </trkpt>
      <trkpt lat="43.13364" lon="-0.44529">
        <ele>396.68</ele>
        <time>2015-10-24T11:15:36Z</time>
      </trkpt>
      <trkpt lat="43.13368" lon="-0.44527">
        <ele>396.68</ele>
        <time>2015-10-24T11:15:37Z</time>
      </trkpt>
      <trkpt lat="43.13373" lon="-0.44527">
        <ele>396.68</ele>
        <time>2015-10-24T11:15:38Z</time>
      </trkpt>
      <trkpt lat="43.13378" lon="-0.44529">
        <ele>397.16</ele>
        <time>2015-10-24T11:15:39Z</time>
      </trkpt>
      <trkpt lat="43.13387" lon="-0.44531">
        <ele>397.64</ele>
        <time>2015-10-24T11:15:41Z</time>
      </trkpt>
      <trkpt lat="43.13404" lon="-0.4453">
        <ele>398.6</ele>
        <time>2015-10-24T11:15:45Z</time>
      </trkpt>
      <trkpt lat="43.13413" lon="-0.44531">
        <ele>399.57</ele>
        <time>2015-10-24T11:15:47Z</time>
      </trkpt>
      <trkpt lat="43.13417" lon="-0.44532">
        <ele>399.57</ele>
        <time>2015-10-24T11:15:48Z</time>
      </trkpt>
      <trkpt lat="43.13421" lon="-0.44533">
        <ele>400.05</ele>
        <time>2015-10-24T11:15:49Z</time>
      </trkpt>
      <trkpt lat="43.13434" lon="-0.4454">
        <ele>399.57</ele>
        <time>2015-10-24T11:15:52Z</time>
      </trkpt>
      <trkpt lat="43.13474" lon="-0.44583">
        <ele>403.41</ele>
        <time>2015-10-24T11:16:05Z</time>
      </trkpt>
      <trkpt lat="43.13495" lon="-0.44604">
        <ele>406.29</ele>
        <time>2015-10-24T11:16:14Z</time>
      </trkpt>
      <trkpt lat="43.13515" lon="-0.44614">
        <ele>407.74</ele>
        <time>2015-10-24T11:16:21Z</time>
      </trkpt>
      <trkpt lat="43.13518" lon="-0.44616">
        <ele>408.22</ele>
        <time>2015-10-24T11:16:22Z</time>
      </trkpt>
      <trkpt lat="43.13548" lon="-0.44634">
        <ele>408.7</ele>
        <time>2015-10-24T11:16:33Z</time>
      </trkpt>
      <trkpt lat="43.13561" lon="-0.44638">
        <ele>408.22</ele>
        <time>2015-10-24T11:16:36Z</time>
      </trkpt>
      <trkpt lat="43.13597" lon="-0.4466">
        <ele>406.77</ele>
        <time>2015-10-24T11:16:43Z</time>
      </trkpt>
      <trkpt lat="43.13602" lon="-0.44662">
        <ele>406.29</ele>
        <time>2015-10-24T11:16:44Z</time>
      </trkpt>
      <trkpt lat="43.13608" lon="-0.44663">
        <ele>406.29</ele>
        <time>2015-10-24T11:16:45Z</time>
      </trkpt>
      <trkpt lat="43.13614" lon="-0.44662">
        <ele>405.81</ele>
        <time>2015-10-24T11:16:46Z</time>
      </trkpt>
      <trkpt lat="43.13621" lon="-0.44659">
        <ele>405.33</ele>
        <time>2015-10-24T11:16:47Z</time>
      </trkpt>
      <trkpt lat="43.13627" lon="-0.44655">
        <ele>404.85</ele>
        <time>2015-10-24T11:16:48Z</time>
      </trkpt>
      <trkpt lat="43.13633" lon="-0.44651">
        <ele>403.89</ele>
        <time>2015-10-24T11:16:49Z</time>
      </trkpt>
      <trkpt lat="43.13639" lon="-0.44647">
        <ele>403.41</ele>
        <time>2015-10-24T11:16:50Z</time>
      </trkpt>
      <trkpt lat="43.13644" lon="-0.44642">
        <ele>402.93</ele>
        <time>2015-10-24T11:16:51Z</time>
      </trkpt>
      <trkpt lat="43.13649" lon="-0.44637">
        <ele>401.97</ele>
        <time>2015-10-24T11:16:52Z</time>
      </trkpt>
      <trkpt lat="43.13653" lon="-0.44632">
        <ele>401.49</ele>
        <time>2015-10-24T11:16:53Z</time>
      </trkpt>
      <trkpt lat="43.13658" lon="-0.44628">
        <ele>401.01</ele>
        <time>2015-10-24T11:16:54Z</time>
      </trkpt>
      <trkpt lat="43.13663" lon="-0.44625">
        <ele>400.53</ele>
        <time>2015-10-24T11:16:55Z</time>
      </trkpt>
      <trkpt lat="43.13668" lon="-0.44623">
        <ele>400.53</ele>
        <time>2015-10-24T11:16:56Z</time>
      </trkpt>
      <trkpt lat="43.13673" lon="-0.44621">
        <ele>400.05</ele>
        <time>2015-10-24T11:16:57Z</time>
      </trkpt>
      <trkpt lat="43.13688" lon="-0.44616">
        <ele>400.53</ele>
        <time>2015-10-24T11:17:00Z</time>
      </trkpt>
      <trkpt lat="43.13693" lon="-0.44614">
        <ele>400.53</ele>
        <time>2015-10-24T11:17:01Z</time>
      </trkpt>
      <trkpt lat="43.1371" lon="-0.44603">
        <ele>400.05</ele>
        <time>2015-10-24T11:17:05Z</time>
      </trkpt>
      <trkpt lat="43.13719" lon="-0.44597">
        <ele>399.57</ele>
        <time>2015-10-24T11:17:07Z</time>
      </trkpt>
      <trkpt lat="43.13745" lon="-0.44586">
        <ele>398.12</ele>
        <time>2015-10-24T11:17:13Z</time>
      </trkpt>
      <trkpt lat="43.13784" lon="-0.44585">
        <ele>398.6</ele>
        <time>2015-10-24T11:17:24Z</time>
      </trkpt>
      <trkpt lat="43.13802" lon="-0.44596">
        <ele>400.05</ele>
        <time>2015-10-24T11:17:32Z</time>
      </trkpt>
      <trkpt lat="43.13803" lon="-0.44598">
        <ele>400.53</ele>
        <time>2015-10-24T11:17:33Z</time>
      </trkpt>
      <trkpt lat="43.13805" lon="-0.446">
        <ele>401.01</ele>
        <time>2015-10-24T11:17:34Z</time>
      </trkpt>
      <trkpt lat="43.13821" lon="-0.4461">
        <ele>403.41</ele>
        <time>2015-10-24T11:17:44Z</time>
      </trkpt>
      <trkpt lat="43.13823" lon="-0.44609">
        <ele>403.41</ele>
        <time>2015-10-24T11:17:45Z</time>
      </trkpt>
      <trkpt lat="43.13825" lon="-0.44607">
        <ele>403.89</ele>
        <time>2015-10-24T11:17:46Z</time>
      </trkpt>
      <trkpt lat="43.13827" lon="-0.44605">
        <ele>404.37</ele>
        <time>2015-10-24T11:17:47Z</time>
      </trkpt>
      <trkpt lat="43.13829" lon="-0.44604">
        <ele>405.33</ele>
        <time>2015-10-24T11:17:48Z</time>
      </trkpt>
      <trkpt lat="43.1383" lon="-0.44603">
        <ele>405.81</ele>
        <time>2015-10-24T11:17:49Z</time>
      </trkpt>
      <trkpt lat="43.13832" lon="-0.44601">
        <ele>406.29</ele>
        <time>2015-10-24T11:17:50Z</time>
      </trkpt>
      <trkpt lat="43.13834" lon="-0.446">
        <ele>406.29</ele>
        <time>2015-10-24T11:17:51Z</time>
      </trkpt>
      <trkpt lat="43.13836" lon="-0.44598">
        <ele>406.77</ele>
        <time>2015-10-24T11:17:52Z</time>
      </trkpt>
      <trkpt lat="43.13846" lon="-0.44594">
        <ele>406.77</ele>
        <time>2015-10-24T11:17:55Z</time>
      </trkpt>
      <trkpt lat="43.13859" lon="-0.44591">
        <ele>406.29</ele>
        <time>2015-10-24T11:17:58Z</time>
      </trkpt>
      <trkpt lat="43.13868" lon="-0.44592">
        <ele>406.29</ele>
        <time>2015-10-24T11:18:00Z</time>
      </trkpt>
      <trkpt lat="43.13873" lon="-0.4459">
        <ele>406.29</ele>
        <time>2015-10-24T11:18:01Z</time>
      </trkpt>
      <trkpt lat="43.13877" lon="-0.44588">
        <ele>405.81</ele>
        <time>2015-10-24T11:18:02Z</time>
      </trkpt>
      <trkpt lat="43.13881" lon="-0.44584">
        <ele>405.81</ele>
        <time>2015-10-24T11:18:03Z</time>
      </trkpt>
      <trkpt lat="43.13885" lon="-0.4458">
        <ele>405.81</ele>
        <time>2015-10-24T11:18:04Z</time>
      </trkpt>
      <trkpt lat="43.1391" lon="-0.44558">
        <ele>405.33</ele>
        <time>2015-10-24T11:18:10Z</time>
      </trkpt>
      <trkpt lat="43.13916" lon="-0.44555">
        <ele>405.33</ele>
        <time>2015-10-24T11:18:11Z</time>
      </trkpt>
      <trkpt lat="43.13945" lon="-0.44543">
        <ele>404.85</ele>
        <time>2015-10-24T11:18:16Z</time>
      </trkpt>
      <trkpt lat="43.13965" lon="-0.44537">
        <ele>404.37</ele>
        <time>2015-10-24T11:18:19Z</time>
      </trkpt>
      <trkpt lat="43.13971" lon="-0.44534">
        <ele>403.89</ele>
        <time>2015-10-24T11:18:20Z</time>
      </trkpt>
      <trkpt lat="43.13978" lon="-0.44532">
        <ele>403.89</ele>
        <time>2015-10-24T11:18:21Z</time>
      </trkpt>
      <trkpt lat="43.14015" lon="-0.44521">
        <ele>403.41</ele>
        <time>2015-10-24T11:18:27Z</time>
      </trkpt>
      <trkpt lat="43.14021" lon="-0.44517">
        <ele>402.93</ele>
        <time>2015-10-24T11:18:28Z</time>
      </trkpt>
      <trkpt lat="43.14039" lon="-0.44502">
        <ele>401.97</ele>
        <time>2015-10-24T11:18:31Z</time>
      </trkpt>
      <trkpt lat="43.14044" lon="-0.44496">
        <ele>401.49</ele>
        <time>2015-10-24T11:18:32Z</time>
      </trkpt>
      <trkpt lat="43.14075" lon="-0.44455">
        <ele>399.08</ele>
        <time>2015-10-24T11:18:38Z</time>
      </trkpt>
      <trkpt lat="43.1408" lon="-0.44446">
        <ele>398.6</ele>
        <time>2015-10-24T11:18:39Z</time>
      </trkpt>
      <trkpt lat="43.14094" lon="-0.44419">
        <ele>397.16</ele>
        <time>2015-10-24T11:18:42Z</time>
      </trkpt>
      <trkpt lat="43.14099" lon="-0.44411">
        <ele>396.68</ele>
        <time>2015-10-24T11:18:43Z</time>
      </trkpt>
      <trkpt lat="43.14121" lon="-0.44381">
        <ele>396.68</ele>
        <time>2015-10-24T11:18:48Z</time>
      </trkpt>
      <trkpt lat="43.14129" lon="-0.44366">
        <ele>397.64</ele>
        <time>2015-10-24T11:18:51Z</time>
      </trkpt>
      <trkpt lat="43.14137" lon="-0.44344">
        <ele>399.08</ele>
        <time>2015-10-24T11:18:55Z</time>
      </trkpt>
      <trkpt lat="43.14139" lon="-0.44339">
        <ele>399.08</ele>
        <time>2015-10-24T11:18:56Z</time>
      </trkpt>
      <trkpt lat="43.14141" lon="-0.44334">
        <ele>399.57</ele>
        <time>2015-10-24T11:18:57Z</time>
      </trkpt>
      <trkpt lat="43.14143" lon="-0.44329">
        <ele>400.05</ele>
        <time>2015-10-24T11:18:58Z</time>
      </trkpt>
      <trkpt lat="43.14145" lon="-0.44325">
        <ele>400.53</ele>
        <time>2015-10-24T11:18:59Z</time>
      </trkpt>
      <trkpt lat="43.14146" lon="-0.44321">
        <ele>400.53</ele>
        <time>2015-10-24T11:19:00Z</time>
      </trkpt>
      <trkpt lat="43.14162" lon="-0.44255">
        <ele>404.37</ele>
        <time>2015-10-24T11:19:14Z</time>
      </trkpt>
      <trkpt lat="43.14183" lon="-0.4419">
        <ele>405.33</ele>
        <time>2015-10-24T11:19:28Z</time>
      </trkpt>
      <trkpt lat="43.14209" lon="-0.44127">
        <ele>405.33</ele>
        <time>2015-10-24T11:19:40Z</time>
      </trkpt>
      <trkpt lat="43.14222" lon="-0.44101">
        <ele>405.33</ele>
        <time>2015-10-24T11:19:45Z</time>
      </trkpt>
      <trkpt lat="43.14247" lon="-0.44044">
        <ele>409.18</ele>
        <time>2015-10-24T11:19:59Z</time>
      </trkpt>
      <trkpt lat="43.14257" lon="-0.44021">
        <ele>408.22</ele>
        <time>2015-10-24T11:20:04Z</time>
      </trkpt>
      <trkpt lat="43.1426" lon="-0.44015">
        <ele>408.22</ele>
        <time>2015-10-24T11:20:05Z</time>
      </trkpt>
      <trkpt lat="43.14262" lon="-0.4401">
        <ele>408.22</ele>
        <time>2015-10-24T11:20:06Z</time>
      </trkpt>
      <trkpt lat="43.14274" lon="-0.43959">
        <ele>407.74</ele>
        <time>2015-10-24T11:20:14Z</time>
      </trkpt>
      <trkpt lat="43.14275" lon="-0.43952">
        <ele>407.74</ele>
        <time>2015-10-24T11:20:15Z</time>
      </trkpt>
      <trkpt lat="43.14276" lon="-0.43946">
        <ele>407.26</ele>
        <time>2015-10-24T11:20:16Z</time>
      </trkpt>
      <trkpt lat="43.14279" lon="-0.43934">
        <ele>406.77</ele>
        <time>2015-10-24T11:20:18Z</time>
      </trkpt>
      <trkpt lat="43.14285" lon="-0.43844">
        <ele>406.29</ele>
        <time>2015-10-24T11:20:33Z</time>
      </trkpt>
      <trkpt lat="43.14298" lon="-0.43776">
        <ele>406.77</ele>
        <time>2015-10-24T11:20:45Z</time>
      </trkpt>
      <trkpt lat="43.143" lon="-0.43771">
        <ele>406.77</ele>
        <time>2015-10-24T11:20:46Z</time>
      </trkpt>
      <trkpt lat="43.14302" lon="-0.43765">
        <ele>406.77</ele>
        <time>2015-10-24T11:20:47Z</time>
      </trkpt>
      <trkpt lat="43.14306" lon="-0.43747">
        <ele>406.29</ele>
        <time>2015-10-24T11:20:50Z</time>
      </trkpt>
      <trkpt lat="43.14308" lon="-0.43741">
        <ele>406.29</ele>
        <time>2015-10-24T11:20:51Z</time>
      </trkpt>
      <trkpt lat="43.14309" lon="-0.43736">
        <ele>406.29</ele>
        <time>2015-10-24T11:20:52Z</time>
      </trkpt>
      <trkpt lat="43.1431" lon="-0.4373">
        <ele>406.29</ele>
        <time>2015-10-24T11:20:53Z</time>
      </trkpt>
      <trkpt lat="43.14311" lon="-0.43725">
        <ele>405.81</ele>
        <time>2015-10-24T11:20:54Z</time>
      </trkpt>
      <trkpt lat="43.14313" lon="-0.43719">
        <ele>405.81</ele>
        <time>2015-10-24T11:20:55Z</time>
      </trkpt>
      <trkpt lat="43.14315" lon="-0.43707">
        <ele>405.81</ele>
        <time>2015-10-24T11:20:57Z</time>
      </trkpt>
      <trkpt lat="43.14315" lon="-0.43701">
        <ele>405.33</ele>
        <time>2015-10-24T11:20:58Z</time>
      </trkpt>
      <trkpt lat="43.14315" lon="-0.43694">
        <ele>405.33</ele>
        <time>2015-10-24T11:20:59Z</time>
      </trkpt>
      <trkpt lat="43.14313" lon="-0.4369">
        <ele>405.33</ele>
        <time>2015-10-24T11:21:00Z</time>
      </trkpt>
      <trkpt lat="43.1431" lon="-0.43689">
        <ele>404.85</ele>
        <time>2015-10-24T11:21:01Z</time>
      </trkpt>
      <trkpt lat="43.14306" lon="-0.43689">
        <ele>404.85</ele>
        <time>2015-10-24T11:21:02Z</time>
      </trkpt>
      <trkpt lat="43.14283" lon="-0.43683">
        <ele>405.33</ele>
        <time>2015-10-24T11:21:09Z</time>
      </trkpt>
      <trkpt lat="43.14281" lon="-0.43679">
        <ele>405.81</ele>
        <time>2015-10-24T11:21:10Z</time>
      </trkpt>
      <trkpt lat="43.14281" lon="-0.43675">
        <ele>405.33</ele>
        <time>2015-10-24T11:21:11Z</time>
      </trkpt>
      <trkpt lat="43.1429" lon="-0.43603">
        <ele>403.89</ele>
        <time>2015-10-24T11:21:23Z</time>
      </trkpt>
      <trkpt lat="43.14291" lon="-0.43597">
        <ele>403.41</ele>
        <time>2015-10-24T11:21:24Z</time>
      </trkpt>
      <trkpt lat="43.14301" lon="-0.43547">
        <ele>404.37</ele>
        <time>2015-10-24T11:21:34Z</time>
      </trkpt>
      <trkpt lat="43.14317" lon="-0.43501">
        <ele>402.93</ele>
        <time>2015-10-24T11:21:46Z</time>
      </trkpt>
      <trkpt lat="43.14324" lon="-0.43487">
        <ele>403.41</ele>
        <time>2015-10-24T11:21:51Z</time>
      </trkpt>
      <trkpt lat="43.14327" lon="-0.43486">
        <ele>403.89</ele>
        <time>2015-10-24T11:21:52Z</time>
      </trkpt>
      <trkpt lat="43.14329" lon="-0.43486">
        <ele>403.89</ele>
        <time>2015-10-24T11:21:53Z</time>
      </trkpt>
      <trkpt lat="43.14331" lon="-0.43486">
        <ele>403.89</ele>
        <time>2015-10-24T11:21:54Z</time>
      </trkpt>
      <trkpt lat="43.14333" lon="-0.43485">
        <ele>403.89</ele>
        <time>2015-10-24T11:21:55Z</time>
      </trkpt>
      <trkpt lat="43.14335" lon="-0.43484">
        <ele>403.89</ele>
        <time>2015-10-24T11:21:56Z</time>
      </trkpt>
      <trkpt lat="43.14337" lon="-0.43483">
        <ele>403.41</ele>
        <time>2015-10-24T11:21:57Z</time>
      </trkpt>
      <trkpt lat="43.14339" lon="-0.43481">
        <ele>402.93</ele>
        <time>2015-10-24T11:21:58Z</time>
      </trkpt>
      <trkpt lat="43.14361" lon="-0.4345">
        <ele>406.77</ele>
        <time>2015-10-24T11:22:10Z</time>
      </trkpt>
      <trkpt lat="43.1436" lon="-0.43414">
        <ele>414.47</ele>
        <time>2015-10-24T11:22:21Z</time>
      </trkpt>
      <trkpt lat="43.14352" lon="-0.43379">
        <ele>417.83</ele>
        <time>2015-10-24T11:22:33Z</time>
      </trkpt>
      <trkpt lat="43.14336" lon="-0.43338">
        <ele>421.68</ele>
        <time>2015-10-24T11:22:48Z</time>
      </trkpt>
      <trkpt lat="43.14328" lon="-0.4332">
        <ele>423.12</ele>
        <time>2015-10-24T11:22:55Z</time>
      </trkpt>
      <trkpt lat="43.14328" lon="-0.43316">
        <ele>423.12</ele>
        <time>2015-10-24T11:22:56Z</time>
      </trkpt>
      <trkpt lat="43.14333" lon="-0.43253">
        <ele>423.12</ele>
        <time>2015-10-24T11:23:11Z</time>
      </trkpt>
      <trkpt lat="43.14335" lon="-0.43243">
        <ele>422.64</ele>
        <time>2015-10-24T11:23:13Z</time>
      </trkpt>
      <trkpt lat="43.14336" lon="-0.43238">
        <ele>422.16</ele>
        <time>2015-10-24T11:23:14Z</time>
      </trkpt>
      <trkpt lat="43.14337" lon="-0.43231">
        <ele>421.19</ele>
        <time>2015-10-24T11:23:15Z</time>
      </trkpt>
      <trkpt lat="43.14337" lon="-0.43224">
        <ele>420.71</ele>
        <time>2015-10-24T11:23:16Z</time>
      </trkpt>
      <trkpt lat="43.14337" lon="-0.43215">
        <ele>419.75</ele>
        <time>2015-10-24T11:23:17Z</time>
      </trkpt>
      <trkpt lat="43.14333" lon="-0.43174">
        <ele>417.35</ele>
        <time>2015-10-24T11:23:21Z</time>
      </trkpt>
      <trkpt lat="43.1433" lon="-0.43155">
        <ele>415.91</ele>
        <time>2015-10-24T11:23:23Z</time>
      </trkpt>
      <trkpt lat="43.14332" lon="-0.43146">
        <ele>415.43</ele>
        <time>2015-10-24T11:23:24Z</time>
      </trkpt>
      <trkpt lat="43.14358" lon="-0.43093">
        <ele>410.62</ele>
        <time>2015-10-24T11:23:30Z</time>
      </trkpt>
      <trkpt lat="43.14364" lon="-0.43086">
        <ele>410.14</ele>
        <time>2015-10-24T11:23:31Z</time>
      </trkpt>
      <trkpt lat="43.1437" lon="-0.43083">
        <ele>409.66</ele>
        <time>2015-10-24T11:23:32Z</time>
      </trkpt>
      <trkpt lat="43.14378" lon="-0.43082">
        <ele>409.18</ele>
        <time>2015-10-24T11:23:33Z</time>
      </trkpt>
      <trkpt lat="43.14384" lon="-0.43084">
        <ele>409.18</ele>
        <time>2015-10-24T11:23:34Z</time>
      </trkpt>
      <trkpt lat="43.14391" lon="-0.43088">
        <ele>408.7</ele>
        <time>2015-10-24T11:23:35Z</time>
      </trkpt>
      <trkpt lat="43.14397" lon="-0.43093">
        <ele>408.7</ele>
        <time>2015-10-24T11:23:36Z</time>
      </trkpt>
      <trkpt lat="43.14402" lon="-0.43098">
        <ele>408.22</ele>
        <time>2015-10-24T11:23:37Z</time>
      </trkpt>
      <trkpt lat="43.14406" lon="-0.43104">
        <ele>408.22</ele>
        <time>2015-10-24T11:23:38Z</time>
      </trkpt>
      <trkpt lat="43.14409" lon="-0.43111">
        <ele>408.22</ele>
        <time>2015-10-24T11:23:39Z</time>
      </trkpt>
      <trkpt lat="43.14413" lon="-0.43118">
        <ele>408.22</ele>
        <time>2015-10-24T11:23:40Z</time>
      </trkpt>
      <trkpt lat="43.14417" lon="-0.43124">
        <ele>408.22</ele>
        <time>2015-10-24T11:23:41Z</time>
      </trkpt>
      <trkpt lat="43.1442" lon="-0.43131">
        <ele>408.22</ele>
        <time>2015-10-24T11:23:42Z</time>
      </trkpt>
      <trkpt lat="43.14432" lon="-0.43161">
        <ele>407.74</ele>
        <time>2015-10-24T11:23:46Z</time>
      </trkpt>
      <trkpt lat="43.1444" lon="-0.43183">
        <ele>406.29</ele>
        <time>2015-10-24T11:23:49Z</time>
      </trkpt>
      <trkpt lat="43.14446" lon="-0.43208">
        <ele>405.33</ele>
        <time>2015-10-24T11:23:52Z</time>
      </trkpt>
      <trkpt lat="43.14449" lon="-0.43215">
        <ele>405.33</ele>
        <time>2015-10-24T11:23:53Z</time>
      </trkpt>
      <trkpt lat="43.14491" lon="-0.43307">
        <ele>401.97</ele>
        <time>2015-10-24T11:24:05Z</time>
      </trkpt>
      <trkpt lat="43.1451" lon="-0.43343">
        <ele>399.57</ele>
        <time>2015-10-24T11:24:11Z</time>
      </trkpt>
      <trkpt lat="43.14513" lon="-0.43343">
        <ele>399.57</ele>
        <time>2015-10-24T11:24:12Z</time>
      </trkpt>
      <trkpt lat="43.14514" lon="-0.43341">
        <ele>399.08</ele>
        <time>2015-10-24T11:24:13Z</time>
      </trkpt>
      <trkpt lat="43.14516" lon="-0.43338">
        <ele>399.57</ele>
        <time>2015-10-24T11:24:14Z</time>
      </trkpt>
      <trkpt lat="43.14517" lon="-0.43336">
        <ele>399.57</ele>
        <time>2015-10-24T11:24:15Z</time>
      </trkpt>
      <trkpt lat="43.14519" lon="-0.43334">
        <ele>400.05</ele>
        <time>2015-10-24T11:24:16Z</time>
      </trkpt>
      <trkpt lat="43.1452" lon="-0.43331">
        <ele>400.53</ele>
        <time>2015-10-24T11:24:17Z</time>
      </trkpt>
      <trkpt lat="43.14521" lon="-0.43329">
        <ele>401.49</ele>
        <time>2015-10-24T11:24:18Z</time>
      </trkpt>
      <trkpt lat="43.14528" lon="-0.43318">
        <ele>404.85</ele>
        <time>2015-10-24T11:24:23Z</time>
      </trkpt>
      <trkpt lat="43.14529" lon="-0.43317">
        <ele>405.33</ele>
        <time>2015-10-24T11:24:24Z</time>
      </trkpt>
      <trkpt lat="43.14531" lon="-0.43315">
        <ele>405.81</ele>
        <time>2015-10-24T11:24:25Z</time>
      </trkpt>
      <trkpt lat="43.14548" lon="-0.4329">
        <ele>409.18</ele>
        <time>2015-10-24T11:24:38Z</time>
      </trkpt>
      <trkpt lat="43.14564" lon="-0.43266">
        <ele>410.62</ele>
        <time>2015-10-24T11:24:51Z</time>
      </trkpt>
      <trkpt lat="43.14578" lon="-0.43232">
        <ele>407.26</ele>
        <time>2015-10-24T11:25:02Z</time>
      </trkpt>
      <trkpt lat="43.14577" lon="-0.43208">
        <ele>406.77</ele>
        <time>2015-10-24T11:25:06Z</time>
      </trkpt>
      <trkpt lat="43.14576" lon="-0.43201">
        <ele>406.29</ele>
        <time>2015-10-24T11:25:07Z</time>
      </trkpt>
      <trkpt lat="43.14576" lon="-0.43193">
        <ele>406.29</ele>
        <time>2015-10-24T11:25:08Z</time>
      </trkpt>
      <trkpt lat="43.14578" lon="-0.43185">
        <ele>405.81</ele>
        <time>2015-10-24T11:25:09Z</time>
      </trkpt>
      <trkpt lat="43.14579" lon="-0.43177">
        <ele>405.33</ele>
        <time>2015-10-24T11:25:10Z</time>
      </trkpt>
      <trkpt lat="43.14582" lon="-0.43169">
        <ele>404.85</ele>
        <time>2015-10-24T11:25:11Z</time>
      </trkpt>
      <trkpt lat="43.14591" lon="-0.43137">
        <ele>403.41</ele>
        <time>2015-10-24T11:25:15Z</time>
      </trkpt>
      <trkpt lat="43.14593" lon="-0.43127">
        <ele>402.93</ele>
        <time>2015-10-24T11:25:16Z</time>
      </trkpt>
      <trkpt lat="43.146" lon="-0.431">
        <ele>401.49</ele>
        <time>2015-10-24T11:25:19Z</time>
      </trkpt>
      <trkpt lat="43.14605" lon="-0.43094">
        <ele>400.53</ele>
        <time>2015-10-24T11:25:20Z</time>
      </trkpt>
      <trkpt lat="43.1461" lon="-0.4309">
        <ele>400.05</ele>
        <time>2015-10-24T11:25:21Z</time>
      </trkpt>
      <trkpt lat="43.14631" lon="-0.43073">
        <ele>398.12</ele>
        <time>2015-10-24T11:25:28Z</time>
      </trkpt>
      <trkpt lat="43.14631" lon="-0.43035">
        <ele>396.2</ele>
        <time>2015-10-24T11:25:37Z</time>
      </trkpt>
      <trkpt lat="43.14615" lon="-0.42952">
        <ele>393.32</ele>
        <time>2015-10-24T11:25:50Z</time>
      </trkpt>
      <trkpt lat="43.14605" lon="-0.42907">
        <ele>390.91</ele>
        <time>2015-10-24T11:25:55Z</time>
      </trkpt>
      <trkpt lat="43.14601" lon="-0.42888">
        <ele>390.43</ele>
        <time>2015-10-24T11:25:57Z</time>
      </trkpt>
      <trkpt lat="43.146" lon="-0.42879">
        <ele>389.95</ele>
        <time>2015-10-24T11:25:58Z</time>
      </trkpt>
      <trkpt lat="43.14594" lon="-0.42848">
        <ele>386.59</ele>
        <time>2015-10-24T11:26:01Z</time>
      </trkpt>
      <trkpt lat="43.1459" lon="-0.42837">
        <ele>385.63</ele>
        <time>2015-10-24T11:26:02Z</time>
      </trkpt>
      <trkpt lat="43.14586" lon="-0.42826">
        <ele>384.66</ele>
        <time>2015-10-24T11:26:03Z</time>
      </trkpt>
      <trkpt lat="43.14582" lon="-0.42816">
        <ele>383.7</ele>
        <time>2015-10-24T11:26:04Z</time>
      </trkpt>
      <trkpt lat="43.14578" lon="-0.42809">
        <ele>382.74</ele>
        <time>2015-10-24T11:26:05Z</time>
      </trkpt>
      <trkpt lat="43.14575" lon="-0.42805">
        <ele>381.78</ele>
        <time>2015-10-24T11:26:06Z</time>
      </trkpt>
      <trkpt lat="43.14568" lon="-0.42794">
        <ele>380.34</ele>
        <time>2015-10-24T11:26:09Z</time>
      </trkpt>
      <trkpt lat="43.14568" lon="-0.4279">
        <ele>379.86</ele>
        <time>2015-10-24T11:26:10Z</time>
      </trkpt>
      <trkpt lat="43.14567" lon="-0.42784">
        <ele>378.9</ele>
        <time>2015-10-24T11:26:11Z</time>
      </trkpt>
      <trkpt lat="43.14563" lon="-0.42771">
        <ele>376.49</ele>
        <time>2015-10-24T11:26:13Z</time>
      </trkpt>
      <trkpt lat="43.14561" lon="-0.42765">
        <ele>375.53</ele>
        <time>2015-10-24T11:26:14Z</time>
      </trkpt>
      <trkpt lat="43.1455" lon="-0.42742">
        <ele>366.88</ele>
        <time>2015-10-24T11:26:21Z</time>
      </trkpt>
      <trkpt lat="43.14549" lon="-0.4274">
        <ele>366.4</ele>
        <time>2015-10-24T11:26:24Z</time>
      </trkpt>
      <trkpt lat="43.14549" lon="-0.42734">
        <ele>365.44</ele>
        <time>2015-10-24T11:26:29Z</time>
      </trkpt>
      <trkpt lat="43.14548" lon="-0.42718">
        <ele>365.92</ele>
        <time>2015-10-24T11:26:42Z</time>
      </trkpt>
      <trkpt lat="43.14534" lon="-0.4269">
        <ele>370.24</ele>
        <time>2015-10-24T11:26:54Z</time>
      </trkpt>
      <trkpt lat="43.1451" lon="-0.42647">
        <ele>374.57</ele>
        <time>2015-10-24T11:27:10Z</time>
      </trkpt>
      <trkpt lat="43.14501" lon="-0.4263">
        <ele>376.49</ele>
        <time>2015-10-24T11:27:17Z</time>
      </trkpt>
      <trkpt lat="43.14488" lon="-0.42578">
        <ele>380.34</ele>
        <time>2015-10-24T11:27:32Z</time>
      </trkpt>
      <trkpt lat="43.14479" lon="-0.42539">
        <ele>382.26</ele>
        <time>2015-10-24T11:27:44Z</time>
      </trkpt>
      <trkpt lat="43.14476" lon="-0.42528">
        <ele>383.22</ele>
        <time>2015-10-24T11:27:48Z</time>
      </trkpt>
      <trkpt lat="43.1445" lon="-0.42507">
        <ele>386.11</ele>
        <time>2015-10-24T11:28:01Z</time>
      </trkpt>
      <trkpt lat="43.14424" lon="-0.42481">
        <ele>387.55</ele>
        <time>2015-10-24T11:28:13Z</time>
      </trkpt>
      <trkpt lat="43.14392" lon="-0.42449">
        <ele>389.47</ele>
        <time>2015-10-24T11:28:27Z</time>
      </trkpt>
      <trkpt lat="43.14377" lon="-0.42414">
        <ele>389.95</ele>
        <time>2015-10-24T11:28:39Z</time>
      </trkpt>
      <trkpt lat="43.14358" lon="-0.42378">
        <ele>390.91</ele>
        <time>2015-10-24T11:28:51Z</time>
      </trkpt>
      <trkpt lat="43.14323" lon="-0.42361">
        <ele>392.36</ele>
        <time>2015-10-24T11:29:02Z</time>
      </trkpt>
      <trkpt lat="43.14298" lon="-0.42348">
        <ele>392.36</ele>
        <time>2015-10-24T11:29:09Z</time>
      </trkpt>
      <trkpt lat="43.14268" lon="-0.4233">
        <ele>391.39</ele>
        <time>2015-10-24T11:29:18Z</time>
      </trkpt>
      <trkpt lat="43.14263" lon="-0.42333">
        <ele>390.91</ele>
        <time>2015-10-24T11:29:19Z</time>
      </trkpt>
      <trkpt lat="43.14258" lon="-0.42338">
        <ele>390.43</ele>
        <time>2015-10-24T11:29:20Z</time>
      </trkpt>
      <trkpt lat="43.1422" lon="-0.42372">
        <ele>388.51</ele>
        <time>2015-10-24T11:29:26Z</time>
      </trkpt>
      <trkpt lat="43.14213" lon="-0.42375">
        <ele>388.03</ele>
        <time>2015-10-24T11:29:27Z</time>
      </trkpt>
      <trkpt lat="43.14206" lon="-0.42376">
        <ele>387.55</ele>
        <time>2015-10-24T11:29:28Z</time>
      </trkpt>
      <trkpt lat="43.142" lon="-0.42376">
        <ele>387.07</ele>
        <time>2015-10-24T11:29:29Z</time>
      </trkpt>
      <trkpt lat="43.14194" lon="-0.42375">
        <ele>387.07</ele>
        <time>2015-10-24T11:29:30Z</time>
      </trkpt>
      <trkpt lat="43.14188" lon="-0.42373">
        <ele>387.07</ele>
        <time>2015-10-24T11:29:31Z</time>
      </trkpt>
      <trkpt lat="43.14173" lon="-0.4237">
        <ele>387.07</ele>
        <time>2015-10-24T11:29:34Z</time>
      </trkpt>
      <trkpt lat="43.14168" lon="-0.42369">
        <ele>387.07</ele>
        <time>2015-10-24T11:29:35Z</time>
      </trkpt>
      <trkpt lat="43.14163" lon="-0.42368">
        <ele>387.07</ele>
        <time>2015-10-24T11:29:36Z</time>
      </trkpt>
      <trkpt lat="43.14158" lon="-0.42365">
        <ele>387.55</ele>
        <time>2015-10-24T11:29:37Z</time>
      </trkpt>
      <trkpt lat="43.14153" lon="-0.42363">
        <ele>387.55</ele>
        <time>2015-10-24T11:29:38Z</time>
      </trkpt>
      <trkpt lat="43.14144" lon="-0.42358">
        <ele>387.55</ele>
        <time>2015-10-24T11:29:40Z</time>
      </trkpt>
      <trkpt lat="43.14139" lon="-0.42357">
        <ele>387.55</ele>
        <time>2015-10-24T11:29:41Z</time>
      </trkpt>
      <trkpt lat="43.14134" lon="-0.42355">
        <ele>387.55</ele>
        <time>2015-10-24T11:29:42Z</time>
      </trkpt>
      <trkpt lat="43.14131" lon="-0.42354">
        <ele>387.07</ele>
        <time>2015-10-24T11:29:43Z</time>
      </trkpt>
      <trkpt lat="43.14129" lon="-0.42352">
        <ele>387.07</ele>
        <time>2015-10-24T11:29:44Z</time>
      </trkpt>
      <trkpt lat="43.14103" lon="-0.42333">
        <ele>380.82</ele>
        <time>2015-10-24T11:29:55Z</time>
      </trkpt>
      <trkpt lat="43.14089" lon="-0.42322">
        <ele>377.94</ele>
        <time>2015-10-24T11:30:02Z</time>
      </trkpt>
      <trkpt lat="43.14073" lon="-0.42323">
        <ele>375.53</ele>
        <time>2015-10-24T11:30:08Z</time>
      </trkpt>
      <trkpt lat="43.14056" lon="-0.42326">
        <ele>373.61</ele>
        <time>2015-10-24T11:30:15Z</time>
      </trkpt>
      <trkpt lat="43.14043" lon="-0.4233">
        <ele>375.05</ele>
        <time>2015-10-24T11:30:22Z</time>
      </trkpt>
      <trkpt lat="43.14023" lon="-0.4233">
        <ele>376.01</ele>
        <time>2015-10-24T11:30:29Z</time>
      </trkpt>
      <trkpt lat="43.14008" lon="-0.42331">
        <ele>376.97</ele>
        <time>2015-10-24T11:30:35Z</time>
      </trkpt>
      <trkpt lat="43.14004" lon="-0.42331">
        <ele>376.49</ele>
        <time>2015-10-24T11:30:37Z</time>
      </trkpt>
      <trkpt lat="43.13991" lon="-0.42325">
        <ele>378.42</ele>
        <time>2015-10-24T11:30:43Z</time>
      </trkpt>
      <trkpt lat="43.13959" lon="-0.42327">
        <ele>381.78</ele>
        <time>2015-10-24T11:30:54Z</time>
      </trkpt>
      <trkpt lat="43.1394" lon="-0.42331">
        <ele>383.7</ele>
        <time>2015-10-24T11:31:02Z</time>
      </trkpt>
      <trkpt lat="43.1392" lon="-0.42329">
        <ele>383.22</ele>
        <time>2015-10-24T11:31:11Z</time>
      </trkpt>
      <trkpt lat="43.13916" lon="-0.42333">
        <ele>383.22</ele>
        <time>2015-10-24T11:31:15Z</time>
      </trkpt>
      <trkpt lat="43.13906" lon="-0.4233">
        <ele>383.22</ele>
        <time>2015-10-24T11:31:20Z</time>
      </trkpt>
      <trkpt lat="43.13877" lon="-0.42327">
        <ele>380.34</ele>
        <time>2015-10-24T11:31:32Z</time>
      </trkpt>
      <trkpt lat="43.1386" lon="-0.42331">
        <ele>382.74</ele>
        <time>2015-10-24T11:31:37Z</time>
      </trkpt>
      <trkpt lat="43.1385" lon="-0.42333">
        <ele>386.59</ele>
        <time>2015-10-24T11:31:40Z</time>
      </trkpt>
      <trkpt lat="43.13837" lon="-0.42333">
        <ele>389.47</ele>
        <time>2015-10-24T11:31:46Z</time>
      </trkpt>
      <trkpt lat="43.13812" lon="-0.42328">
        <ele>394.28</ele>
        <time>2015-10-24T11:31:57Z</time>
      </trkpt>
      <trkpt lat="43.13792" lon="-0.42318">
        <ele>398.12</ele>
        <time>2015-10-24T11:32:09Z</time>
      </trkpt>
      <trkpt lat="43.13774" lon="-0.42306">
        <ele>398.6</ele>
        <time>2015-10-24T11:32:18Z</time>
      </trkpt>
      <trkpt lat="43.13771" lon="-0.42305">
        <ele>398.6</ele>
        <time>2015-10-24T11:32:20Z</time>
      </trkpt>
      <trkpt lat="43.13769" lon="-0.42301">
        <ele>398.6</ele>
        <time>2015-10-24T11:32:22Z</time>
      </trkpt>
      <trkpt lat="43.13761" lon="-0.4229">
        <ele>398.6</ele>
        <time>2015-10-24T11:32:29Z</time>
      </trkpt>
      <trkpt lat="43.13756" lon="-0.42281">
        <ele>398.12</ele>
        <time>2015-10-24T11:32:34Z</time>
      </trkpt>
      <trkpt lat="43.13748" lon="-0.4227">
        <ele>397.64</ele>
        <time>2015-10-24T11:32:41Z</time>
      </trkpt>
      <trkpt lat="43.1374" lon="-0.42258">
        <ele>397.16</ele>
        <time>2015-10-24T11:32:49Z</time>
      </trkpt>
      <trkpt lat="43.13735" lon="-0.42255">
        <ele>397.16</ele>
        <time>2015-10-24T11:32:52Z</time>
      </trkpt>
      <trkpt lat="43.13709" lon="-0.42249">
        <ele>397.64</ele>
        <time>2015-10-24T11:33:04Z</time>
      </trkpt>
      <trkpt lat="43.13691" lon="-0.42252">
        <ele>399.08</ele>
        <time>2015-10-24T11:33:10Z</time>
      </trkpt>
      <trkpt lat="43.13682" lon="-0.42253">
        <ele>401.01</ele>
        <time>2015-10-24T11:33:13Z</time>
      </trkpt>
      <trkpt lat="43.13672" lon="-0.42254">
        <ele>402.45</ele>
        <time>2015-10-24T11:33:17Z</time>
      </trkpt>
      <trkpt lat="43.1365" lon="-0.42251">
        <ele>402.93</ele>
        <time>2015-10-24T11:33:29Z</time>
      </trkpt>
      <trkpt lat="43.1364" lon="-0.42248">
        <ele>398.6</ele>
        <time>2015-10-24T11:33:35Z</time>
      </trkpt>
      <trkpt lat="43.13628" lon="-0.42238">
        <ele>394.28</ele>
        <time>2015-10-24T11:33:44Z</time>
      </trkpt>
      <trkpt lat="43.13627" lon="-0.42238">
        <ele>394.28</ele>
        <time>2015-10-24T11:33:45Z</time>
      </trkpt>
      <trkpt lat="43.13624" lon="-0.42239">
        <ele>394.76</ele>
        <time>2015-10-24T11:33:46Z</time>
      </trkpt>
      <trkpt lat="43.13599" lon="-0.42221">
        <ele>400.53</ele>
        <time>2015-10-24T11:33:59Z</time>
      </trkpt>
      <trkpt lat="43.13587" lon="-0.42211">
        <ele>401.01</ele>
        <time>2015-10-24T11:34:06Z</time>
      </trkpt>
      <trkpt lat="43.13578" lon="-0.42202">
        <ele>400.05</ele>
        <time>2015-10-24T11:34:11Z</time>
      </trkpt>
      <trkpt lat="43.13574" lon="-0.42196">
        <ele>400.05</ele>
        <time>2015-10-24T11:34:14Z</time>
      </trkpt>
      <trkpt lat="43.13565" lon="-0.42182">
        <ele>406.77</ele>
        <time>2015-10-24T11:34:26Z</time>
      </trkpt>
      <trkpt lat="43.13565" lon="-0.42181">
        <ele>408.7</ele>
        <time>2015-10-24T11:34:35Z</time>
      </trkpt>
      <trkpt lat="43.13567" lon="-0.4218">
        <ele>409.66</ele>
        <time>2015-10-24T11:34:38Z</time>
      </trkpt>
      <trkpt lat="43.1357" lon="-0.42178">
        <ele>411.58</ele>
        <time>2015-10-24T11:34:41Z</time>
      </trkpt>
      <trkpt lat="43.1358" lon="-0.42175">
        <ele>418.79</ele>
        <time>2015-10-24T11:34:52Z</time>
      </trkpt>
      <trkpt lat="43.13589" lon="-0.42175">
        <ele>423.12</ele>
        <time>2015-10-24T11:35:02Z</time>
      </trkpt>
      <trkpt lat="43.136" lon="-0.4217">
        <ele>426.48</ele>
        <time>2015-10-24T11:35:13Z</time>
      </trkpt>
      <trkpt lat="43.13607" lon="-0.42167">
        <ele>427.44</ele>
        <time>2015-10-24T11:35:21Z</time>
      </trkpt>
      <trkpt lat="43.13615" lon="-0.42164">
        <ele>428.89</ele>
        <time>2015-10-24T11:35:28Z</time>
      </trkpt>
      <trkpt lat="43.13623" lon="-0.42161">
        <ele>430.81</ele>
        <time>2015-10-24T11:35:38Z</time>
      </trkpt>
      <trkpt lat="43.13633" lon="-0.42162">
        <ele>435.13</ele>
        <time>2015-10-24T11:35:51Z</time>
      </trkpt>
      <trkpt lat="43.13637" lon="-0.42163">
        <ele>437.54</ele>
        <time>2015-10-24T11:35:57Z</time>
      </trkpt>
      <trkpt lat="43.13647" lon="-0.42156">
        <ele>442.34</ele>
        <time>2015-10-24T11:36:11Z</time>
      </trkpt>
      <trkpt lat="43.13648" lon="-0.4215">
        <ele>445.71</ele>
        <time>2015-10-24T11:36:23Z</time>
      </trkpt>
      <trkpt lat="43.13649" lon="-0.42144">
        <ele>447.15</ele>
        <time>2015-10-24T11:36:28Z</time>
      </trkpt>
      <trkpt lat="43.13654" lon="-0.42135">
        <ele>448.59</ele>
        <time>2015-10-24T11:36:33Z</time>
      </trkpt>
      <trkpt lat="43.13659" lon="-0.42128">
        <ele>449.07</ele>
        <time>2015-10-24T11:36:37Z</time>
      </trkpt>
      <trkpt lat="43.13667" lon="-0.42107">
        <ele>448.59</ele>
        <time>2015-10-24T11:36:50Z</time>
      </trkpt>
      <trkpt lat="43.1368" lon="-0.42096">
        <ele>448.11</ele>
        <time>2015-10-24T11:37:02Z</time>
      </trkpt>
      <trkpt lat="43.1369" lon="-0.42096">
        <ele>448.59</ele>
        <time>2015-10-24T11:37:10Z</time>
      </trkpt>
      <trkpt lat="43.13702" lon="-0.42099">
        <ele>451</ele>
        <time>2015-10-24T11:37:23Z</time>
      </trkpt>
      <trkpt lat="43.1372" lon="-0.42097">
        <ele>454.84</ele>
        <time>2015-10-24T11:37:37Z</time>
      </trkpt>
      <trkpt lat="43.13734" lon="-0.42091">
        <ele>458.21</ele>
        <time>2015-10-24T11:37:50Z</time>
      </trkpt>
      <trkpt lat="43.13753" lon="-0.42093">
        <ele>461.57</ele>
        <time>2015-10-24T11:38:04Z</time>
      </trkpt>
      <trkpt lat="43.13757" lon="-0.42094">
        <ele>461.57</ele>
        <time>2015-10-24T11:38:07Z</time>
      </trkpt>
      <trkpt lat="43.13767" lon="-0.42099">
        <ele>462.05</ele>
        <time>2015-10-24T11:38:12Z</time>
      </trkpt>
      <trkpt lat="43.13787" lon="-0.42083">
        <ele>463.01</ele>
        <time>2015-10-24T11:38:22Z</time>
      </trkpt>
      <trkpt lat="43.1381" lon="-0.42052">
        <ele>463.01</ele>
        <time>2015-10-24T11:38:36Z</time>
      </trkpt>
      <trkpt lat="43.13823" lon="-0.42023">
        <ele>463.01</ele>
        <time>2015-10-24T11:38:48Z</time>
      </trkpt>
      <trkpt lat="43.13839" lon="-0.41977">
        <ele>463.01</ele>
        <time>2015-10-24T11:39:04Z</time>
      </trkpt>
      <trkpt lat="43.13843" lon="-0.41965">
        <ele>463.49</ele>
        <time>2015-10-24T11:39:08Z</time>
      </trkpt>
      <trkpt lat="43.1385" lon="-0.41925">
        <ele>466.86</ele>
        <time>2015-10-24T11:39:21Z</time>
      </trkpt>
      <trkpt lat="43.13857" lon="-0.4188">
        <ele>468.3</ele>
        <time>2015-10-24T11:39:34Z</time>
      </trkpt>
      <trkpt lat="43.13858" lon="-0.41838">
        <ele>466.86</ele>
        <time>2015-10-24T11:39:47Z</time>
      </trkpt>
      <trkpt lat="43.1386" lon="-0.41826">
        <ele>465.9</ele>
        <time>2015-10-24T11:39:50Z</time>
      </trkpt>
      <trkpt lat="43.13858" lon="-0.41783">
        <ele>463.01</ele>
        <time>2015-10-24T11:39:56Z</time>
      </trkpt>
      <trkpt lat="43.13859" lon="-0.41762">
        <ele>461.57</ele>
        <time>2015-10-24T11:39:59Z</time>
      </trkpt>
      <trkpt lat="43.13861" lon="-0.41755">
        <ele>461.09</ele>
        <time>2015-10-24T11:40:00Z</time>
      </trkpt>
      <trkpt lat="43.13865" lon="-0.41751">
        <ele>461.09</ele>
        <time>2015-10-24T11:40:01Z</time>
      </trkpt>
      <trkpt lat="43.13873" lon="-0.41746">
        <ele>460.61</ele>
        <time>2015-10-24T11:40:03Z</time>
      </trkpt>
      <trkpt lat="43.13883" lon="-0.41742">
        <ele>460.13</ele>
        <time>2015-10-24T11:40:05Z</time>
      </trkpt>
      <trkpt lat="43.13886" lon="-0.41739">
        <ele>460.13</ele>
        <time>2015-10-24T11:40:06Z</time>
      </trkpt>
      <trkpt lat="43.13895" lon="-0.41722">
        <ele>459.65</ele>
        <time>2015-10-24T11:40:13Z</time>
      </trkpt>
      <trkpt lat="43.139" lon="-0.41705">
        <ele>458.69</ele>
        <time>2015-10-24T11:40:19Z</time>
      </trkpt>
      <trkpt lat="43.139" lon="-0.41702">
        <ele>458.69</ele>
        <time>2015-10-24T11:40:20Z</time>
      </trkpt>
      <trkpt lat="43.13901" lon="-0.41698">
        <ele>458.21</ele>
        <time>2015-10-24T11:40:21Z</time>
      </trkpt>
      <trkpt lat="43.13901" lon="-0.41695">
        <ele>458.21</ele>
        <time>2015-10-24T11:40:22Z</time>
      </trkpt>
      <trkpt lat="43.13901" lon="-0.41692">
        <ele>458.21</ele>
        <time>2015-10-24T11:40:23Z</time>
      </trkpt>
      <trkpt lat="43.13901" lon="-0.41688">
        <ele>458.69</ele>
        <time>2015-10-24T11:40:24Z</time>
      </trkpt>
      <trkpt lat="43.13911" lon="-0.41642">
        <ele>460.13</ele>
        <time>2015-10-24T11:40:37Z</time>
      </trkpt>
      <trkpt lat="43.13917" lon="-0.41608">
        <ele>462.53</ele>
        <time>2015-10-24T11:40:47Z</time>
      </trkpt>
      <trkpt lat="43.13909" lon="-0.4158">
        <ele>467.82</ele>
        <time>2015-10-24T11:40:59Z</time>
      </trkpt>
      <trkpt lat="43.13901" lon="-0.41555">
        <ele>470.7</ele>
        <time>2015-10-24T11:41:11Z</time>
      </trkpt>
      <trkpt lat="43.13893" lon="-0.41528">
        <ele>473.59</ele>
        <time>2015-10-24T11:41:23Z</time>
      </trkpt>
      <trkpt lat="43.13891" lon="-0.41527">
        <ele>473.59</ele>
        <time>2015-10-24T11:41:24Z</time>
      </trkpt>
      <trkpt lat="43.13889" lon="-0.41526">
        <ele>474.07</ele>
        <time>2015-10-24T11:41:25Z</time>
      </trkpt>
      <trkpt lat="43.13887" lon="-0.41526">
        <ele>474.07</ele>
        <time>2015-10-24T11:41:26Z</time>
      </trkpt>
      <trkpt lat="43.13885" lon="-0.41526">
        <ele>474.55</ele>
        <time>2015-10-24T11:41:27Z</time>
      </trkpt>
      <trkpt lat="43.13848" lon="-0.41528">
        <ele>476.95</ele>
        <time>2015-10-24T11:41:43Z</time>
      </trkpt>
      <trkpt lat="43.13807" lon="-0.41521">
        <ele>478.39</ele>
        <time>2015-10-24T11:41:58Z</time>
      </trkpt>
      <trkpt lat="43.13762" lon="-0.41522">
        <ele>481.28</ele>
        <time>2015-10-24T11:42:13Z</time>
      </trkpt>
      <trkpt lat="43.13719" lon="-0.4153">
        <ele>485.12</ele>
        <time>2015-10-24T11:42:27Z</time>
      </trkpt>
      <trkpt lat="43.13684" lon="-0.41535">
        <ele>485.6</ele>
        <time>2015-10-24T11:42:38Z</time>
      </trkpt>
      <trkpt lat="43.13651" lon="-0.41534">
        <ele>488.01</ele>
        <time>2015-10-24T11:42:47Z</time>
      </trkpt>
      <trkpt lat="43.1361" lon="-0.41533">
        <ele>492.33</ele>
        <time>2015-10-24T11:42:59Z</time>
      </trkpt>
      <trkpt lat="43.13573" lon="-0.41532">
        <ele>497.14</ele>
        <time>2015-10-24T11:43:11Z</time>
      </trkpt>
      <trkpt lat="43.13532" lon="-0.41533">
        <ele>498.58</ele>
        <time>2015-10-24T11:43:23Z</time>
      </trkpt>
      <trkpt lat="43.13492" lon="-0.41545">
        <ele>499.06</ele>
        <time>2015-10-24T11:43:33Z</time>
      </trkpt>
      <trkpt lat="43.13488" lon="-0.41546">
        <ele>499.06</ele>
        <time>2015-10-24T11:43:34Z</time>
      </trkpt>
      <trkpt lat="43.13465" lon="-0.41548">
        <ele>497.62</ele>
        <time>2015-10-24T11:43:39Z</time>
      </trkpt>
      <trkpt lat="43.13456" lon="-0.41548">
        <ele>498.1</ele>
        <time>2015-10-24T11:43:41Z</time>
      </trkpt>
      <trkpt lat="43.13451" lon="-0.41548">
        <ele>498.1</ele>
        <time>2015-10-24T11:43:42Z</time>
      </trkpt>
      <trkpt lat="43.13447" lon="-0.41548">
        <ele>498.1</ele>
        <time>2015-10-24T11:43:43Z</time>
      </trkpt>
      <trkpt lat="43.13442" lon="-0.41548">
        <ele>497.62</ele>
        <time>2015-10-24T11:43:44Z</time>
      </trkpt>
      <trkpt lat="43.13438" lon="-0.41548">
        <ele>497.62</ele>
        <time>2015-10-24T11:43:45Z</time>
      </trkpt>
      <trkpt lat="43.13433" lon="-0.41548">
        <ele>497.14</ele>
        <time>2015-10-24T11:43:46Z</time>
      </trkpt>
      <trkpt lat="43.13394" lon="-0.41541">
        <ele>493.77</ele>
        <time>2015-10-24T11:43:53Z</time>
      </trkpt>
      <trkpt lat="43.13388" lon="-0.41539">
        <ele>493.77</ele>
        <time>2015-10-24T11:43:54Z</time>
      </trkpt>
      <trkpt lat="43.13382" lon="-0.41536">
        <ele>493.29</ele>
        <time>2015-10-24T11:43:55Z</time>
      </trkpt>
      <trkpt lat="43.13366" lon="-0.41531">
        <ele>492.81</ele>
        <time>2015-10-24T11:43:58Z</time>
      </trkpt>
      <trkpt lat="43.13356" lon="-0.41527">
        <ele>492.33</ele>
        <time>2015-10-24T11:44:00Z</time>
      </trkpt>
      <trkpt lat="43.13346" lon="-0.41525">
        <ele>491.85</ele>
        <time>2015-10-24T11:44:02Z</time>
      </trkpt>
      <trkpt lat="43.13312" lon="-0.4152">
        <ele>493.29</ele>
        <time>2015-10-24T11:44:09Z</time>
      </trkpt>
      <trkpt lat="43.13271" lon="-0.41514">
        <ele>495.22</ele>
        <time>2015-10-24T11:44:20Z</time>
      </trkpt>
      <trkpt lat="43.13232" lon="-0.41525">
        <ele>496.66</ele>
        <time>2015-10-24T11:44:31Z</time>
      </trkpt>
      <trkpt lat="43.13191" lon="-0.4153">
        <ele>500.02</ele>
        <time>2015-10-24T11:44:42Z</time>
      </trkpt>
      <trkpt lat="43.13151" lon="-0.41537">
        <ele>501.95</ele>
        <time>2015-10-24T11:44:53Z</time>
      </trkpt>
      <trkpt lat="43.13111" lon="-0.41539">
        <ele>502.43</ele>
        <time>2015-10-24T11:45:04Z</time>
      </trkpt>
      <trkpt lat="43.13067" lon="-0.41541">
        <ele>503.87</ele>
        <time>2015-10-24T11:45:17Z</time>
      </trkpt>
      <trkpt lat="43.13006" lon="-0.41549">
        <ele>504.35</ele>
        <time>2015-10-24T11:45:34Z</time>
      </trkpt>
      <trkpt lat="43.12953" lon="-0.41554">
        <ele>505.79</ele>
        <time>2015-10-24T11:45:48Z</time>
      </trkpt>
      <trkpt lat="43.12912" lon="-0.41553">
        <ele>507.23</ele>
        <time>2015-10-24T11:46:00Z</time>
      </trkpt>
      <trkpt lat="43.12864" lon="-0.41537">
        <ele>507.71</ele>
        <time>2015-10-24T11:46:13Z</time>
      </trkpt>
      <trkpt lat="43.1286" lon="-0.41535">
        <ele>507.71</ele>
        <time>2015-10-24T11:46:14Z</time>
      </trkpt>
      <trkpt lat="43.12852" lon="-0.41531">
        <ele>507.71</ele>
        <time>2015-10-24T11:46:16Z</time>
      </trkpt>
      <trkpt lat="43.12839" lon="-0.41527">
        <ele>507.23</ele>
        <time>2015-10-24T11:46:19Z</time>
      </trkpt>
      <trkpt lat="43.12818" lon="-0.4152">
        <ele>506.75</ele>
        <time>2015-10-24T11:46:24Z</time>
      </trkpt>
      <trkpt lat="43.12816" lon="-0.41516">
        <ele>506.75</ele>
        <time>2015-10-24T11:46:25Z</time>
      </trkpt>
      <trkpt lat="43.12814" lon="-0.41512">
        <ele>506.27</ele>
        <time>2015-10-24T11:46:26Z</time>
      </trkpt>
      <trkpt lat="43.1281" lon="-0.4151">
        <ele>505.79</ele>
        <time>2015-10-24T11:46:27Z</time>
      </trkpt>
      <trkpt lat="43.12807" lon="-0.41508">
        <ele>505.79</ele>
        <time>2015-10-24T11:46:28Z</time>
      </trkpt>
      <trkpt lat="43.12803" lon="-0.41508">
        <ele>505.31</ele>
        <time>2015-10-24T11:46:29Z</time>
      </trkpt>
      <trkpt lat="43.12785" lon="-0.41503">
        <ele>503.39</ele>
        <time>2015-10-24T11:46:33Z</time>
      </trkpt>
      <trkpt lat="43.12775" lon="-0.41501">
        <ele>503.39</ele>
        <time>2015-10-24T11:46:35Z</time>
      </trkpt>
      <trkpt lat="43.12771" lon="-0.41501">
        <ele>503.39</ele>
        <time>2015-10-24T11:46:36Z</time>
      </trkpt>
      <trkpt lat="43.1273" lon="-0.41492">
        <ele>504.83</ele>
        <time>2015-10-24T11:46:47Z</time>
      </trkpt>
      <trkpt lat="43.12726" lon="-0.41492">
        <ele>504.83</ele>
        <time>2015-10-24T11:46:48Z</time>
      </trkpt>
      <trkpt lat="43.12722" lon="-0.41491">
        <ele>504.83</ele>
        <time>2015-10-24T11:46:49Z</time>
      </trkpt>
      <trkpt lat="43.12718" lon="-0.4149">
        <ele>504.83</ele>
        <time>2015-10-24T11:46:50Z</time>
      </trkpt>
      <trkpt lat="43.1266" lon="-0.41481">
        <ele>508.67</ele>
        <time>2015-10-24T11:47:06Z</time>
      </trkpt>
      <trkpt lat="43.12658" lon="-0.4148">
        <ele>508.67</ele>
        <time>2015-10-24T11:47:07Z</time>
      </trkpt>
      <trkpt lat="43.12656" lon="-0.41477">
        <ele>509.16</ele>
        <time>2015-10-24T11:47:08Z</time>
      </trkpt>
      <trkpt lat="43.12654" lon="-0.41474">
        <ele>509.64</ele>
        <time>2015-10-24T11:47:09Z</time>
      </trkpt>
      <trkpt lat="43.12652" lon="-0.41472">
        <ele>509.64</ele>
        <time>2015-10-24T11:47:10Z</time>
      </trkpt>
      <trkpt lat="43.12649" lon="-0.4147">
        <ele>509.64</ele>
        <time>2015-10-24T11:47:11Z</time>
      </trkpt>
      <trkpt lat="43.12646" lon="-0.41469">
        <ele>509.64</ele>
        <time>2015-10-24T11:47:12Z</time>
      </trkpt>
      <trkpt lat="43.12643" lon="-0.41468">
        <ele>510.12</ele>
        <time>2015-10-24T11:47:13Z</time>
      </trkpt>
      <trkpt lat="43.12641" lon="-0.41468">
        <ele>510.12</ele>
        <time>2015-10-24T11:47:14Z</time>
      </trkpt>
      <trkpt lat="43.12607" lon="-0.41465">
        <ele>512.52</ele>
        <time>2015-10-24T11:47:27Z</time>
      </trkpt>
      <trkpt lat="43.12585" lon="-0.41466">
        <ele>514.44</ele>
        <time>2015-10-24T11:47:38Z</time>
      </trkpt>
      <trkpt lat="43.12558" lon="-0.41474">
        <ele>518.77</ele>
        <time>2015-10-24T11:47:53Z</time>
      </trkpt>
      <trkpt lat="43.12534" lon="-0.41468">
        <ele>522.61</ele>
        <time>2015-10-24T11:48:08Z</time>
      </trkpt>
      <trkpt lat="43.12515" lon="-0.41459">
        <ele>525.02</ele>
        <time>2015-10-24T11:48:20Z</time>
      </trkpt>
      <trkpt lat="43.12498" lon="-0.41443">
        <ele>526.46</ele>
        <time>2015-10-24T11:48:32Z</time>
      </trkpt>
      <trkpt lat="43.12496" lon="-0.41436">
        <ele>526.94</ele>
        <time>2015-10-24T11:48:37Z</time>
      </trkpt>
      <trkpt lat="43.12475" lon="-0.41405">
        <ele>523.58</ele>
        <time>2015-10-24T11:48:53Z</time>
      </trkpt>
      <trkpt lat="43.12458" lon="-0.41386">
        <ele>525.98</ele>
        <time>2015-10-24T11:49:04Z</time>
      </trkpt>
      <trkpt lat="43.12447" lon="-0.41374">
        <ele>527.42</ele>
        <time>2015-10-24T11:49:12Z</time>
      </trkpt>
      <trkpt lat="43.12443" lon="-0.4137">
        <ele>527.42</ele>
        <time>2015-10-24T11:49:16Z</time>
      </trkpt>
      <trkpt lat="43.12426" lon="-0.41374">
        <ele>527.42</ele>
        <time>2015-10-24T11:49:26Z</time>
      </trkpt>
      <trkpt lat="43.12413" lon="-0.41387">
        <ele>536.07</ele>
        <time>2015-10-24T11:49:39Z</time>
      </trkpt>
      <trkpt lat="43.12404" lon="-0.41401">
        <ele>542.8</ele>
        <time>2015-10-24T11:49:53Z</time>
      </trkpt>
      <trkpt lat="43.12392" lon="-0.41415">
        <ele>548.09</ele>
        <time>2015-10-24T11:50:06Z</time>
      </trkpt>
      <trkpt lat="43.12374" lon="-0.41421">
        <ele>548.09</ele>
        <time>2015-10-24T11:50:22Z</time>
      </trkpt>
      <trkpt lat="43.12365" lon="-0.41421">
        <ele>547.13</ele>
        <time>2015-10-24T11:50:27Z</time>
      </trkpt>
      <trkpt lat="43.12337" lon="-0.41414">
        <ele>544.24</ele>
        <time>2015-10-24T11:50:37Z</time>
      </trkpt>
      <trkpt lat="43.12332" lon="-0.41411">
        <ele>543.76</ele>
        <time>2015-10-24T11:50:39Z</time>
      </trkpt>
      <trkpt lat="43.12309" lon="-0.41408">
        <ele>542.32</ele>
        <time>2015-10-24T11:50:48Z</time>
      </trkpt>
      <trkpt lat="43.12276" lon="-0.41403">
        <ele>544.72</ele>
        <time>2015-10-24T11:51:02Z</time>
      </trkpt>
      <trkpt lat="43.12269" lon="-0.41404">
        <ele>545.69</ele>
        <time>2015-10-24T11:51:05Z</time>
      </trkpt>
      <trkpt lat="43.12253" lon="-0.41405">
        <ele>548.09</ele>
        <time>2015-10-24T11:51:11Z</time>
      </trkpt>
      <trkpt lat="43.12224" lon="-0.41411">
        <ele>549.53</ele>
        <time>2015-10-24T11:51:22Z</time>
      </trkpt>
      <trkpt lat="43.12194" lon="-0.41408">
        <ele>548.09</ele>
        <time>2015-10-24T11:51:32Z</time>
      </trkpt>
      <trkpt lat="43.12179" lon="-0.41401">
        <ele>545.69</ele>
        <time>2015-10-24T11:51:36Z</time>
      </trkpt>
      <trkpt lat="43.12163" lon="-0.41395">
        <ele>542.8</ele>
        <time>2015-10-24T11:51:39Z</time>
      </trkpt>
      <trkpt lat="43.12131" lon="-0.41403">
        <ele>537.99</ele>
        <time>2015-10-24T11:51:45Z</time>
      </trkpt>
      <trkpt lat="43.12128" lon="-0.41403">
        <ele>536.55</ele>
        <time>2015-10-24T11:51:47Z</time>
      </trkpt>
      <trkpt lat="43.12104" lon="-0.414">
        <ele>533.67</ele>
        <time>2015-10-24T11:51:54Z</time>
      </trkpt>
      <trkpt lat="43.12083" lon="-0.41392">
        <ele>532.71</ele>
        <time>2015-10-24T11:52:06Z</time>
      </trkpt>
      <trkpt lat="43.1208" lon="-0.41388">
        <ele>535.11</ele>
        <time>2015-10-24T11:52:10Z</time>
      </trkpt>
      <trkpt lat="43.12069" lon="-0.41372">
        <ele>540.4</ele>
        <time>2015-10-24T11:52:22Z</time>
      </trkpt>
      <trkpt lat="43.12059" lon="-0.41359">
        <ele>547.13</ele>
        <time>2015-10-24T11:52:34Z</time>
      </trkpt>
      <trkpt lat="43.12049" lon="-0.41343">
        <ele>549.53</ele>
        <time>2015-10-24T11:52:44Z</time>
      </trkpt>
      <trkpt lat="43.12043" lon="-0.41329">
        <ele>550.01</ele>
        <time>2015-10-24T11:52:49Z</time>
      </trkpt>
      <trkpt lat="43.12032" lon="-0.41316">
        <ele>553.86</ele>
        <time>2015-10-24T11:52:57Z</time>
      </trkpt>
      <trkpt lat="43.12029" lon="-0.41313">
        <ele>554.82</ele>
        <time>2015-10-24T11:52:59Z</time>
      </trkpt>
      <trkpt lat="43.12014" lon="-0.41313">
        <ele>559.62</ele>
        <time>2015-10-24T11:53:11Z</time>
      </trkpt>
      <trkpt lat="43.12012" lon="-0.41313">
        <ele>560.11</ele>
        <time>2015-10-24T11:53:12Z</time>
      </trkpt>
      <trkpt lat="43.12004" lon="-0.41312">
        <ele>560.59</ele>
        <time>2015-10-24T11:53:16Z</time>
      </trkpt>
      <trkpt lat="43.11969" lon="-0.41297">
        <ele>559.14</ele>
        <time>2015-10-24T11:53:28Z</time>
      </trkpt>
      <trkpt lat="43.11959" lon="-0.41289">
        <ele>559.14</ele>
        <time>2015-10-24T11:53:32Z</time>
      </trkpt>
      <trkpt lat="43.11931" lon="-0.41265">
        <ele>557.7</ele>
        <time>2015-10-24T11:53:42Z</time>
      </trkpt>
      <trkpt lat="43.11902" lon="-0.41246">
        <ele>557.22</ele>
        <time>2015-10-24T11:53:53Z</time>
      </trkpt>
      <trkpt lat="43.11889" lon="-0.41242">
        <ele>557.7</ele>
        <time>2015-10-24T11:53:57Z</time>
      </trkpt>
      <trkpt lat="43.11868" lon="-0.41205">
        <ele>560.11</ele>
        <time>2015-10-24T11:54:09Z</time>
      </trkpt>
      <trkpt lat="43.11863" lon="-0.41191">
        <ele>559.14</ele>
        <time>2015-10-24T11:54:15Z</time>
      </trkpt>
      <trkpt lat="43.11854" lon="-0.41167">
        <ele>554.34</ele>
        <time>2015-10-24T11:54:20Z</time>
      </trkpt>
      <trkpt lat="43.11844" lon="-0.41122">
        <ele>543.28</ele>
        <time>2015-10-24T11:54:30Z</time>
      </trkpt>
      <trkpt lat="43.11841" lon="-0.41105">
        <ele>538.96</ele>
        <time>2015-10-24T11:54:34Z</time>
      </trkpt>
      <trkpt lat="43.11839" lon="-0.41095">
        <ele>536.55</ele>
        <time>2015-10-24T11:54:36Z</time>
      </trkpt>
      <trkpt lat="43.11843" lon="-0.41079">
        <ele>530.3</ele>
        <time>2015-10-24T11:54:40Z</time>
      </trkpt>
      <trkpt lat="43.1184" lon="-0.4106">
        <ele>528.38</ele>
        <time>2015-10-24T11:54:43Z</time>
      </trkpt>
      <trkpt lat="43.11837" lon="-0.41056">
        <ele>527.9</ele>
        <time>2015-10-24T11:54:44Z</time>
      </trkpt>
      <trkpt lat="43.11831" lon="-0.41055">
        <ele>527.9</ele>
        <time>2015-10-24T11:54:45Z</time>
      </trkpt>
      <trkpt lat="43.11825" lon="-0.41056">
        <ele>526.94</ele>
        <time>2015-10-24T11:54:46Z</time>
      </trkpt>
      <trkpt lat="43.11818" lon="-0.41059">
        <ele>525.98</ele>
        <time>2015-10-24T11:54:47Z</time>
      </trkpt>
      <trkpt lat="43.11812" lon="-0.41063">
        <ele>525.5</ele>
        <time>2015-10-24T11:54:48Z</time>
      </trkpt>
      <trkpt lat="43.11751" lon="-0.41107">
        <ele>518.29</ele>
        <time>2015-10-24T11:54:56Z</time>
      </trkpt>
      <trkpt lat="43.11743" lon="-0.41111">
        <ele>517.33</ele>
        <time>2015-10-24T11:54:57Z</time>
      </trkpt>
      <trkpt lat="43.11692" lon="-0.41135">
        <ele>511.56</ele>
        <time>2015-10-24T11:55:03Z</time>
      </trkpt>
      <trkpt lat="43.11674" lon="-0.41142">
        <ele>509.16</ele>
        <time>2015-10-24T11:55:06Z</time>
      </trkpt>
      <trkpt lat="43.1167" lon="-0.41146">
        <ele>508.19</ele>
        <time>2015-10-24T11:55:07Z</time>
      </trkpt>
      <trkpt lat="43.11665" lon="-0.41151">
        <ele>507.23</ele>
        <time>2015-10-24T11:55:08Z</time>
      </trkpt>
      <trkpt lat="43.1166" lon="-0.41156">
        <ele>506.27</ele>
        <time>2015-10-24T11:55:09Z</time>
      </trkpt>
      <trkpt lat="43.11653" lon="-0.4116">
        <ele>504.83</ele>
        <time>2015-10-24T11:55:10Z</time>
      </trkpt>
      <trkpt lat="43.11644" lon="-0.41163">
        <ele>503.87</ele>
        <time>2015-10-24T11:55:11Z</time>
      </trkpt>
      <trkpt lat="43.11634" lon="-0.41166">
        <ele>502.43</ele>
        <time>2015-10-24T11:55:12Z</time>
      </trkpt>
      <trkpt lat="43.11559" lon="-0.41183">
        <ele>490.41</ele>
        <time>2015-10-24T11:55:19Z</time>
      </trkpt>
      <trkpt lat="43.11501" lon="-0.41193">
        <ele>481.28</ele>
        <time>2015-10-24T11:55:24Z</time>
      </trkpt>
      <trkpt lat="43.11492" lon="-0.41196">
        <ele>479.84</ele>
        <time>2015-10-24T11:55:25Z</time>
      </trkpt>
      <trkpt lat="43.11483" lon="-0.41197">
        <ele>478.87</ele>
        <time>2015-10-24T11:55:26Z</time>
      </trkpt>
      <trkpt lat="43.11474" lon="-0.41194">
        <ele>477.43</ele>
        <time>2015-10-24T11:55:27Z</time>
      </trkpt>
      <trkpt lat="43.11465" lon="-0.41187">
        <ele>476.47</ele>
        <time>2015-10-24T11:55:28Z</time>
      </trkpt>
      <trkpt lat="43.11458" lon="-0.41178">
        <ele>475.03</ele>
        <time>2015-10-24T11:55:29Z</time>
      </trkpt>
      <trkpt lat="43.11451" lon="-0.41168">
        <ele>474.07</ele>
        <time>2015-10-24T11:55:30Z</time>
      </trkpt>
      <trkpt lat="43.11445" lon="-0.41158">
        <ele>473.11</ele>
        <time>2015-10-24T11:55:31Z</time>
      </trkpt>
      <trkpt lat="43.11434" lon="-0.41141">
        <ele>471.66</ele>
        <time>2015-10-24T11:55:33Z</time>
      </trkpt>
      <trkpt lat="43.11428" lon="-0.41135">
        <ele>471.18</ele>
        <time>2015-10-24T11:55:34Z</time>
      </trkpt>
      <trkpt lat="43.11421" lon="-0.41131">
        <ele>470.7</ele>
        <time>2015-10-24T11:55:35Z</time>
      </trkpt>
      <trkpt lat="43.11413" lon="-0.4113">
        <ele>470.22</ele>
        <time>2015-10-24T11:55:36Z</time>
      </trkpt>
      <trkpt lat="43.11405" lon="-0.4113">
        <ele>469.74</ele>
        <time>2015-10-24T11:55:37Z</time>
      </trkpt>
      <trkpt lat="43.11395" lon="-0.4113">
        <ele>469.26</ele>
        <time>2015-10-24T11:55:38Z</time>
      </trkpt>
      <trkpt lat="43.11359" lon="-0.41129">
        <ele>466.38</ele>
        <time>2015-10-24T11:55:42Z</time>
      </trkpt>
      <trkpt lat="43.11351" lon="-0.41133">
        <ele>465.9</ele>
        <time>2015-10-24T11:55:43Z</time>
      </trkpt>
      <trkpt lat="43.11334" lon="-0.41146">
        <ele>465.42</ele>
        <time>2015-10-24T11:55:46Z</time>
      </trkpt>
      <trkpt lat="43.11319" lon="-0.41156">
        <ele>465.9</ele>
        <time>2015-10-24T11:55:53Z</time>
      </trkpt>
      <trkpt lat="43.11316" lon="-0.41155">
        <ele>468.78</ele>
        <time>2015-10-24T11:56:20Z</time>
      </trkpt>
      <trkpt lat="43.11314" lon="-0.41154">
        <ele>468.78</ele>
        <time>2015-10-24T11:56:21Z</time>
      </trkpt>
      <trkpt lat="43.11312" lon="-0.41153">
        <ele>468.78</ele>
        <time>2015-10-24T11:56:22Z</time>
      </trkpt>
      <trkpt lat="43.11309" lon="-0.4115">
        <ele>468.78</ele>
        <time>2015-10-24T11:56:23Z</time>
      </trkpt>
      <trkpt lat="43.11307" lon="-0.41147">
        <ele>469.26</ele>
        <time>2015-10-24T11:56:24Z</time>
      </trkpt>
      <trkpt lat="43.11305" lon="-0.41144">
        <ele>468.78</ele>
        <time>2015-10-24T11:56:25Z</time>
      </trkpt>
      <trkpt lat="43.11304" lon="-0.41139">
        <ele>468.78</ele>
        <time>2015-10-24T11:56:26Z</time>
      </trkpt>
      <trkpt lat="43.11302" lon="-0.41136">
        <ele>468.78</ele>
        <time>2015-10-24T11:56:27Z</time>
      </trkpt>
      <trkpt lat="43.11299" lon="-0.41133">
        <ele>469.26</ele>
        <time>2015-10-24T11:56:28Z</time>
      </trkpt>
      <trkpt lat="43.11296" lon="-0.4113">
        <ele>469.26</ele>
        <time>2015-10-24T11:56:29Z</time>
      </trkpt>
      <trkpt lat="43.11278" lon="-0.41119">
        <ele>470.22</ele>
        <time>2015-10-24T11:56:34Z</time>
      </trkpt>
      <trkpt lat="43.11254" lon="-0.41104">
        <ele>471.66</ele>
        <time>2015-10-24T11:56:41Z</time>
      </trkpt>
      <trkpt lat="43.1125" lon="-0.41103">
        <ele>471.66</ele>
        <time>2015-10-24T11:56:42Z</time>
      </trkpt>
      <trkpt lat="43.11207" lon="-0.41089">
        <ele>476.95</ele>
        <time>2015-10-24T11:56:56Z</time>
      </trkpt>
      <trkpt lat="43.11179" lon="-0.41083">
        <ele>479.84</ele>
        <time>2015-10-24T11:57:07Z</time>
      </trkpt>
      <trkpt lat="43.11143" lon="-0.41076">
        <ele>483.2</ele>
        <time>2015-10-24T11:57:20Z</time>
      </trkpt>
      <trkpt lat="43.11098" lon="-0.41068">
        <ele>486.08</ele>
        <time>2015-10-24T11:57:36Z</time>
      </trkpt>
      <trkpt lat="43.1105" lon="-0.41073">
        <ele>488.01</ele>
        <time>2015-10-24T11:57:51Z</time>
      </trkpt>
      <trkpt lat="43.11021" lon="-0.41081">
        <ele>489.93</ele>
        <time>2015-10-24T11:58:02Z</time>
      </trkpt>
      <trkpt lat="43.10994" lon="-0.4108">
        <ele>488.49</ele>
        <time>2015-10-24T11:58:13Z</time>
      </trkpt>
      <trkpt lat="43.10993" lon="-0.4108">
        <ele>488.49</ele>
        <time>2015-10-24T11:58:22Z</time>
      </trkpt>
      <trkpt lat="43.10991" lon="-0.41082">
        <ele>486.56</ele>
        <time>2015-10-24T11:58:26Z</time>
      </trkpt>
      <trkpt lat="43.10984" lon="-0.41081">
        <ele>482.24</ele>
        <time>2015-10-24T11:58:36Z</time>
      </trkpt>
      <trkpt lat="43.1096" lon="-0.41081">
        <ele>479.35</ele>
        <time>2015-10-24T11:58:43Z</time>
      </trkpt>
      <trkpt lat="43.10956" lon="-0.41078">
        <ele>478.87</ele>
        <time>2015-10-24T11:58:44Z</time>
      </trkpt>
      <trkpt lat="43.10953" lon="-0.41076">
        <ele>477.91</ele>
        <time>2015-10-24T11:58:45Z</time>
      </trkpt>
      <trkpt lat="43.1095" lon="-0.41074">
        <ele>477.43</ele>
        <time>2015-10-24T11:58:46Z</time>
      </trkpt>
      <trkpt lat="43.10946" lon="-0.41073">
        <ele>476.95</ele>
        <time>2015-10-24T11:58:47Z</time>
      </trkpt>
      <trkpt lat="43.10943" lon="-0.41073">
        <ele>476.47</ele>
        <time>2015-10-24T11:58:48Z</time>
      </trkpt>
      <trkpt lat="43.10939" lon="-0.41072">
        <ele>475.99</ele>
        <time>2015-10-24T11:58:49Z</time>
      </trkpt>
      <trkpt lat="43.10934" lon="-0.4107">
        <ele>475.51</ele>
        <time>2015-10-24T11:58:50Z</time>
      </trkpt>
      <trkpt lat="43.10929" lon="-0.41068">
        <ele>475.03</ele>
        <time>2015-10-24T11:58:51Z</time>
      </trkpt>
      <trkpt lat="43.1092" lon="-0.41065">
        <ele>474.55</ele>
        <time>2015-10-24T11:58:53Z</time>
      </trkpt>
      <trkpt lat="43.10915" lon="-0.41066">
        <ele>474.55</ele>
        <time>2015-10-24T11:58:54Z</time>
      </trkpt>
      <trkpt lat="43.10911" lon="-0.41067">
        <ele>474.55</ele>
        <time>2015-10-24T11:58:55Z</time>
      </trkpt>
      <trkpt lat="43.10907" lon="-0.41069">
        <ele>474.07</ele>
        <time>2015-10-24T11:58:56Z</time>
      </trkpt>
      <trkpt lat="43.10903" lon="-0.41071">
        <ele>474.07</ele>
        <time>2015-10-24T11:58:57Z</time>
      </trkpt>
      <trkpt lat="43.10889" lon="-0.41081">
        <ele>473.11</ele>
        <time>2015-10-24T11:59:01Z</time>
      </trkpt>
      <trkpt lat="43.10885" lon="-0.41085">
        <ele>473.11</ele>
        <time>2015-10-24T11:59:02Z</time>
      </trkpt>
      <trkpt lat="43.10881" lon="-0.4109">
        <ele>472.63</ele>
        <time>2015-10-24T11:59:03Z</time>
      </trkpt>
      <trkpt lat="43.10877" lon="-0.41093">
        <ele>472.14</ele>
        <time>2015-10-24T11:59:04Z</time>
      </trkpt>
      <trkpt lat="43.10874" lon="-0.41095">
        <ele>471.66</ele>
        <time>2015-10-24T11:59:05Z</time>
      </trkpt>
      <trkpt lat="43.10871" lon="-0.41097">
        <ele>471.18</ele>
        <time>2015-10-24T11:59:06Z</time>
      </trkpt>
      <trkpt lat="43.10869" lon="-0.41099">
        <ele>470.22</ele>
        <time>2015-10-24T11:59:07Z</time>
      </trkpt>
      <trkpt lat="43.10865" lon="-0.41105">
        <ele>468.78</ele>
        <time>2015-10-24T11:59:09Z</time>
      </trkpt>
      <trkpt lat="43.1084" lon="-0.4112">
        <ele>460.61</ele>
        <time>2015-10-24T11:59:18Z</time>
      </trkpt>
      <trkpt lat="43.10828" lon="-0.41127">
        <ele>457.72</ele>
        <time>2015-10-24T11:59:21Z</time>
      </trkpt>
      <trkpt lat="43.10824" lon="-0.41131">
        <ele>457.24</ele>
        <time>2015-10-24T11:59:22Z</time>
      </trkpt>
      <trkpt lat="43.1082" lon="-0.41135">
        <ele>456.28</ele>
        <time>2015-10-24T11:59:23Z</time>
      </trkpt>
      <trkpt lat="43.10815" lon="-0.41138">
        <ele>455.32</ele>
        <time>2015-10-24T11:59:24Z</time>
      </trkpt>
      <trkpt lat="43.10811" lon="-0.41141">
        <ele>454.36</ele>
        <time>2015-10-24T11:59:25Z</time>
      </trkpt>
      <trkpt lat="43.10806" lon="-0.41143">
        <ele>453.4</ele>
        <time>2015-10-24T11:59:26Z</time>
      </trkpt>
      <trkpt lat="43.10802" lon="-0.41144">
        <ele>452.44</ele>
        <time>2015-10-24T11:59:27Z</time>
      </trkpt>
      <trkpt lat="43.10796" lon="-0.41143">
        <ele>451.96</ele>
        <time>2015-10-24T11:59:28Z</time>
      </trkpt>
      <trkpt lat="43.1079" lon="-0.41145">
        <ele>451.48</ele>
        <time>2015-10-24T11:59:29Z</time>
      </trkpt>
      <trkpt lat="43.10785" lon="-0.41148">
        <ele>451</ele>
        <time>2015-10-24T11:59:30Z</time>
      </trkpt>
      <trkpt lat="43.10776" lon="-0.41157">
        <ele>451.96</ele>
        <time>2015-10-24T11:59:35Z</time>
      </trkpt>
      <trkpt lat="43.10774" lon="-0.4116">
        <ele>452.44</ele>
        <time>2015-10-24T11:59:36Z</time>
      </trkpt>
      <trkpt lat="43.10772" lon="-0.41163">
        <ele>453.4</ele>
        <time>2015-10-24T11:59:37Z</time>
      </trkpt>
      <trkpt lat="43.1077" lon="-0.41166">
        <ele>453.4</ele>
        <time>2015-10-24T11:59:38Z</time>
      </trkpt>
      <trkpt lat="43.10768" lon="-0.41168">
        <ele>453.88</ele>
        <time>2015-10-24T11:59:39Z</time>
      </trkpt>
      <trkpt lat="43.10765" lon="-0.41169">
        <ele>454.84</ele>
        <time>2015-10-24T11:59:40Z</time>
      </trkpt>
      <trkpt lat="43.10762" lon="-0.41169">
        <ele>455.8</ele>
        <time>2015-10-24T11:59:41Z</time>
      </trkpt>
      <trkpt lat="43.1076" lon="-0.41169">
        <ele>456.76</ele>
        <time>2015-10-24T11:59:42Z</time>
      </trkpt>
      <trkpt lat="43.10758" lon="-0.41168">
        <ele>457.24</ele>
        <time>2015-10-24T11:59:43Z</time>
      </trkpt>
      <trkpt lat="43.10755" lon="-0.41167">
        <ele>457.72</ele>
        <time>2015-10-24T11:59:44Z</time>
      </trkpt>
      <trkpt lat="43.10752" lon="-0.41167">
        <ele>457.72</ele>
        <time>2015-10-24T11:59:45Z</time>
      </trkpt>
      <trkpt lat="43.10729" lon="-0.41159">
        <ele>458.21</ele>
        <time>2015-10-24T11:59:52Z</time>
      </trkpt>
      <trkpt lat="43.10705" lon="-0.41161">
        <ele>457.24</ele>
        <time>2015-10-24T11:59:57Z</time>
      </trkpt>
      <trkpt lat="43.10672" lon="-0.41184">
        <ele>457.24</ele>
        <time>2015-10-24T12:00:08Z</time>
      </trkpt>
      <trkpt lat="43.10661" lon="-0.41188">
        <ele>456.76</ele>
        <time>2015-10-24T12:00:11Z</time>
      </trkpt>
      <trkpt lat="43.10641" lon="-0.412">
        <ele>454.84</ele>
        <time>2015-10-24T12:00:19Z</time>
      </trkpt>
      <trkpt lat="43.10639" lon="-0.41205">
        <ele>456.76</ele>
        <time>2015-10-24T12:00:31Z</time>
      </trkpt>
      <trkpt lat="43.10623" lon="-0.41192">
        <ele>459.17</ele>
        <time>2015-10-24T12:00:42Z</time>
      </trkpt>
      <trkpt lat="43.10608" lon="-0.41175">
        <ele>461.57</ele>
        <time>2015-10-24T12:00:53Z</time>
      </trkpt>
      <trkpt lat="43.10588" lon="-0.41148">
        <ele>462.53</ele>
        <time>2015-10-24T12:01:05Z</time>
      </trkpt>
      <trkpt lat="43.10586" lon="-0.41148">
        <ele>462.53</ele>
        <time>2015-10-24T12:01:06Z</time>
      </trkpt>
      <trkpt lat="43.1058" lon="-0.41147">
        <ele>463.97</ele>
        <time>2015-10-24T12:01:10Z</time>
      </trkpt>
      <trkpt lat="43.10578" lon="-0.41145">
        <ele>464.45</ele>
        <time>2015-10-24T12:01:12Z</time>
      </trkpt>
      <trkpt lat="43.10559" lon="-0.41139">
        <ele>467.82</ele>
        <time>2015-10-24T12:01:24Z</time>
      </trkpt>
      <trkpt lat="43.10545" lon="-0.41118">
        <ele>470.22</ele>
        <time>2015-10-24T12:01:38Z</time>
      </trkpt>
      <trkpt lat="43.10539" lon="-0.41107">
        <ele>470.7</ele>
        <time>2015-10-24T12:01:44Z</time>
      </trkpt>
      <trkpt lat="43.10533" lon="-0.41102">
        <ele>471.66</ele>
        <time>2015-10-24T12:01:49Z</time>
      </trkpt>
      <trkpt lat="43.10524" lon="-0.411">
        <ele>471.66</ele>
        <time>2015-10-24T12:01:54Z</time>
      </trkpt>
      <trkpt lat="43.1051" lon="-0.4109">
        <ele>473.11</ele>
        <time>2015-10-24T12:02:03Z</time>
      </trkpt>
      <trkpt lat="43.10505" lon="-0.41088">
        <ele>474.07</ele>
        <time>2015-10-24T12:02:06Z</time>
      </trkpt>
      <trkpt lat="43.10493" lon="-0.41079">
        <ele>476.95</ele>
        <time>2015-10-24T12:02:15Z</time>
      </trkpt>
      <trkpt lat="43.10486" lon="-0.41075">
        <ele>478.39</ele>
        <time>2015-10-24T12:02:25Z</time>
      </trkpt>
      <trkpt lat="43.10482" lon="-0.41075">
        <ele>479.35</ele>
        <time>2015-10-24T12:02:29Z</time>
      </trkpt>
      <trkpt lat="43.10475" lon="-0.4108">
        <ele>479.84</ele>
        <time>2015-10-24T12:02:38Z</time>
      </trkpt>
      <trkpt lat="43.10463" lon="-0.41087">
        <ele>481.28</ele>
        <time>2015-10-24T12:02:47Z</time>
      </trkpt>
      <trkpt lat="43.10453" lon="-0.41095">
        <ele>483.2</ele>
        <time>2015-10-24T12:02:57Z</time>
      </trkpt>
      <trkpt lat="43.1045" lon="-0.41097">
        <ele>483.2</ele>
        <time>2015-10-24T12:02:59Z</time>
      </trkpt>
      <trkpt lat="43.10443" lon="-0.41103">
        <ele>484.16</ele>
        <time>2015-10-24T12:03:07Z</time>
      </trkpt>
      <trkpt lat="43.10427" lon="-0.41108">
        <ele>482.24</ele>
        <time>2015-10-24T12:03:14Z</time>
      </trkpt>
      <trkpt lat="43.10399" lon="-0.4112">
        <ele>478.39</ele>
        <time>2015-10-24T12:03:24Z</time>
      </trkpt>
      <trkpt lat="43.10377" lon="-0.4113">
        <ele>476.95</ele>
        <time>2015-10-24T12:03:34Z</time>
      </trkpt>
      <trkpt lat="43.10352" lon="-0.41143">
        <ele>474.55</ele>
        <time>2015-10-24T12:03:44Z</time>
      </trkpt>
      <trkpt lat="43.10339" lon="-0.4115">
        <ele>473.59</ele>
        <time>2015-10-24T12:03:49Z</time>
      </trkpt>
      <trkpt lat="43.10318" lon="-0.41162">
        <ele>475.51</ele>
        <time>2015-10-24T12:04:00Z</time>
      </trkpt>
      <trkpt lat="43.10307" lon="-0.4117">
        <ele>478.87</ele>
        <time>2015-10-24T12:04:11Z</time>
      </trkpt>
      <trkpt lat="43.10301" lon="-0.41168">
        <ele>479.84</ele>
        <time>2015-10-24T12:04:19Z</time>
      </trkpt>
      <trkpt lat="43.10299" lon="-0.41163">
        <ele>481.76</ele>
        <time>2015-10-24T12:04:32Z</time>
      </trkpt>
      <trkpt lat="43.10295" lon="-0.41161">
        <ele>483.68</ele>
        <time>2015-10-24T12:04:43Z</time>
      </trkpt>
      <trkpt lat="43.10287" lon="-0.41153">
        <ele>485.12</ele>
        <time>2015-10-24T12:04:53Z</time>
      </trkpt>
      <trkpt lat="43.1028" lon="-0.41151">
        <ele>487.05</ele>
        <time>2015-10-24T12:05:05Z</time>
      </trkpt>
      <trkpt lat="43.10272" lon="-0.41145">
        <ele>486.56</ele>
        <time>2015-10-24T12:05:16Z</time>
      </trkpt>
      <trkpt lat="43.10271" lon="-0.41143">
        <ele>487.05</ele>
        <time>2015-10-24T12:05:25Z</time>
      </trkpt>
      <trkpt lat="43.10266" lon="-0.41137">
        <ele>487.05</ele>
        <time>2015-10-24T12:05:37Z</time>
      </trkpt>
      <trkpt lat="43.10265" lon="-0.41136">
        <ele>488.01</ele>
        <time>2015-10-24T12:06:00Z</time>
      </trkpt>
      <trkpt lat="43.10264" lon="-0.41135">
        <ele>488.49</ele>
        <time>2015-10-24T12:06:06Z</time>
      </trkpt>
      <trkpt lat="43.10261" lon="-0.41132">
        <ele>488.49</ele>
        <time>2015-10-24T12:06:16Z</time>
      </trkpt>
      <trkpt lat="43.10263" lon="-0.41131">
        <ele>489.93</ele>
        <time>2015-10-24T12:06:25Z</time>
      </trkpt>
      <trkpt lat="43.10268" lon="-0.41119">
        <ele>495.22</ele>
        <time>2015-10-24T12:06:36Z</time>
      </trkpt>
      <trkpt lat="43.10269" lon="-0.41114">
        <ele>496.66</ele>
        <time>2015-10-24T12:06:39Z</time>
      </trkpt>
      <trkpt lat="43.10268" lon="-0.41101">
        <ele>499.54</ele>
        <time>2015-10-24T12:06:47Z</time>
      </trkpt>
      <trkpt lat="43.10262" lon="-0.41093">
        <ele>500.5</ele>
        <time>2015-10-24T12:06:54Z</time>
      </trkpt>
      <trkpt lat="43.10256" lon="-0.41086">
        <ele>501.46</ele>
        <time>2015-10-24T12:07:00Z</time>
      </trkpt>
      <trkpt lat="43.10256" lon="-0.41071">
        <ele>500.5</ele>
        <time>2015-10-24T12:07:07Z</time>
      </trkpt>
      <trkpt lat="43.10258" lon="-0.41047">
        <ele>500.5</ele>
        <time>2015-10-24T12:07:16Z</time>
      </trkpt>
      <trkpt lat="43.10249" lon="-0.41013">
        <ele>498.58</ele>
        <time>2015-10-24T12:07:25Z</time>
      </trkpt>
      <trkpt lat="43.10249" lon="-0.41008">
        <ele>499.06</ele>
        <time>2015-10-24T12:07:27Z</time>
      </trkpt>
      <trkpt lat="43.10248" lon="-0.41">
        <ele>501.46</ele>
        <time>2015-10-24T12:07:31Z</time>
      </trkpt>
      <trkpt lat="43.10245" lon="-0.40994">
        <ele>503.39</ele>
        <time>2015-10-24T12:07:35Z</time>
      </trkpt>
      <trkpt lat="43.1024" lon="-0.40974">
        <ele>505.31</ele>
        <time>2015-10-24T12:07:44Z</time>
      </trkpt>
      <trkpt lat="43.10236" lon="-0.40939">
        <ele>505.31</ele>
        <time>2015-10-24T12:07:56Z</time>
      </trkpt>
      <trkpt lat="43.10235" lon="-0.40933">
        <ele>505.31</ele>
        <time>2015-10-24T12:07:59Z</time>
      </trkpt>
      <trkpt lat="43.10233" lon="-0.4093">
        <ele>505.31</ele>
        <time>2015-10-24T12:08:01Z</time>
      </trkpt>
      <trkpt lat="43.1023" lon="-0.40918">
        <ele>505.31</ele>
        <time>2015-10-24T12:08:08Z</time>
      </trkpt>
      <trkpt lat="43.10225" lon="-0.40908">
        <ele>506.75</ele>
        <time>2015-10-24T12:08:14Z</time>
      </trkpt>
      <trkpt lat="43.10222" lon="-0.40903">
        <ele>507.71</ele>
        <time>2015-10-24T12:08:18Z</time>
      </trkpt>
      <trkpt lat="43.10217" lon="-0.40888">
        <ele>509.16</ele>
        <time>2015-10-24T12:08:28Z</time>
      </trkpt>
      <trkpt lat="43.10211" lon="-0.40882">
        <ele>509.16</ele>
        <time>2015-10-24T12:08:34Z</time>
      </trkpt>
      <trkpt lat="43.10208" lon="-0.40881">
        <ele>509.16</ele>
        <time>2015-10-24T12:08:36Z</time>
      </trkpt>
      <trkpt lat="43.10205" lon="-0.40873">
        <ele>508.67</ele>
        <time>2015-10-24T12:08:41Z</time>
      </trkpt>
      <trkpt lat="43.10197" lon="-0.4086">
        <ele>507.71</ele>
        <time>2015-10-24T12:08:50Z</time>
      </trkpt>
      <trkpt lat="43.10195" lon="-0.40855">
        <ele>508.19</ele>
        <time>2015-10-24T12:08:53Z</time>
      </trkpt>
      <trkpt lat="43.10195" lon="-0.40845">
        <ele>508.67</ele>
        <time>2015-10-24T12:08:58Z</time>
      </trkpt>
      <trkpt lat="43.10191" lon="-0.4082">
        <ele>508.19</ele>
        <time>2015-10-24T12:09:11Z</time>
      </trkpt>
      <trkpt lat="43.10189" lon="-0.40799">
        <ele>510.12</ele>
        <time>2015-10-24T12:09:20Z</time>
      </trkpt>
      <trkpt lat="43.10188" lon="-0.40794">
        <ele>510.6</ele>
        <time>2015-10-24T12:09:22Z</time>
      </trkpt>
      <trkpt lat="43.10186" lon="-0.40786">
        <ele>511.08</ele>
        <time>2015-10-24T12:09:26Z</time>
      </trkpt>
      <trkpt lat="43.10182" lon="-0.4077">
        <ele>511.08</ele>
        <time>2015-10-24T12:09:32Z</time>
      </trkpt>
      <trkpt lat="43.10172" lon="-0.40738">
        <ele>510.6</ele>
        <time>2015-10-24T12:09:42Z</time>
      </trkpt>
      <trkpt lat="43.1016" lon="-0.40698">
        <ele>512.04</ele>
        <time>2015-10-24T12:09:53Z</time>
      </trkpt>
      <trkpt lat="43.10149" lon="-0.40667">
        <ele>513.48</ele>
        <time>2015-10-24T12:10:03Z</time>
      </trkpt>
      <trkpt lat="43.10148" lon="-0.40661">
        <ele>513.96</ele>
        <time>2015-10-24T12:10:05Z</time>
      </trkpt>
      <trkpt lat="43.10144" lon="-0.40642">
        <ele>517.81</ele>
        <time>2015-10-24T12:10:13Z</time>
      </trkpt>
      <trkpt lat="43.10133" lon="-0.40627">
        <ele>521.65</ele>
        <time>2015-10-24T12:10:22Z</time>
      </trkpt>
      <trkpt lat="43.10122" lon="-0.40596">
        <ele>523.58</ele>
        <time>2015-10-24T12:10:35Z</time>
      </trkpt>
      <trkpt lat="43.10121" lon="-0.40594">
        <ele>523.58</ele>
        <time>2015-10-24T12:10:36Z</time>
      </trkpt>
      <trkpt lat="43.10119" lon="-0.40586">
        <ele>524.54</ele>
        <time>2015-10-24T12:10:44Z</time>
      </trkpt>
      <trkpt lat="43.10121" lon="-0.40583">
        <ele>525.02</ele>
        <time>2015-10-24T12:11:07Z</time>
      </trkpt>
      <trkpt lat="43.1012" lon="-0.40583">
        <ele>525.98</ele>
        <time>2015-10-24T12:11:21Z</time>
      </trkpt>
      <trkpt lat="43.10119" lon="-0.40586">
        <ele>525.5</ele>
        <time>2015-10-24T12:11:28Z</time>
      </trkpt>
      <trkpt lat="43.1012" lon="-0.40596">
        <ele>524.06</ele>
        <time>2015-10-24T12:11:33Z</time>
      </trkpt>
      <trkpt lat="43.10112" lon="-0.40626">
        <ele>522.13</ele>
        <time>2015-10-24T12:11:43Z</time>
      </trkpt>
      <trkpt lat="43.101" lon="-0.4063">
        <ele>521.17</ele>
        <time>2015-10-24T12:11:48Z</time>
      </trkpt>
      <trkpt lat="43.10093" lon="-0.40627">
        <ele>519.73</ele>
        <time>2015-10-24T12:11:50Z</time>
      </trkpt>
      <trkpt lat="43.1008" lon="-0.40618">
        <ele>518.29</ele>
        <time>2015-10-24T12:11:53Z</time>
      </trkpt>
      <trkpt lat="43.10062" lon="-0.40604">
        <ele>516.85</ele>
        <time>2015-10-24T12:11:59Z</time>
      </trkpt>
      <trkpt lat="43.10061" lon="-0.40605">
        <ele>516.37</ele>
        <time>2015-10-24T12:12:00Z</time>
      </trkpt>
      <trkpt lat="43.10059" lon="-0.40608">
        <ele>515.4</ele>
        <time>2015-10-24T12:12:02Z</time>
      </trkpt>
      <trkpt lat="43.1006" lon="-0.40607">
        <ele>514.92</ele>
        <time>2015-10-24T12:12:03Z</time>
      </trkpt>
      <trkpt lat="43.10043" lon="-0.40632">
        <ele>512.04</ele>
        <time>2015-10-24T12:12:11Z</time>
      </trkpt>
      <trkpt lat="43.10039" lon="-0.40636">
        <ele>511.56</ele>
        <time>2015-10-24T12:12:12Z</time>
      </trkpt>
      <trkpt lat="43.10029" lon="-0.40656">
        <ele>511.08</ele>
        <time>2015-10-24T12:12:17Z</time>
      </trkpt>
      <trkpt lat="43.10025" lon="-0.40679">
        <ele>510.12</ele>
        <time>2015-10-24T12:12:27Z</time>
      </trkpt>
      <trkpt lat="43.10027" lon="-0.40681">
        <ele>510.12</ele>
        <time>2015-10-24T12:12:30Z</time>
      </trkpt>
      <trkpt lat="43.10033" lon="-0.4072">
        <ele>508.67</ele>
        <time>2015-10-24T12:12:38Z</time>
      </trkpt>
      <trkpt lat="43.10032" lon="-0.40732">
        <ele>508.19</ele>
        <time>2015-10-24T12:12:41Z</time>
      </trkpt>
      <trkpt lat="43.10032" lon="-0.40743">
        <ele>508.67</ele>
        <time>2015-10-24T12:12:45Z</time>
      </trkpt>
      <trkpt lat="43.10016" lon="-0.40773">
        <ele>502.91</ele>
        <time>2015-10-24T12:12:54Z</time>
      </trkpt>
      <trkpt lat="43.1001" lon="-0.4079">
        <ele>499.54</ele>
        <time>2015-10-24T12:13:01Z</time>
      </trkpt>
      <trkpt lat="43.10008" lon="-0.40793">
        <ele>498.58</ele>
        <time>2015-10-24T12:13:03Z</time>
      </trkpt>
      <trkpt lat="43.10004" lon="-0.40813">
        <ele>494.74</ele>
        <time>2015-10-24T12:13:09Z</time>
      </trkpt>
      <trkpt lat="43.09995" lon="-0.40834">
        <ele>490.89</ele>
        <time>2015-10-24T12:13:14Z</time>
      </trkpt>
      <trkpt lat="43.09983" lon="-0.40859">
        <ele>487.53</ele>
        <time>2015-10-24T12:13:20Z</time>
      </trkpt>
      <trkpt lat="43.09995" lon="-0.40882">
        <ele>485.6</ele>
        <time>2015-10-24T12:13:29Z</time>
      </trkpt>
      <trkpt lat="43.09994" lon="-0.409">
        <ele>482.24</ele>
        <time>2015-10-24T12:13:36Z</time>
      </trkpt>
      <trkpt lat="43.09988" lon="-0.40916">
        <ele>476.95</ele>
        <time>2015-10-24T12:13:42Z</time>
      </trkpt>
      <trkpt lat="43.09985" lon="-0.40923">
        <ele>474.55</ele>
        <time>2015-10-24T12:13:45Z</time>
      </trkpt>
      <trkpt lat="43.09966" lon="-0.40934">
        <ele>463.49</ele>
        <time>2015-10-24T12:13:56Z</time>
      </trkpt>
      <trkpt lat="43.09961" lon="-0.40935">
        <ele>460.61</ele>
        <time>2015-10-24T12:13:58Z</time>
      </trkpt>
      <trkpt lat="43.09943" lon="-0.40922">
        <ele>454.84</ele>
        <time>2015-10-24T12:14:07Z</time>
      </trkpt>
      <trkpt lat="43.09942" lon="-0.40919">
        <ele>454.36</ele>
        <time>2015-10-24T12:14:08Z</time>
      </trkpt>
      <trkpt lat="43.09937" lon="-0.40907">
        <ele>453.4</ele>
        <time>2015-10-24T12:14:12Z</time>
      </trkpt>
      <trkpt lat="43.09925" lon="-0.40859">
        <ele>460.13</ele>
        <time>2015-10-24T12:14:25Z</time>
      </trkpt>
      <trkpt lat="43.09933" lon="-0.40808">
        <ele>471.66</ele>
        <time>2015-10-24T12:14:38Z</time>
      </trkpt>
      <trkpt lat="43.0994" lon="-0.40754">
        <ele>477.91</ele>
        <time>2015-10-24T12:14:53Z</time>
      </trkpt>
      <trkpt lat="43.09936" lon="-0.40725">
        <ele>479.84</ele>
        <time>2015-10-24T12:15:01Z</time>
      </trkpt>
      <trkpt lat="43.09914" lon="-0.40687">
        <ele>482.72</ele>
        <time>2015-10-24T12:15:15Z</time>
      </trkpt>
      <trkpt lat="43.09892" lon="-0.40651">
        <ele>484.64</ele>
        <time>2015-10-24T12:15:28Z</time>
      </trkpt>
      <trkpt lat="43.09883" lon="-0.40614">
        <ele>487.05</ele>
        <time>2015-10-24T12:15:40Z</time>
      </trkpt>
      <trkpt lat="43.09883" lon="-0.40566">
        <ele>488.97</ele>
        <time>2015-10-24T12:15:53Z</time>
      </trkpt>
      <trkpt lat="43.09868" lon="-0.40536">
        <ele>490.89</ele>
        <time>2015-10-24T12:16:03Z</time>
      </trkpt>
      <trkpt lat="43.09837" lon="-0.40517">
        <ele>494.26</ele>
        <time>2015-10-24T12:16:17Z</time>
      </trkpt>
      <trkpt lat="43.09829" lon="-0.40509">
        <ele>495.7</ele>
        <time>2015-10-24T12:16:21Z</time>
      </trkpt>
      <trkpt lat="43.09815" lon="-0.40475">
        <ele>497.62</ele>
        <time>2015-10-24T12:16:33Z</time>
      </trkpt>
      <trkpt lat="43.09818" lon="-0.40445">
        <ele>496.18</ele>
        <time>2015-10-24T12:16:42Z</time>
      </trkpt>
      <trkpt lat="43.0981" lon="-0.40421">
        <ele>495.7</ele>
        <time>2015-10-24T12:16:49Z</time>
      </trkpt>
      <trkpt lat="43.09808" lon="-0.40416">
        <ele>495.22</ele>
        <time>2015-10-24T12:16:50Z</time>
      </trkpt>
      <trkpt lat="43.09805" lon="-0.40411">
        <ele>495.22</ele>
        <time>2015-10-24T12:16:51Z</time>
      </trkpt>
      <trkpt lat="43.098" lon="-0.40407">
        <ele>494.74</ele>
        <time>2015-10-24T12:16:52Z</time>
      </trkpt>
      <trkpt lat="43.09766" lon="-0.40417">
        <ele>493.77</ele>
        <time>2015-10-24T12:16:58Z</time>
      </trkpt>
      <trkpt lat="43.09761" lon="-0.40423">
        <ele>493.29</ele>
        <time>2015-10-24T12:16:59Z</time>
      </trkpt>
      <trkpt lat="43.09745" lon="-0.40442">
        <ele>492.33</ele>
        <time>2015-10-24T12:17:02Z</time>
      </trkpt>
      <trkpt lat="43.09728" lon="-0.40451">
        <ele>491.85</ele>
        <time>2015-10-24T12:17:05Z</time>
      </trkpt>
      <trkpt lat="43.09691" lon="-0.40453">
        <ele>489.93</ele>
        <time>2015-10-24T12:17:12Z</time>
      </trkpt>
      <trkpt lat="43.09679" lon="-0.40437">
        <ele>488.97</ele>
        <time>2015-10-24T12:17:15Z</time>
      </trkpt>
      <trkpt lat="43.09671" lon="-0.40428">
        <ele>488.97</ele>
        <time>2015-10-24T12:17:17Z</time>
      </trkpt>
      <trkpt lat="43.09654" lon="-0.40415">
        <ele>488.01</ele>
        <time>2015-10-24T12:17:21Z</time>
      </trkpt>
      <trkpt lat="43.0963" lon="-0.40415">
        <ele>486.08</ele>
        <time>2015-10-24T12:17:27Z</time>
      </trkpt>
      <trkpt lat="43.09612" lon="-0.40409">
        <ele>486.08</ele>
        <time>2015-10-24T12:17:31Z</time>
      </trkpt>
      <trkpt lat="43.0959" lon="-0.40378">
        <ele>485.12</ele>
        <time>2015-10-24T12:17:40Z</time>
      </trkpt>
      <trkpt lat="43.09585" lon="-0.40362">
        <ele>483.68</ele>
        <time>2015-10-24T12:17:44Z</time>
      </trkpt>
      <trkpt lat="43.09576" lon="-0.40342">
        <ele>482.24</ele>
        <time>2015-10-24T12:17:50Z</time>
      </trkpt>
      <trkpt lat="43.09563" lon="-0.40316">
        <ele>480.32</ele>
        <time>2015-10-24T12:17:57Z</time>
      </trkpt>
      <trkpt lat="43.09554" lon="-0.40303">
        <ele>479.35</ele>
        <time>2015-10-24T12:18:01Z</time>
      </trkpt>
      <trkpt lat="43.09543" lon="-0.4029">
        <ele>477.91</ele>
        <time>2015-10-24T12:18:04Z</time>
      </trkpt>
      <trkpt lat="43.09526" lon="-0.40277">
        <ele>476.47</ele>
        <time>2015-10-24T12:18:09Z</time>
      </trkpt>
      <trkpt lat="43.09498" lon="-0.4026">
        <ele>477.43</ele>
        <time>2015-10-24T12:18:18Z</time>
      </trkpt>
      <trkpt lat="43.09489" lon="-0.40251">
        <ele>477.43</ele>
        <time>2015-10-24T12:18:21Z</time>
      </trkpt>
      <trkpt lat="43.09479" lon="-0.40236">
        <ele>476.95</ele>
        <time>2015-10-24T12:18:24Z</time>
      </trkpt>
      <trkpt lat="43.09471" lon="-0.40225">
        <ele>476.95</ele>
        <time>2015-10-24T12:18:26Z</time>
      </trkpt>
      <trkpt lat="43.09456" lon="-0.40208">
        <ele>476.47</ele>
        <time>2015-10-24T12:18:30Z</time>
      </trkpt>
      <trkpt lat="43.09433" lon="-0.40225">
        <ele>475.03</ele>
        <time>2015-10-24T12:18:38Z</time>
      </trkpt>
      <trkpt lat="43.09419" lon="-0.40248">
        <ele>474.55</ele>
        <time>2015-10-24T12:18:48Z</time>
      </trkpt>
      <trkpt lat="43.09418" lon="-0.4025">
        <ele>474.55</ele>
        <time>2015-10-24T12:18:49Z</time>
      </trkpt>
      <trkpt lat="43.09414" lon="-0.40256">
        <ele>475.99</ele>
        <time>2015-10-24T12:18:53Z</time>
      </trkpt>
      <trkpt lat="43.09408" lon="-0.40258">
        <ele>477.43</ele>
        <time>2015-10-24T12:18:57Z</time>
      </trkpt>
      <trkpt lat="43.09405" lon="-0.4026">
        <ele>478.87</ele>
        <time>2015-10-24T12:18:59Z</time>
      </trkpt>
      <trkpt lat="43.09395" lon="-0.40264">
        <ele>483.2</ele>
        <time>2015-10-24T12:19:05Z</time>
      </trkpt>
      <trkpt lat="43.09388" lon="-0.40264">
        <ele>484.64</ele>
        <time>2015-10-24T12:19:12Z</time>
      </trkpt>
      <trkpt lat="43.09381" lon="-0.40266">
        <ele>486.08</ele>
        <time>2015-10-24T12:19:21Z</time>
      </trkpt>
      <trkpt lat="43.09373" lon="-0.40263">
        <ele>491.37</ele>
        <time>2015-10-24T12:19:33Z</time>
      </trkpt>
      <trkpt lat="43.09367" lon="-0.40261">
        <ele>495.22</ele>
        <time>2015-10-24T12:19:42Z</time>
      </trkpt>
      <trkpt lat="43.09354" lon="-0.40259">
        <ele>498.1</ele>
        <time>2015-10-24T12:19:50Z</time>
      </trkpt>
      <trkpt lat="43.09352" lon="-0.40259">
        <ele>498.58</ele>
        <time>2015-10-24T12:19:52Z</time>
      </trkpt>
      <trkpt lat="43.09348" lon="-0.4026">
        <ele>499.54</ele>
        <time>2015-10-24T12:19:55Z</time>
      </trkpt>
      <trkpt lat="43.09338" lon="-0.40274">
        <ele>499.54</ele>
        <time>2015-10-24T12:20:09Z</time>
      </trkpt>
      <trkpt lat="43.09334" lon="-0.40279">
        <ele>498.58</ele>
        <time>2015-10-24T12:20:14Z</time>
      </trkpt>
      <trkpt lat="43.09319" lon="-0.40293">
        <ele>499.06</ele>
        <time>2015-10-24T12:20:28Z</time>
      </trkpt>
      <trkpt lat="43.09314" lon="-0.40287">
        <ele>496.66</ele>
        <time>2015-10-24T12:20:39Z</time>
      </trkpt>
      <trkpt lat="43.09305" lon="-0.40282">
        <ele>496.66</ele>
        <time>2015-10-24T12:20:45Z</time>
      </trkpt>
      <trkpt lat="43.09287" lon="-0.40256">
        <ele>493.77</ele>
        <time>2015-10-24T12:20:54Z</time>
      </trkpt>
      <trkpt lat="43.09264" lon="-0.40237">
        <ele>492.81</ele>
        <time>2015-10-24T12:21:05Z</time>
      </trkpt>
      <trkpt lat="43.09246" lon="-0.40217">
        <ele>495.7</ele>
        <time>2015-10-24T12:21:16Z</time>
      </trkpt>
      <trkpt lat="43.09242" lon="-0.40206">
        <ele>495.7</ele>
        <time>2015-10-24T12:21:20Z</time>
      </trkpt>
      <trkpt lat="43.0921" lon="-0.4018">
        <ele>494.74</ele>
        <time>2015-10-24T12:21:31Z</time>
      </trkpt>
      <trkpt lat="43.09197" lon="-0.40161">
        <ele>492.81</ele>
        <time>2015-10-24T12:21:38Z</time>
      </trkpt>
      <trkpt lat="43.09193" lon="-0.4016">
        <ele>492.33</ele>
        <time>2015-10-24T12:21:39Z</time>
      </trkpt>
      <trkpt lat="43.09188" lon="-0.4016">
        <ele>491.85</ele>
        <time>2015-10-24T12:21:40Z</time>
      </trkpt>
      <trkpt lat="43.09184" lon="-0.40159">
        <ele>491.37</ele>
        <time>2015-10-24T12:21:41Z</time>
      </trkpt>
      <trkpt lat="43.09174" lon="-0.40156">
        <ele>490.41</ele>
        <time>2015-10-24T12:21:43Z</time>
      </trkpt>
      <trkpt lat="43.09163" lon="-0.40154">
        <ele>489.93</ele>
        <time>2015-10-24T12:21:45Z</time>
      </trkpt>
      <trkpt lat="43.09136" lon="-0.40145">
        <ele>484.64</ele>
        <time>2015-10-24T12:21:52Z</time>
      </trkpt>
      <trkpt lat="43.09115" lon="-0.40149">
        <ele>480.8</ele>
        <time>2015-10-24T12:21:58Z</time>
      </trkpt>
      <trkpt lat="43.09115" lon="-0.40153">
        <ele>480.8</ele>
        <time>2015-10-24T12:21:59Z</time>
      </trkpt>
      <trkpt lat="43.09115" lon="-0.40158">
        <ele>480.32</ele>
        <time>2015-10-24T12:22:00Z</time>
      </trkpt>
      <trkpt lat="43.09116" lon="-0.40184">
        <ele>478.39</ele>
        <time>2015-10-24T12:22:05Z</time>
      </trkpt>
      <trkpt lat="43.09113" lon="-0.40237">
        <ele>476.47</ele>
        <time>2015-10-24T12:22:13Z</time>
      </trkpt>
      <trkpt lat="43.09113" lon="-0.40243">
        <ele>476.47</ele>
        <time>2015-10-24T12:22:14Z</time>
      </trkpt>
      <trkpt lat="43.09112" lon="-0.40249">
        <ele>476.95</ele>
        <time>2015-10-24T12:22:15Z</time>
      </trkpt>
      <trkpt lat="43.09112" lon="-0.40255">
        <ele>476.95</ele>
        <time>2015-10-24T12:22:16Z</time>
      </trkpt>
      <trkpt lat="43.09112" lon="-0.4026">
        <ele>476.95</ele>
        <time>2015-10-24T12:22:17Z</time>
      </trkpt>
      <trkpt lat="43.09112" lon="-0.40266">
        <ele>476.95</ele>
        <time>2015-10-24T12:22:18Z</time>
      </trkpt>
      <trkpt lat="43.09112" lon="-0.40272">
        <ele>476.47</ele>
        <time>2015-10-24T12:22:19Z</time>
      </trkpt>
      <trkpt lat="43.09112" lon="-0.40283">
        <ele>476.95</ele>
        <time>2015-10-24T12:22:21Z</time>
      </trkpt>
      <trkpt lat="43.09111" lon="-0.40288">
        <ele>476.47</ele>
        <time>2015-10-24T12:22:22Z</time>
      </trkpt>
      <trkpt lat="43.09106" lon="-0.40318">
        <ele>476.47</ele>
        <time>2015-10-24T12:22:27Z</time>
      </trkpt>
      <trkpt lat="43.09104" lon="-0.40323">
        <ele>476.47</ele>
        <time>2015-10-24T12:22:28Z</time>
      </trkpt>
      <trkpt lat="43.09088" lon="-0.40357">
        <ele>477.91</ele>
        <time>2015-10-24T12:22:37Z</time>
      </trkpt>
      <trkpt lat="43.09087" lon="-0.4036">
        <ele>477.91</ele>
        <time>2015-10-24T12:22:38Z</time>
      </trkpt>
      <trkpt lat="43.09065" lon="-0.40397">
        <ele>479.84</ele>
        <time>2015-10-24T12:22:51Z</time>
      </trkpt>
      <trkpt lat="43.0905" lon="-0.40418">
        <ele>483.2</ele>
        <time>2015-10-24T12:23:01Z</time>
      </trkpt>
      <trkpt lat="43.09048" lon="-0.40419">
        <ele>483.2</ele>
        <time>2015-10-24T12:23:02Z</time>
      </trkpt>
      <trkpt lat="43.09046" lon="-0.40421">
        <ele>483.68</ele>
        <time>2015-10-24T12:23:03Z</time>
      </trkpt>
      <trkpt lat="43.09036" lon="-0.40425">
        <ele>486.56</ele>
        <time>2015-10-24T12:23:09Z</time>
      </trkpt>
      <trkpt lat="43.09035" lon="-0.40425">
        <ele>486.56</ele>
        <time>2015-10-24T12:23:10Z</time>
      </trkpt>
      <trkpt lat="43.09034" lon="-0.40425">
        <ele>487.05</ele>
        <time>2015-10-24T12:23:11Z</time>
      </trkpt>
      <trkpt lat="43.09024" lon="-0.4043">
        <ele>488.01</ele>
        <time>2015-10-24T12:23:18Z</time>
      </trkpt>
      <trkpt lat="43.09022" lon="-0.40429">
        <ele>488.49</ele>
        <time>2015-10-24T12:23:19Z</time>
      </trkpt>
      <trkpt lat="43.09021" lon="-0.40428">
        <ele>488.97</ele>
        <time>2015-10-24T12:23:20Z</time>
      </trkpt>
      <trkpt lat="43.09005" lon="-0.40411">
        <ele>492.81</ele>
        <time>2015-10-24T12:23:34Z</time>
      </trkpt>
      <trkpt lat="43.09001" lon="-0.4041">
        <ele>493.29</ele>
        <time>2015-10-24T12:23:37Z</time>
      </trkpt>
      <trkpt lat="43.08997" lon="-0.40414">
        <ele>494.26</ele>
        <time>2015-10-24T12:23:41Z</time>
      </trkpt>
      <trkpt lat="43.08998" lon="-0.40425">
        <ele>496.18</ele>
        <time>2015-10-24T12:23:46Z</time>
      </trkpt>
      <trkpt lat="43.08995" lon="-0.40431">
        <ele>496.66</ele>
        <time>2015-10-24T12:23:50Z</time>
      </trkpt>
      <trkpt lat="43.08989" lon="-0.40439">
        <ele>497.62</ele>
        <time>2015-10-24T12:23:57Z</time>
      </trkpt>
      <trkpt lat="43.08984" lon="-0.40447">
        <ele>499.06</ele>
        <time>2015-10-24T12:24:01Z</time>
      </trkpt>
      <trkpt lat="43.08979" lon="-0.40457">
        <ele>501.46</ele>
        <time>2015-10-24T12:24:06Z</time>
      </trkpt>
      <trkpt lat="43.08978" lon="-0.40461">
        <ele>501.95</ele>
        <time>2015-10-24T12:24:08Z</time>
      </trkpt>
      <trkpt lat="43.08972" lon="-0.4048">
        <ele>502.43</ele>
        <time>2015-10-24T12:24:17Z</time>
      </trkpt>
      <trkpt lat="43.08973" lon="-0.40525">
        <ele>501.95</ele>
        <time>2015-10-24T12:24:30Z</time>
      </trkpt>
      <trkpt lat="43.08953" lon="-0.4057">
        <ele>501.95</ele>
        <time>2015-10-24T12:24:41Z</time>
      </trkpt>
      <trkpt lat="43.08927" lon="-0.40623">
        <ele>501.46</ele>
        <time>2015-10-24T12:24:53Z</time>
      </trkpt>
      <trkpt lat="43.08916" lon="-0.40655">
        <ele>501.95</ele>
        <time>2015-10-24T12:25:00Z</time>
      </trkpt>
      <trkpt lat="43.08914" lon="-0.40661">
        <ele>501.95</ele>
        <time>2015-10-24T12:25:01Z</time>
      </trkpt>
      <trkpt lat="43.08913" lon="-0.40667">
        <ele>502.43</ele>
        <time>2015-10-24T12:25:02Z</time>
      </trkpt>
      <trkpt lat="43.08912" lon="-0.40674">
        <ele>502.91</ele>
        <time>2015-10-24T12:25:03Z</time>
      </trkpt>
      <trkpt lat="43.08911" lon="-0.4068">
        <ele>502.91</ele>
        <time>2015-10-24T12:25:04Z</time>
      </trkpt>
      <trkpt lat="43.08909" lon="-0.40694">
        <ele>502.91</ele>
        <time>2015-10-24T12:25:06Z</time>
      </trkpt>
      <trkpt lat="43.08906" lon="-0.40699">
        <ele>502.43</ele>
        <time>2015-10-24T12:25:07Z</time>
      </trkpt>
      <trkpt lat="43.08904" lon="-0.40703">
        <ele>502.43</ele>
        <time>2015-10-24T12:25:08Z</time>
      </trkpt>
      <trkpt lat="43.08901" lon="-0.40706">
        <ele>501.95</ele>
        <time>2015-10-24T12:25:09Z</time>
      </trkpt>
      <trkpt lat="43.08898" lon="-0.40707">
        <ele>501.46</ele>
        <time>2015-10-24T12:25:10Z</time>
      </trkpt>
      <trkpt lat="43.08895" lon="-0.40707">
        <ele>501.46</ele>
        <time>2015-10-24T12:25:11Z</time>
      </trkpt>
      <trkpt lat="43.08891" lon="-0.40706">
        <ele>500.98</ele>
        <time>2015-10-24T12:25:12Z</time>
      </trkpt>
      <trkpt lat="43.08889" lon="-0.40702">
        <ele>500.98</ele>
        <time>2015-10-24T12:25:13Z</time>
      </trkpt>
      <trkpt lat="43.08887" lon="-0.40698">
        <ele>500.5</ele>
        <time>2015-10-24T12:25:14Z</time>
      </trkpt>
      <trkpt lat="43.08886" lon="-0.40693">
        <ele>500.5</ele>
        <time>2015-10-24T12:25:15Z</time>
      </trkpt>
      <trkpt lat="43.08881" lon="-0.40677">
        <ele>500.02</ele>
        <time>2015-10-24T12:25:18Z</time>
      </trkpt>
      <trkpt lat="43.08878" lon="-0.40665">
        <ele>499.54</ele>
        <time>2015-10-24T12:25:20Z</time>
      </trkpt>
      <trkpt lat="43.08877" lon="-0.40659">
        <ele>499.54</ele>
        <time>2015-10-24T12:25:21Z</time>
      </trkpt>
      <trkpt lat="43.08874" lon="-0.40646">
        <ele>498.58</ele>
        <time>2015-10-24T12:25:23Z</time>
      </trkpt>
      <trkpt lat="43.08857" lon="-0.40564">
        <ele>496.18</ele>
        <time>2015-10-24T12:25:33Z</time>
      </trkpt>
      <trkpt lat="43.08852" lon="-0.40536">
        <ele>495.22</ele>
        <time>2015-10-24T12:25:36Z</time>
      </trkpt>
      <trkpt lat="43.08833" lon="-0.4039">
        <ele>488.49</ele>
        <time>2015-10-24T12:25:48Z</time>
      </trkpt>
      <trkpt lat="43.08823" lon="-0.40289">
        <ele>487.05</ele>
        <time>2015-10-24T12:25:57Z</time>
      </trkpt>
      <trkpt lat="43.08823" lon="-0.40279">
        <ele>487.05</ele>
        <time>2015-10-24T12:25:58Z</time>
      </trkpt>
      <trkpt lat="43.08836" lon="-0.40152">
        <ele>482.24</ele>
        <time>2015-10-24T12:26:09Z</time>
      </trkpt>
      <trkpt lat="43.08842" lon="-0.39976">
        <ele>474.07</ele>
        <time>2015-10-24T12:26:21Z</time>
      </trkpt>
      <trkpt lat="43.08834" lon="-0.39902">
        <ele>469.74</ele>
        <time>2015-10-24T12:26:26Z</time>
      </trkpt>
      <trkpt lat="43.08817" lon="-0.39846">
        <ele>465.9</ele>
        <time>2015-10-24T12:26:30Z</time>
      </trkpt>
      <trkpt lat="43.08815" lon="-0.39833">
        <ele>465.42</ele>
        <time>2015-10-24T12:26:31Z</time>
      </trkpt>
      <trkpt lat="43.08812" lon="-0.39789">
        <ele>463.01</ele>
        <time>2015-10-24T12:26:35Z</time>
      </trkpt>
      <trkpt lat="43.08813" lon="-0.3978">
        <ele>462.53</ele>
        <time>2015-10-24T12:26:36Z</time>
      </trkpt>
      <trkpt lat="43.08818" lon="-0.39733">
        <ele>461.57</ele>
        <time>2015-10-24T12:26:42Z</time>
      </trkpt>
      <trkpt lat="43.0882" lon="-0.39705">
        <ele>461.57</ele>
        <time>2015-10-24T12:26:46Z</time>
      </trkpt>
      <trkpt lat="43.08821" lon="-0.39698">
        <ele>461.57</ele>
        <time>2015-10-24T12:26:47Z</time>
      </trkpt>
      <trkpt lat="43.08821" lon="-0.39693">
        <ele>461.57</ele>
        <time>2015-10-24T12:26:48Z</time>
      </trkpt>
      <trkpt lat="43.08821" lon="-0.39686">
        <ele>461.57</ele>
        <time>2015-10-24T12:26:49Z</time>
      </trkpt>
      <trkpt lat="43.08821" lon="-0.3968">
        <ele>462.05</ele>
        <time>2015-10-24T12:26:50Z</time>
      </trkpt>
      <trkpt lat="43.08821" lon="-0.39674">
        <ele>462.05</ele>
        <time>2015-10-24T12:26:51Z</time>
      </trkpt>
      <trkpt lat="43.08819" lon="-0.39622">
        <ele>466.38</ele>
        <time>2015-10-24T12:27:02Z</time>
      </trkpt>
      <trkpt lat="43.0882" lon="-0.39601">
        <ele>467.34</ele>
        <time>2015-10-24T12:27:07Z</time>
      </trkpt>
      <trkpt lat="43.0882" lon="-0.39598">
        <ele>467.34</ele>
        <time>2015-10-24T12:27:08Z</time>
      </trkpt>
      <trkpt lat="43.0882" lon="-0.39594">
        <ele>467.82</ele>
        <time>2015-10-24T12:27:09Z</time>
      </trkpt>
      <trkpt lat="43.0882" lon="-0.39591">
        <ele>467.82</ele>
        <time>2015-10-24T12:27:10Z</time>
      </trkpt>
      <trkpt lat="43.08819" lon="-0.39588">
        <ele>467.82</ele>
        <time>2015-10-24T12:27:11Z</time>
      </trkpt>
      <trkpt lat="43.08816" lon="-0.39569">
        <ele>469.74</ele>
        <time>2015-10-24T12:27:16Z</time>
      </trkpt>
      <trkpt lat="43.08815" lon="-0.39565">
        <ele>469.74</ele>
        <time>2015-10-24T12:27:17Z</time>
      </trkpt>
      <trkpt lat="43.08818" lon="-0.39516">
        <ele>472.63</ele>
        <time>2015-10-24T12:27:30Z</time>
      </trkpt>
      <trkpt lat="43.08822" lon="-0.3946">
        <ele>476.95</ele>
        <time>2015-10-24T12:27:45Z</time>
      </trkpt>
      <trkpt lat="43.0882" lon="-0.39422">
        <ele>481.28</ele>
        <time>2015-10-24T12:27:56Z</time>
      </trkpt>
      <trkpt lat="43.0882" lon="-0.3942">
        <ele>481.76</ele>
        <time>2015-10-24T12:27:57Z</time>
      </trkpt>
      <trkpt lat="43.0882" lon="-0.39408">
        <ele>483.68</ele>
        <time>2015-10-24T12:28:01Z</time>
      </trkpt>
      <trkpt lat="43.08819" lon="-0.39373">
        <ele>487.05</ele>
        <time>2015-10-24T12:28:12Z</time>
      </trkpt>
      <trkpt lat="43.08815" lon="-0.39341">
        <ele>488.97</ele>
        <time>2015-10-24T12:28:23Z</time>
      </trkpt>
      <trkpt lat="43.08817" lon="-0.39306">
        <ele>490.41</ele>
        <time>2015-10-24T12:28:35Z</time>
      </trkpt>
      <trkpt lat="43.08824" lon="-0.39277">
        <ele>490.89</ele>
        <time>2015-10-24T12:28:45Z</time>
      </trkpt>
      <trkpt lat="43.08824" lon="-0.39275">
        <ele>490.89</ele>
        <time>2015-10-24T12:28:46Z</time>
      </trkpt>
      <trkpt lat="43.08825" lon="-0.39255">
        <ele>491.85</ele>
        <time>2015-10-24T12:28:54Z</time>
      </trkpt>
      <trkpt lat="43.08825" lon="-0.39252">
        <ele>491.85</ele>
        <time>2015-10-24T12:28:55Z</time>
      </trkpt>
      <trkpt lat="43.08825" lon="-0.39249">
        <ele>492.33</ele>
        <time>2015-10-24T12:28:56Z</time>
      </trkpt>
      <trkpt lat="43.08825" lon="-0.39247">
        <ele>492.33</ele>
        <time>2015-10-24T12:28:57Z</time>
      </trkpt>
      <trkpt lat="43.08826" lon="-0.39244">
        <ele>492.81</ele>
        <time>2015-10-24T12:28:58Z</time>
      </trkpt>
      <trkpt lat="43.08825" lon="-0.3921">
        <ele>494.74</ele>
        <time>2015-10-24T12:29:11Z</time>
      </trkpt>
      <trkpt lat="43.08823" lon="-0.39206">
        <ele>494.26</ele>
        <time>2015-10-24T12:29:13Z</time>
      </trkpt>
      <trkpt lat="43.08823" lon="-0.39202">
        <ele>494.26</ele>
        <time>2015-10-24T12:29:14Z</time>
      </trkpt>
      <trkpt lat="43.08822" lon="-0.39199">
        <ele>494.26</ele>
        <time>2015-10-24T12:29:15Z</time>
      </trkpt>
      <trkpt lat="43.08822" lon="-0.39196">
        <ele>494.26</ele>
        <time>2015-10-24T12:29:16Z</time>
      </trkpt>
      <trkpt lat="43.08822" lon="-0.39194">
        <ele>494.26</ele>
        <time>2015-10-24T12:29:17Z</time>
      </trkpt>
      <trkpt lat="43.08821" lon="-0.39152">
        <ele>498.58</ele>
        <time>2015-10-24T12:29:30Z</time>
      </trkpt>
      <trkpt lat="43.08823" lon="-0.39131">
        <ele>500.02</ele>
        <time>2015-10-24T12:29:37Z</time>
      </trkpt>
      <trkpt lat="43.08828" lon="-0.39095">
        <ele>503.87</ele>
        <time>2015-10-24T12:29:49Z</time>
      </trkpt>
      <trkpt lat="43.08832" lon="-0.39057">
        <ele>505.31</ele>
        <time>2015-10-24T12:30:02Z</time>
      </trkpt>
      <trkpt lat="43.08834" lon="-0.39025">
        <ele>507.23</ele>
        <time>2015-10-24T12:30:13Z</time>
      </trkpt>
      <trkpt lat="43.08834" lon="-0.38989">
        <ele>508.67</ele>
        <time>2015-10-24T12:30:26Z</time>
      </trkpt>
      <trkpt lat="43.08833" lon="-0.38987">
        <ele>508.67</ele>
        <time>2015-10-24T12:30:27Z</time>
      </trkpt>
      <trkpt lat="43.08834" lon="-0.3896">
        <ele>512.04</ele>
        <time>2015-10-24T12:30:37Z</time>
      </trkpt>
      <trkpt lat="43.08839" lon="-0.3894">
        <ele>514.44</ele>
        <time>2015-10-24T12:30:45Z</time>
      </trkpt>
      <trkpt lat="43.08838" lon="-0.38938">
        <ele>514.44</ele>
        <time>2015-10-24T12:30:46Z</time>
      </trkpt>
      <trkpt lat="43.08838" lon="-0.38935">
        <ele>514.92</ele>
        <time>2015-10-24T12:30:47Z</time>
      </trkpt>
      <trkpt lat="43.08837" lon="-0.38933">
        <ele>514.92</ele>
        <time>2015-10-24T12:30:48Z</time>
      </trkpt>
      <trkpt lat="43.08838" lon="-0.3893">
        <ele>514.92</ele>
        <time>2015-10-24T12:30:49Z</time>
      </trkpt>
      <trkpt lat="43.08838" lon="-0.38921">
        <ele>515.88</ele>
        <time>2015-10-24T12:30:53Z</time>
      </trkpt>
      <trkpt lat="43.08838" lon="-0.38919">
        <ele>516.37</ele>
        <time>2015-10-24T12:30:54Z</time>
      </trkpt>
      <trkpt lat="43.08838" lon="-0.38916">
        <ele>516.85</ele>
        <time>2015-10-24T12:30:55Z</time>
      </trkpt>
      <trkpt lat="43.08838" lon="-0.38914">
        <ele>517.33</ele>
        <time>2015-10-24T12:30:56Z</time>
      </trkpt>
      <trkpt lat="43.08838" lon="-0.38911">
        <ele>517.81</ele>
        <time>2015-10-24T12:30:57Z</time>
      </trkpt>
      <trkpt lat="43.08842" lon="-0.3888">
        <ele>519.73</ele>
        <time>2015-10-24T12:31:09Z</time>
      </trkpt>
      <trkpt lat="43.08842" lon="-0.38878">
        <ele>520.21</ele>
        <time>2015-10-24T12:31:10Z</time>
      </trkpt>
      <trkpt lat="43.08842" lon="-0.38849">
        <ele>522.13</ele>
        <time>2015-10-24T12:31:20Z</time>
      </trkpt>
      <trkpt lat="43.08841" lon="-0.38816">
        <ele>525.02</ele>
        <time>2015-10-24T12:31:30Z</time>
      </trkpt>
      <trkpt lat="43.08838" lon="-0.38778">
        <ele>529.34</ele>
        <time>2015-10-24T12:31:41Z</time>
      </trkpt>
      <trkpt lat="43.08838" lon="-0.38741">
        <ele>535.11</ele>
        <time>2015-10-24T12:31:51Z</time>
      </trkpt>
      <trkpt lat="43.08836" lon="-0.38704">
        <ele>539.44</ele>
        <time>2015-10-24T12:32:01Z</time>
      </trkpt>
      <trkpt lat="43.08836" lon="-0.38665">
        <ele>540.4</ele>
        <time>2015-10-24T12:32:11Z</time>
      </trkpt>
      <trkpt lat="43.08835" lon="-0.38656">
        <ele>541.36</ele>
        <time>2015-10-24T12:32:14Z</time>
      </trkpt>
      <trkpt lat="43.08835" lon="-0.38652">
        <ele>541.36</ele>
        <time>2015-10-24T12:32:15Z</time>
      </trkpt>
      <trkpt lat="43.08834" lon="-0.38612">
        <ele>541.84</ele>
        <time>2015-10-24T12:32:26Z</time>
      </trkpt>
      <trkpt lat="43.08833" lon="-0.38608">
        <ele>541.84</ele>
        <time>2015-10-24T12:32:27Z</time>
      </trkpt>
      <trkpt lat="43.08833" lon="-0.38605">
        <ele>541.84</ele>
        <time>2015-10-24T12:32:28Z</time>
      </trkpt>
      <trkpt lat="43.08833" lon="-0.38602">
        <ele>541.84</ele>
        <time>2015-10-24T12:32:29Z</time>
      </trkpt>
      <trkpt lat="43.08833" lon="-0.38599">
        <ele>541.36</ele>
        <time>2015-10-24T12:32:30Z</time>
      </trkpt>
      <trkpt lat="43.08833" lon="-0.38596">
        <ele>541.36</ele>
        <time>2015-10-24T12:32:31Z</time>
      </trkpt>
      <trkpt lat="43.08833" lon="-0.38593">
        <ele>540.88</ele>
        <time>2015-10-24T12:32:32Z</time>
      </trkpt>
      <trkpt lat="43.08834" lon="-0.3859">
        <ele>540.88</ele>
        <time>2015-10-24T12:32:33Z</time>
      </trkpt>
      <trkpt lat="43.08835" lon="-0.38587">
        <ele>540.88</ele>
        <time>2015-10-24T12:32:34Z</time>
      </trkpt>
      <trkpt lat="43.08834" lon="-0.38583">
        <ele>540.4</ele>
        <time>2015-10-24T12:32:35Z</time>
      </trkpt>
      <trkpt lat="43.08834" lon="-0.3858">
        <ele>539.92</ele>
        <time>2015-10-24T12:32:36Z</time>
      </trkpt>
      <trkpt lat="43.08833" lon="-0.3856">
        <ele>538.48</ele>
        <time>2015-10-24T12:32:42Z</time>
      </trkpt>
      <trkpt lat="43.08833" lon="-0.38557">
        <ele>538.48</ele>
        <time>2015-10-24T12:32:43Z</time>
      </trkpt>
      <trkpt lat="43.0883" lon="-0.38524">
        <ele>539.44</ele>
        <time>2015-10-24T12:32:56Z</time>
      </trkpt>
      <trkpt lat="43.08826" lon="-0.3849">
        <ele>537.03</ele>
        <time>2015-10-24T12:33:10Z</time>
      </trkpt>
      <trkpt lat="43.0882" lon="-0.38463">
        <ele>541.36</ele>
        <time>2015-10-24T12:33:22Z</time>
      </trkpt>
      <trkpt lat="43.08817" lon="-0.38457">
        <ele>542.32</ele>
        <time>2015-10-24T12:33:25Z</time>
      </trkpt>
      <trkpt lat="43.08806" lon="-0.38427">
        <ele>544.72</ele>
        <time>2015-10-24T12:33:38Z</time>
      </trkpt>
      <trkpt lat="43.08804" lon="-0.38406">
        <ele>547.13</ele>
        <time>2015-10-24T12:33:46Z</time>
      </trkpt>
      <trkpt lat="43.08804" lon="-0.38404">
        <ele>547.13</ele>
        <time>2015-10-24T12:33:47Z</time>
      </trkpt>
      <trkpt lat="43.08804" lon="-0.38401">
        <ele>547.61</ele>
        <time>2015-10-24T12:33:48Z</time>
      </trkpt>
      <trkpt lat="43.08804" lon="-0.38398">
        <ele>548.09</ele>
        <time>2015-10-24T12:33:49Z</time>
      </trkpt>
      <trkpt lat="43.08804" lon="-0.38396">
        <ele>548.09</ele>
        <time>2015-10-24T12:33:50Z</time>
      </trkpt>
      <trkpt lat="43.08804" lon="-0.38393">
        <ele>548.09</ele>
        <time>2015-10-24T12:33:51Z</time>
      </trkpt>
      <trkpt lat="43.08804" lon="-0.3838">
        <ele>548.09</ele>
        <time>2015-10-24T12:33:56Z</time>
      </trkpt>
      <trkpt lat="43.08804" lon="-0.38374">
        <ele>549.05</ele>
        <time>2015-10-24T12:33:58Z</time>
      </trkpt>
      <trkpt lat="43.08804" lon="-0.38372">
        <ele>549.05</ele>
        <time>2015-10-24T12:33:59Z</time>
      </trkpt>
      <trkpt lat="43.08804" lon="-0.38369">
        <ele>549.53</ele>
        <time>2015-10-24T12:34:00Z</time>
      </trkpt>
      <trkpt lat="43.08805" lon="-0.38367">
        <ele>550.01</ele>
        <time>2015-10-24T12:34:01Z</time>
      </trkpt>
      <trkpt lat="43.08805" lon="-0.38365">
        <ele>550.01</ele>
        <time>2015-10-24T12:34:02Z</time>
      </trkpt>
      <trkpt lat="43.08806" lon="-0.38337">
        <ele>552.9</ele>
        <time>2015-10-24T12:34:13Z</time>
      </trkpt>
      <trkpt lat="43.08806" lon="-0.38334">
        <ele>552.9</ele>
        <time>2015-10-24T12:34:14Z</time>
      </trkpt>
      <trkpt lat="43.08804" lon="-0.3831">
        <ele>555.78</ele>
        <time>2015-10-24T12:34:23Z</time>
      </trkpt>
      <trkpt lat="43.08804" lon="-0.38307">
        <ele>555.78</ele>
        <time>2015-10-24T12:34:24Z</time>
      </trkpt>
      <trkpt lat="43.08803" lon="-0.38294">
        <ele>557.22</ele>
        <time>2015-10-24T12:34:29Z</time>
      </trkpt>
      <trkpt lat="43.08799" lon="-0.38264">
        <ele>558.66</ele>
        <time>2015-10-24T12:34:41Z</time>
      </trkpt>
      <trkpt lat="43.088" lon="-0.38239">
        <ele>562.99</ele>
        <time>2015-10-24T12:34:51Z</time>
      </trkpt>
      <trkpt lat="43.08799" lon="-0.38236">
        <ele>562.99</ele>
        <time>2015-10-24T12:34:52Z</time>
      </trkpt>
      <trkpt lat="43.08799" lon="-0.38234">
        <ele>563.47</ele>
        <time>2015-10-24T12:34:53Z</time>
      </trkpt>
      <trkpt lat="43.088" lon="-0.38231">
        <ele>563.47</ele>
        <time>2015-10-24T12:34:54Z</time>
      </trkpt>
      <trkpt lat="43.088" lon="-0.38229">
        <ele>563.95</ele>
        <time>2015-10-24T12:34:55Z</time>
      </trkpt>
      <trkpt lat="43.08799" lon="-0.38227">
        <ele>563.47</ele>
        <time>2015-10-24T12:34:56Z</time>
      </trkpt>
      <trkpt lat="43.08799" lon="-0.38226">
        <ele>563.47</ele>
        <time>2015-10-24T12:34:57Z</time>
      </trkpt>
      <trkpt lat="43.088" lon="-0.38223">
        <ele>563.95</ele>
        <time>2015-10-24T12:34:58Z</time>
      </trkpt>
      <trkpt lat="43.088" lon="-0.38221">
        <ele>563.95</ele>
        <time>2015-10-24T12:34:59Z</time>
      </trkpt>
      <trkpt lat="43.088" lon="-0.38218">
        <ele>564.43</ele>
        <time>2015-10-24T12:35:00Z</time>
      </trkpt>
      <trkpt lat="43.088" lon="-0.38215">
        <ele>564.43</ele>
        <time>2015-10-24T12:35:01Z</time>
      </trkpt>
      <trkpt lat="43.088" lon="-0.38213">
        <ele>564.43</ele>
        <time>2015-10-24T12:35:02Z</time>
      </trkpt>
      <trkpt lat="43.088" lon="-0.38211">
        <ele>564.43</ele>
        <time>2015-10-24T12:35:03Z</time>
      </trkpt>
      <trkpt lat="43.08799" lon="-0.38209">
        <ele>564.91</ele>
        <time>2015-10-24T12:35:04Z</time>
      </trkpt>
      <trkpt lat="43.08799" lon="-0.38206">
        <ele>564.91</ele>
        <time>2015-10-24T12:35:05Z</time>
      </trkpt>
      <trkpt lat="43.08799" lon="-0.38203">
        <ele>565.39</ele>
        <time>2015-10-24T12:35:06Z</time>
      </trkpt>
      <trkpt lat="43.08799" lon="-0.382">
        <ele>565.39</ele>
        <time>2015-10-24T12:35:07Z</time>
      </trkpt>
      <trkpt lat="43.08798" lon="-0.38198">
        <ele>565.87</ele>
        <time>2015-10-24T12:35:08Z</time>
      </trkpt>
      <trkpt lat="43.08798" lon="-0.38195">
        <ele>565.87</ele>
        <time>2015-10-24T12:35:09Z</time>
      </trkpt>
      <trkpt lat="43.08799" lon="-0.38192">
        <ele>565.87</ele>
        <time>2015-10-24T12:35:10Z</time>
      </trkpt>
      <trkpt lat="43.08799" lon="-0.3819">
        <ele>565.87</ele>
        <time>2015-10-24T12:35:11Z</time>
      </trkpt>
      <trkpt lat="43.08799" lon="-0.38187">
        <ele>566.35</ele>
        <time>2015-10-24T12:35:12Z</time>
      </trkpt>
      <trkpt lat="43.08799" lon="-0.38184">
        <ele>566.35</ele>
        <time>2015-10-24T12:35:13Z</time>
      </trkpt>
      <trkpt lat="43.08799" lon="-0.38181">
        <ele>566.83</ele>
        <time>2015-10-24T12:35:14Z</time>
      </trkpt>
      <trkpt lat="43.08799" lon="-0.38178">
        <ele>567.32</ele>
        <time>2015-10-24T12:35:15Z</time>
      </trkpt>
      <trkpt lat="43.08799" lon="-0.38176">
        <ele>567.8</ele>
        <time>2015-10-24T12:35:16Z</time>
      </trkpt>
      <trkpt lat="43.08799" lon="-0.38173">
        <ele>567.8</ele>
        <time>2015-10-24T12:35:17Z</time>
      </trkpt>
      <trkpt lat="43.08799" lon="-0.3817">
        <ele>568.28</ele>
        <time>2015-10-24T12:35:18Z</time>
      </trkpt>
      <trkpt lat="43.088" lon="-0.38167">
        <ele>568.28</ele>
        <time>2015-10-24T12:35:19Z</time>
      </trkpt>
      <trkpt lat="43.08799" lon="-0.38165">
        <ele>568.76</ele>
        <time>2015-10-24T12:35:20Z</time>
      </trkpt>
      <trkpt lat="43.08798" lon="-0.38162">
        <ele>568.76</ele>
        <time>2015-10-24T12:35:21Z</time>
      </trkpt>
      <trkpt lat="43.08798" lon="-0.38159">
        <ele>568.76</ele>
        <time>2015-10-24T12:35:22Z</time>
      </trkpt>
      <trkpt lat="43.08798" lon="-0.38157">
        <ele>568.76</ele>
        <time>2015-10-24T12:35:23Z</time>
      </trkpt>
      <trkpt lat="43.08797" lon="-0.38154">
        <ele>569.24</ele>
        <time>2015-10-24T12:35:24Z</time>
      </trkpt>
      <trkpt lat="43.08797" lon="-0.38134">
        <ele>571.16</ele>
        <time>2015-10-24T12:35:32Z</time>
      </trkpt>
      <trkpt lat="43.08797" lon="-0.38132">
        <ele>571.16</ele>
        <time>2015-10-24T12:35:33Z</time>
      </trkpt>
      <trkpt lat="43.08797" lon="-0.3813">
        <ele>571.64</ele>
        <time>2015-10-24T12:35:34Z</time>
      </trkpt>
      <trkpt lat="43.08796" lon="-0.38102">
        <ele>573.56</ele>
        <time>2015-10-24T12:35:45Z</time>
      </trkpt>
      <trkpt lat="43.08795" lon="-0.381">
        <ele>573.56</ele>
        <time>2015-10-24T12:35:46Z</time>
      </trkpt>
      <trkpt lat="43.08795" lon="-0.38097">
        <ele>573.56</ele>
        <time>2015-10-24T12:35:47Z</time>
      </trkpt>
      <trkpt lat="43.08794" lon="-0.38095">
        <ele>573.56</ele>
        <time>2015-10-24T12:35:48Z</time>
      </trkpt>
      <trkpt lat="43.08794" lon="-0.38092">
        <ele>573.56</ele>
        <time>2015-10-24T12:35:49Z</time>
      </trkpt>
      <trkpt lat="43.08794" lon="-0.3809">
        <ele>573.56</ele>
        <time>2015-10-24T12:35:50Z</time>
      </trkpt>
      <trkpt lat="43.08795" lon="-0.38088">
        <ele>573.08</ele>
        <time>2015-10-24T12:35:51Z</time>
      </trkpt>
      <trkpt lat="43.08795" lon="-0.38086">
        <ele>573.08</ele>
        <time>2015-10-24T12:35:52Z</time>
      </trkpt>
      <trkpt lat="43.08795" lon="-0.38084">
        <ele>573.08</ele>
        <time>2015-10-24T12:35:53Z</time>
      </trkpt>
      <trkpt lat="43.08795" lon="-0.38081">
        <ele>573.08</ele>
        <time>2015-10-24T12:35:54Z</time>
      </trkpt>
      <trkpt lat="43.08795" lon="-0.38079">
        <ele>573.08</ele>
        <time>2015-10-24T12:35:55Z</time>
      </trkpt>
      <trkpt lat="43.08795" lon="-0.38076">
        <ele>573.08</ele>
        <time>2015-10-24T12:35:56Z</time>
      </trkpt>
      <trkpt lat="43.08796" lon="-0.38043">
        <ele>574.53</ele>
        <time>2015-10-24T12:36:08Z</time>
      </trkpt>
      <trkpt lat="43.08796" lon="-0.38015">
        <ele>575.49</ele>
        <time>2015-10-24T12:36:19Z</time>
      </trkpt>
      <trkpt lat="43.08796" lon="-0.38012">
        <ele>575.49</ele>
        <time>2015-10-24T12:36:20Z</time>
      </trkpt>
      <trkpt lat="43.08796" lon="-0.3801">
        <ele>575.49</ele>
        <time>2015-10-24T12:36:21Z</time>
      </trkpt>
      <trkpt lat="43.08797" lon="-0.38007">
        <ele>575.49</ele>
        <time>2015-10-24T12:36:22Z</time>
      </trkpt>
      <trkpt lat="43.08796" lon="-0.38004">
        <ele>575.49</ele>
        <time>2015-10-24T12:36:23Z</time>
      </trkpt>
      <trkpt lat="43.08796" lon="-0.38002">
        <ele>575.49</ele>
        <time>2015-10-24T12:36:24Z</time>
      </trkpt>
      <trkpt lat="43.08795" lon="-0.38">
        <ele>575.01</ele>
        <time>2015-10-24T12:36:25Z</time>
      </trkpt>
      <trkpt lat="43.08795" lon="-0.37997">
        <ele>574.53</ele>
        <time>2015-10-24T12:36:26Z</time>
      </trkpt>
      <trkpt lat="43.08795" lon="-0.37995">
        <ele>574.53</ele>
        <time>2015-10-24T12:36:27Z</time>
      </trkpt>
      <trkpt lat="43.08795" lon="-0.37992">
        <ele>575.01</ele>
        <time>2015-10-24T12:36:28Z</time>
      </trkpt>
      <trkpt lat="43.08791" lon="-0.37964">
        <ele>576.45</ele>
        <time>2015-10-24T12:36:39Z</time>
      </trkpt>
      <trkpt lat="43.08791" lon="-0.37961">
        <ele>577.41</ele>
        <time>2015-10-24T12:36:40Z</time>
      </trkpt>
      <trkpt lat="43.08791" lon="-0.37958">
        <ele>577.89</ele>
        <time>2015-10-24T12:36:41Z</time>
      </trkpt>
      <trkpt lat="43.08791" lon="-0.37956">
        <ele>578.85</ele>
        <time>2015-10-24T12:36:42Z</time>
      </trkpt>
      <trkpt lat="43.0879" lon="-0.3795">
        <ele>580.77</ele>
        <time>2015-10-24T12:36:45Z</time>
      </trkpt>
      <trkpt lat="43.0879" lon="-0.37947">
        <ele>581.73</ele>
        <time>2015-10-24T12:36:46Z</time>
      </trkpt>
      <trkpt lat="43.0879" lon="-0.37945">
        <ele>582.22</ele>
        <time>2015-10-24T12:36:47Z</time>
      </trkpt>
      <trkpt lat="43.08791" lon="-0.37943">
        <ele>582.7</ele>
        <time>2015-10-24T12:36:48Z</time>
      </trkpt>
      <trkpt lat="43.08791" lon="-0.37941">
        <ele>583.18</ele>
        <time>2015-10-24T12:36:49Z</time>
      </trkpt>
      <trkpt lat="43.08791" lon="-0.37938">
        <ele>583.66</ele>
        <time>2015-10-24T12:36:50Z</time>
      </trkpt>
      <trkpt lat="43.08791" lon="-0.37935">
        <ele>583.66</ele>
        <time>2015-10-24T12:36:51Z</time>
      </trkpt>
      <trkpt lat="43.08791" lon="-0.37932">
        <ele>583.66</ele>
        <time>2015-10-24T12:36:52Z</time>
      </trkpt>
      <trkpt lat="43.08791" lon="-0.37929">
        <ele>584.14</ele>
        <time>2015-10-24T12:36:53Z</time>
      </trkpt>
      <trkpt lat="43.08793" lon="-0.37895">
        <ele>587.5</ele>
        <time>2015-10-24T12:37:05Z</time>
      </trkpt>
      <trkpt lat="43.08787" lon="-0.37865">
        <ele>590.39</ele>
        <time>2015-10-24T12:37:17Z</time>
      </trkpt>
      <trkpt lat="43.08774" lon="-0.37834">
        <ele>592.79</ele>
        <time>2015-10-24T12:37:30Z</time>
      </trkpt>
      <trkpt lat="43.08758" lon="-0.37804">
        <ele>597.12</ele>
        <time>2015-10-24T12:37:44Z</time>
      </trkpt>
      <trkpt lat="43.08755" lon="-0.37797">
        <ele>599.04</ele>
        <time>2015-10-24T12:37:47Z</time>
      </trkpt>
      <trkpt lat="43.08755" lon="-0.37794">
        <ele>599.52</ele>
        <time>2015-10-24T12:37:48Z</time>
      </trkpt>
      <trkpt lat="43.08755" lon="-0.37792">
        <ele>600</ele>
        <time>2015-10-24T12:37:49Z</time>
      </trkpt>
      <trkpt lat="43.08755" lon="-0.37789">
        <ele>600.48</ele>
        <time>2015-10-24T12:37:50Z</time>
      </trkpt>
      <trkpt lat="43.08755" lon="-0.37786">
        <ele>600.48</ele>
        <time>2015-10-24T12:37:51Z</time>
      </trkpt>
      <trkpt lat="43.08755" lon="-0.37784">
        <ele>600.48</ele>
        <time>2015-10-24T12:37:52Z</time>
      </trkpt>
      <trkpt lat="43.08756" lon="-0.37782">
        <ele>600.48</ele>
        <time>2015-10-24T12:37:53Z</time>
      </trkpt>
      <trkpt lat="43.08758" lon="-0.37768">
        <ele>602.88</ele>
        <time>2015-10-24T12:37:59Z</time>
      </trkpt>
      <trkpt lat="43.08759" lon="-0.37766">
        <ele>603.36</ele>
        <time>2015-10-24T12:38:00Z</time>
      </trkpt>
      <trkpt lat="43.0876" lon="-0.37763">
        <ele>603.36</ele>
        <time>2015-10-24T12:38:01Z</time>
      </trkpt>
      <trkpt lat="43.08761" lon="-0.37761">
        <ele>603.36</ele>
        <time>2015-10-24T12:38:02Z</time>
      </trkpt>
      <trkpt lat="43.08761" lon="-0.37759">
        <ele>603.85</ele>
        <time>2015-10-24T12:38:03Z</time>
      </trkpt>
      <trkpt lat="43.08761" lon="-0.37756">
        <ele>603.85</ele>
        <time>2015-10-24T12:38:04Z</time>
      </trkpt>
      <trkpt lat="43.08761" lon="-0.37754">
        <ele>604.33</ele>
        <time>2015-10-24T12:38:05Z</time>
      </trkpt>
      <trkpt lat="43.08761" lon="-0.37752">
        <ele>604.33</ele>
        <time>2015-10-24T12:38:06Z</time>
      </trkpt>
      <trkpt lat="43.08761" lon="-0.3775">
        <ele>604.33</ele>
        <time>2015-10-24T12:38:07Z</time>
      </trkpt>
      <trkpt lat="43.08763" lon="-0.37733">
        <ele>606.25</ele>
        <time>2015-10-24T12:38:15Z</time>
      </trkpt>
      <trkpt lat="43.08762" lon="-0.37731">
        <ele>606.25</ele>
        <time>2015-10-24T12:38:16Z</time>
      </trkpt>
      <trkpt lat="43.08762" lon="-0.37729">
        <ele>606.25</ele>
        <time>2015-10-24T12:38:17Z</time>
      </trkpt>
      <trkpt lat="43.08762" lon="-0.37727">
        <ele>606.25</ele>
        <time>2015-10-24T12:38:18Z</time>
      </trkpt>
      <trkpt lat="43.08762" lon="-0.37725">
        <ele>606.73</ele>
        <time>2015-10-24T12:38:19Z</time>
      </trkpt>
      <trkpt lat="43.08769" lon="-0.37698">
        <ele>608.17</ele>
        <time>2015-10-24T12:38:31Z</time>
      </trkpt>
      <trkpt lat="43.08769" lon="-0.37695">
        <ele>608.65</ele>
        <time>2015-10-24T12:38:32Z</time>
      </trkpt>
      <trkpt lat="43.08769" lon="-0.37681">
        <ele>609.13</ele>
        <time>2015-10-24T12:38:38Z</time>
      </trkpt>
      <trkpt lat="43.0877" lon="-0.37678">
        <ele>609.13</ele>
        <time>2015-10-24T12:38:39Z</time>
      </trkpt>
      <trkpt lat="43.0877" lon="-0.37676">
        <ele>609.13</ele>
        <time>2015-10-24T12:38:40Z</time>
      </trkpt>
      <trkpt lat="43.08771" lon="-0.37673">
        <ele>609.13</ele>
        <time>2015-10-24T12:38:41Z</time>
      </trkpt>
      <trkpt lat="43.08771" lon="-0.37671">
        <ele>609.13</ele>
        <time>2015-10-24T12:38:42Z</time>
      </trkpt>
      <trkpt lat="43.08772" lon="-0.37668">
        <ele>609.13</ele>
        <time>2015-10-24T12:38:43Z</time>
      </trkpt>
      <trkpt lat="43.08772" lon="-0.37666">
        <ele>609.13</ele>
        <time>2015-10-24T12:38:44Z</time>
      </trkpt>
      <trkpt lat="43.08772" lon="-0.37663">
        <ele>609.13</ele>
        <time>2015-10-24T12:38:45Z</time>
      </trkpt>
      <trkpt lat="43.08771" lon="-0.3766">
        <ele>609.13</ele>
        <time>2015-10-24T12:38:46Z</time>
      </trkpt>
      <trkpt lat="43.08771" lon="-0.37658">
        <ele>609.13</ele>
        <time>2015-10-24T12:38:47Z</time>
      </trkpt>
      <trkpt lat="43.08771" lon="-0.37656">
        <ele>609.13</ele>
        <time>2015-10-24T12:38:48Z</time>
      </trkpt>
      <trkpt lat="43.08771" lon="-0.37653">
        <ele>608.65</ele>
        <time>2015-10-24T12:38:49Z</time>
      </trkpt>
      <trkpt lat="43.08772" lon="-0.3765">
        <ele>609.13</ele>
        <time>2015-10-24T12:38:50Z</time>
      </trkpt>
      <trkpt lat="43.08772" lon="-0.37648">
        <ele>608.65</ele>
        <time>2015-10-24T12:38:51Z</time>
      </trkpt>
      <trkpt lat="43.08774" lon="-0.37626">
        <ele>610.09</ele>
        <time>2015-10-24T12:39:00Z</time>
      </trkpt>
      <trkpt lat="43.08774" lon="-0.37624">
        <ele>609.61</ele>
        <time>2015-10-24T12:39:01Z</time>
      </trkpt>
      <trkpt lat="43.08774" lon="-0.37622">
        <ele>609.61</ele>
        <time>2015-10-24T12:39:02Z</time>
      </trkpt>
      <trkpt lat="43.08773" lon="-0.37619">
        <ele>610.09</ele>
        <time>2015-10-24T12:39:03Z</time>
      </trkpt>
      <trkpt lat="43.08773" lon="-0.37617">
        <ele>610.57</ele>
        <time>2015-10-24T12:39:04Z</time>
      </trkpt>
      <trkpt lat="43.08773" lon="-0.37609">
        <ele>610.57</ele>
        <time>2015-10-24T12:39:07Z</time>
      </trkpt>
      <trkpt lat="43.08774" lon="-0.37607">
        <ele>610.57</ele>
        <time>2015-10-24T12:39:08Z</time>
      </trkpt>
      <trkpt lat="43.08777" lon="-0.37576">
        <ele>612.5</ele>
        <time>2015-10-24T12:39:21Z</time>
      </trkpt>
      <trkpt lat="43.08776" lon="-0.37545">
        <ele>612.02</ele>
        <time>2015-10-24T12:39:34Z</time>
      </trkpt>
      <trkpt lat="43.0878" lon="-0.37518">
        <ele>612.02</ele>
        <time>2015-10-24T12:39:45Z</time>
      </trkpt>
      <trkpt lat="43.08784" lon="-0.37483">
        <ele>613.46</ele>
        <time>2015-10-24T12:39:59Z</time>
      </trkpt>
      <trkpt lat="43.08784" lon="-0.37474">
        <ele>613.46</ele>
        <time>2015-10-24T12:40:03Z</time>
      </trkpt>
      <trkpt lat="43.08784" lon="-0.37472">
        <ele>613.46</ele>
        <time>2015-10-24T12:40:04Z</time>
      </trkpt>
      <trkpt lat="43.08784" lon="-0.3747">
        <ele>613.94</ele>
        <time>2015-10-24T12:40:05Z</time>
      </trkpt>
      <trkpt lat="43.08783" lon="-0.37468">
        <ele>614.42</ele>
        <time>2015-10-24T12:40:06Z</time>
      </trkpt>
      <trkpt lat="43.08783" lon="-0.37466">
        <ele>614.42</ele>
        <time>2015-10-24T12:40:07Z</time>
      </trkpt>
      <trkpt lat="43.08783" lon="-0.37464">
        <ele>615.38</ele>
        <time>2015-10-24T12:40:08Z</time>
      </trkpt>
      <trkpt lat="43.08782" lon="-0.37461">
        <ele>616.34</ele>
        <time>2015-10-24T12:40:09Z</time>
      </trkpt>
      <trkpt lat="43.08782" lon="-0.37452">
        <ele>617.78</ele>
        <time>2015-10-24T12:40:13Z</time>
      </trkpt>
      <trkpt lat="43.08782" lon="-0.37451">
        <ele>617.78</ele>
        <time>2015-10-24T12:40:14Z</time>
      </trkpt>
      <trkpt lat="43.08782" lon="-0.37448">
        <ele>618.26</ele>
        <time>2015-10-24T12:40:15Z</time>
      </trkpt>
      <trkpt lat="43.08783" lon="-0.37446">
        <ele>618.75</ele>
        <time>2015-10-24T12:40:16Z</time>
      </trkpt>
      <trkpt lat="43.08783" lon="-0.37443">
        <ele>619.23</ele>
        <time>2015-10-24T12:40:17Z</time>
      </trkpt>
      <trkpt lat="43.08783" lon="-0.3741">
        <ele>619.23</ele>
        <time>2015-10-24T12:40:30Z</time>
      </trkpt>
      <trkpt lat="43.08782" lon="-0.37381">
        <ele>618.75</ele>
        <time>2015-10-24T12:40:43Z</time>
      </trkpt>
      <trkpt lat="43.08782" lon="-0.37378">
        <ele>619.23</ele>
        <time>2015-10-24T12:40:44Z</time>
      </trkpt>
      <trkpt lat="43.08782" lon="-0.37376">
        <ele>619.23</ele>
        <time>2015-10-24T12:40:45Z</time>
      </trkpt>
      <trkpt lat="43.08781" lon="-0.37374">
        <ele>619.71</ele>
        <time>2015-10-24T12:40:46Z</time>
      </trkpt>
      <trkpt lat="43.0878" lon="-0.37371">
        <ele>619.71</ele>
        <time>2015-10-24T12:40:47Z</time>
      </trkpt>
      <trkpt lat="43.08779" lon="-0.37368">
        <ele>620.19</ele>
        <time>2015-10-24T12:40:48Z</time>
      </trkpt>
      <trkpt lat="43.08779" lon="-0.37366">
        <ele>620.19</ele>
        <time>2015-10-24T12:40:49Z</time>
      </trkpt>
      <trkpt lat="43.08778" lon="-0.37363">
        <ele>620.67</ele>
        <time>2015-10-24T12:40:50Z</time>
      </trkpt>
      <trkpt lat="43.08778" lon="-0.37361">
        <ele>620.67</ele>
        <time>2015-10-24T12:40:51Z</time>
      </trkpt>
      <trkpt lat="43.08778" lon="-0.37359">
        <ele>621.15</ele>
        <time>2015-10-24T12:40:52Z</time>
      </trkpt>
      <trkpt lat="43.08778" lon="-0.37356">
        <ele>621.15</ele>
        <time>2015-10-24T12:40:53Z</time>
      </trkpt>
      <trkpt lat="43.08779" lon="-0.37354">
        <ele>621.15</ele>
        <time>2015-10-24T12:40:54Z</time>
      </trkpt>
      <trkpt lat="43.08779" lon="-0.37351">
        <ele>621.63</ele>
        <time>2015-10-24T12:40:55Z</time>
      </trkpt>
      <trkpt lat="43.08778" lon="-0.37349">
        <ele>622.11</ele>
        <time>2015-10-24T12:40:56Z</time>
      </trkpt>
      <trkpt lat="43.08778" lon="-0.37346">
        <ele>623.07</ele>
        <time>2015-10-24T12:40:57Z</time>
      </trkpt>
      <trkpt lat="43.08778" lon="-0.37343">
        <ele>623.55</ele>
        <time>2015-10-24T12:40:58Z</time>
      </trkpt>
      <trkpt lat="43.08778" lon="-0.3734">
        <ele>624.51</ele>
        <time>2015-10-24T12:40:59Z</time>
      </trkpt>
      <trkpt lat="43.08779" lon="-0.37325">
        <ele>626.44</ele>
        <time>2015-10-24T12:41:05Z</time>
      </trkpt>
      <trkpt lat="43.08779" lon="-0.37322">
        <ele>626.92</ele>
        <time>2015-10-24T12:41:06Z</time>
      </trkpt>
      <trkpt lat="43.08778" lon="-0.3732">
        <ele>626.92</ele>
        <time>2015-10-24T12:41:07Z</time>
      </trkpt>
      <trkpt lat="43.08777" lon="-0.37318">
        <ele>626.92</ele>
        <time>2015-10-24T12:41:08Z</time>
      </trkpt>
      <trkpt lat="43.08777" lon="-0.37316">
        <ele>626.92</ele>
        <time>2015-10-24T12:41:09Z</time>
      </trkpt>
      <trkpt lat="43.08777" lon="-0.37314">
        <ele>626.92</ele>
        <time>2015-10-24T12:41:10Z</time>
      </trkpt>
      <trkpt lat="43.08776" lon="-0.37311">
        <ele>626.92</ele>
        <time>2015-10-24T12:41:11Z</time>
      </trkpt>
      <trkpt lat="43.08776" lon="-0.37309">
        <ele>627.88</ele>
        <time>2015-10-24T12:41:12Z</time>
      </trkpt>
      <trkpt lat="43.08776" lon="-0.37306">
        <ele>627.88</ele>
        <time>2015-10-24T12:41:13Z</time>
      </trkpt>
      <trkpt lat="43.08775" lon="-0.37294">
        <ele>629.8</ele>
        <time>2015-10-24T12:41:18Z</time>
      </trkpt>
      <trkpt lat="43.08775" lon="-0.37287">
        <ele>630.76</ele>
        <time>2015-10-24T12:41:21Z</time>
      </trkpt>
      <trkpt lat="43.08774" lon="-0.37284">
        <ele>631.72</ele>
        <time>2015-10-24T12:41:22Z</time>
      </trkpt>
      <trkpt lat="43.08774" lon="-0.37281">
        <ele>632.2</ele>
        <time>2015-10-24T12:41:23Z</time>
      </trkpt>
      <trkpt lat="43.08774" lon="-0.37279">
        <ele>632.68</ele>
        <time>2015-10-24T12:41:24Z</time>
      </trkpt>
      <trkpt lat="43.08774" lon="-0.37276">
        <ele>633.17</ele>
        <time>2015-10-24T12:41:25Z</time>
      </trkpt>
      <trkpt lat="43.08773" lon="-0.37274">
        <ele>633.65</ele>
        <time>2015-10-24T12:41:26Z</time>
      </trkpt>
      <trkpt lat="43.08769" lon="-0.37247">
        <ele>634.61</ele>
        <time>2015-10-24T12:41:39Z</time>
      </trkpt>
      <trkpt lat="43.08769" lon="-0.37245">
        <ele>634.61</ele>
        <time>2015-10-24T12:41:40Z</time>
      </trkpt>
      <trkpt lat="43.08769" lon="-0.37242">
        <ele>634.61</ele>
        <time>2015-10-24T12:41:41Z</time>
      </trkpt>
      <trkpt lat="43.08769" lon="-0.37239">
        <ele>635.09</ele>
        <time>2015-10-24T12:41:42Z</time>
      </trkpt>
      <trkpt lat="43.08769" lon="-0.37237">
        <ele>635.57</ele>
        <time>2015-10-24T12:41:43Z</time>
      </trkpt>
      <trkpt lat="43.08766" lon="-0.37208">
        <ele>639.41</ele>
        <time>2015-10-24T12:41:55Z</time>
      </trkpt>
      <trkpt lat="43.08766" lon="-0.37194">
        <ele>641.82</ele>
        <time>2015-10-24T12:42:00Z</time>
      </trkpt>
      <trkpt lat="43.08766" lon="-0.37192">
        <ele>642.78</ele>
        <time>2015-10-24T12:42:01Z</time>
      </trkpt>
      <trkpt lat="43.08766" lon="-0.37189">
        <ele>643.74</ele>
        <time>2015-10-24T12:42:02Z</time>
      </trkpt>
      <trkpt lat="43.08766" lon="-0.37181">
        <ele>646.14</ele>
        <time>2015-10-24T12:42:05Z</time>
      </trkpt>
      <trkpt lat="43.08767" lon="-0.37179">
        <ele>647.1</ele>
        <time>2015-10-24T12:42:06Z</time>
      </trkpt>
      <trkpt lat="43.08767" lon="-0.37176">
        <ele>647.59</ele>
        <time>2015-10-24T12:42:07Z</time>
      </trkpt>
      <trkpt lat="43.08767" lon="-0.37173">
        <ele>648.55</ele>
        <time>2015-10-24T12:42:08Z</time>
      </trkpt>
      <trkpt lat="43.08767" lon="-0.3717">
        <ele>649.03</ele>
        <time>2015-10-24T12:42:09Z</time>
      </trkpt>
      <trkpt lat="43.08768" lon="-0.37168">
        <ele>649.51</ele>
        <time>2015-10-24T12:42:10Z</time>
      </trkpt>
      <trkpt lat="43.08768" lon="-0.37165">
        <ele>649.99</ele>
        <time>2015-10-24T12:42:11Z</time>
      </trkpt>
      <trkpt lat="43.08768" lon="-0.37163">
        <ele>650.47</ele>
        <time>2015-10-24T12:42:12Z</time>
      </trkpt>
      <trkpt lat="43.08768" lon="-0.37161">
        <ele>650.47</ele>
        <time>2015-10-24T12:42:13Z</time>
      </trkpt>
      <trkpt lat="43.08768" lon="-0.37158">
        <ele>650.95</ele>
        <time>2015-10-24T12:42:14Z</time>
      </trkpt>
      <trkpt lat="43.08768" lon="-0.37156">
        <ele>650.95</ele>
        <time>2015-10-24T12:42:15Z</time>
      </trkpt>
      <trkpt lat="43.08769" lon="-0.37154">
        <ele>651.43</ele>
        <time>2015-10-24T12:42:16Z</time>
      </trkpt>
      <trkpt lat="43.0877" lon="-0.37151">
        <ele>651.43</ele>
        <time>2015-10-24T12:42:17Z</time>
      </trkpt>
      <trkpt lat="43.08771" lon="-0.37123">
        <ele>650.47</ele>
        <time>2015-10-24T12:42:29Z</time>
      </trkpt>
      <trkpt lat="43.08773" lon="-0.37105">
        <ele>649.03</ele>
        <time>2015-10-24T12:42:36Z</time>
      </trkpt>
      <trkpt lat="43.08772" lon="-0.37102">
        <ele>649.03</ele>
        <time>2015-10-24T12:42:37Z</time>
      </trkpt>
      <trkpt lat="43.08772" lon="-0.371">
        <ele>648.55</ele>
        <time>2015-10-24T12:42:38Z</time>
      </trkpt>
      <trkpt lat="43.08772" lon="-0.37098">
        <ele>648.55</ele>
        <time>2015-10-24T12:42:39Z</time>
      </trkpt>
      <trkpt lat="43.08771" lon="-0.37096">
        <ele>648.55</ele>
        <time>2015-10-24T12:42:40Z</time>
      </trkpt>
      <trkpt lat="43.08771" lon="-0.37094">
        <ele>648.07</ele>
        <time>2015-10-24T12:42:41Z</time>
      </trkpt>
      <trkpt lat="43.08771" lon="-0.37092">
        <ele>648.07</ele>
        <time>2015-10-24T12:42:42Z</time>
      </trkpt>
      <trkpt lat="43.08771" lon="-0.3709">
        <ele>648.07</ele>
        <time>2015-10-24T12:42:43Z</time>
      </trkpt>
      <trkpt lat="43.08771" lon="-0.37088">
        <ele>648.07</ele>
        <time>2015-10-24T12:42:44Z</time>
      </trkpt>
      <trkpt lat="43.08776" lon="-0.3706">
        <ele>649.03</ele>
        <time>2015-10-24T12:42:55Z</time>
      </trkpt>
      <trkpt lat="43.08778" lon="-0.37036">
        <ele>649.51</ele>
        <time>2015-10-24T12:43:04Z</time>
      </trkpt>
      <trkpt lat="43.08777" lon="-0.37036">
        <ele>649.51</ele>
        <time>2015-10-24T12:43:05Z</time>
      </trkpt>
      <trkpt lat="43.08775" lon="-0.37036">
        <ele>649.51</ele>
        <time>2015-10-24T12:43:06Z</time>
      </trkpt>
      <trkpt lat="43.08774" lon="-0.37038">
        <ele>649.51</ele>
        <time>2015-10-24T12:43:07Z</time>
      </trkpt>
      <trkpt lat="43.08774" lon="-0.3704">
        <ele>649.99</ele>
        <time>2015-10-24T12:43:08Z</time>
      </trkpt>
      <trkpt lat="43.08769" lon="-0.37054">
        <ele>651.91</ele>
        <time>2015-10-24T12:43:15Z</time>
      </trkpt>
      <trkpt lat="43.08768" lon="-0.37056">
        <ele>652.39</ele>
        <time>2015-10-24T12:43:16Z</time>
      </trkpt>
      <trkpt lat="43.08768" lon="-0.37058">
        <ele>652.87</ele>
        <time>2015-10-24T12:43:17Z</time>
      </trkpt>
      <trkpt lat="43.08767" lon="-0.37062">
        <ele>653.35</ele>
        <time>2015-10-24T12:43:19Z</time>
      </trkpt>
      <trkpt lat="43.08767" lon="-0.37064">
        <ele>653.83</ele>
        <time>2015-10-24T12:43:20Z</time>
      </trkpt>
      <trkpt lat="43.08766" lon="-0.37067">
        <ele>654.31</ele>
        <time>2015-10-24T12:43:21Z</time>
      </trkpt>
      <trkpt lat="43.08765" lon="-0.37073">
        <ele>655.76</ele>
        <time>2015-10-24T12:43:24Z</time>
      </trkpt>
      <trkpt lat="43.08765" lon="-0.37075">
        <ele>655.76</ele>
        <time>2015-10-24T12:43:25Z</time>
      </trkpt>
      <trkpt lat="43.08764" lon="-0.37077">
        <ele>656.24</ele>
        <time>2015-10-24T12:43:26Z</time>
      </trkpt>
      <trkpt lat="43.08758" lon="-0.37105">
        <ele>658.16</ele>
        <time>2015-10-24T12:43:38Z</time>
      </trkpt>
      <trkpt lat="43.08749" lon="-0.37129">
        <ele>659.6</ele>
        <time>2015-10-24T12:43:49Z</time>
      </trkpt>
      <trkpt lat="43.08739" lon="-0.37152">
        <ele>663.45</ele>
        <time>2015-10-24T12:43:59Z</time>
      </trkpt>
      <trkpt lat="43.08735" lon="-0.37161">
        <ele>664.89</ele>
        <time>2015-10-24T12:44:03Z</time>
      </trkpt>
      <trkpt lat="43.08734" lon="-0.37163">
        <ele>665.37</ele>
        <time>2015-10-24T12:44:04Z</time>
      </trkpt>
      <trkpt lat="43.08733" lon="-0.37165">
        <ele>665.37</ele>
        <time>2015-10-24T12:44:05Z</time>
      </trkpt>
      <trkpt lat="43.08728" lon="-0.37172">
        <ele>666.81</ele>
        <time>2015-10-24T12:44:10Z</time>
      </trkpt>
      <trkpt lat="43.08726" lon="-0.37176">
        <ele>666.81</ele>
        <time>2015-10-24T12:44:12Z</time>
      </trkpt>
      <trkpt lat="43.08726" lon="-0.37178">
        <ele>666.81</ele>
        <time>2015-10-24T12:44:13Z</time>
      </trkpt>
      <trkpt lat="43.08726" lon="-0.37183">
        <ele>666.81</ele>
        <time>2015-10-24T12:44:15Z</time>
      </trkpt>
      <trkpt lat="43.08725" lon="-0.37185">
        <ele>666.81</ele>
        <time>2015-10-24T12:44:16Z</time>
      </trkpt>
      <trkpt lat="43.08724" lon="-0.37187">
        <ele>666.81</ele>
        <time>2015-10-24T12:44:17Z</time>
      </trkpt>
      <trkpt lat="43.08723" lon="-0.37189">
        <ele>666.81</ele>
        <time>2015-10-24T12:44:18Z</time>
      </trkpt>
      <trkpt lat="43.08723" lon="-0.37192">
        <ele>666.33</ele>
        <time>2015-10-24T12:44:19Z</time>
      </trkpt>
      <trkpt lat="43.08723" lon="-0.37193">
        <ele>666.81</ele>
        <time>2015-10-24T12:44:20Z</time>
      </trkpt>
      <trkpt lat="43.08722" lon="-0.37195">
        <ele>666.33</ele>
        <time>2015-10-24T12:44:21Z</time>
      </trkpt>
      <trkpt lat="43.08722" lon="-0.37197">
        <ele>666.33</ele>
        <time>2015-10-24T12:44:22Z</time>
      </trkpt>
      <trkpt lat="43.08721" lon="-0.372">
        <ele>665.85</ele>
        <time>2015-10-24T12:44:23Z</time>
      </trkpt>
      <trkpt lat="43.08721" lon="-0.37202">
        <ele>665.85</ele>
        <time>2015-10-24T12:44:24Z</time>
      </trkpt>
      <trkpt lat="43.0872" lon="-0.37204">
        <ele>665.37</ele>
        <time>2015-10-24T12:44:25Z</time>
      </trkpt>
      <trkpt lat="43.0872" lon="-0.37206">
        <ele>665.37</ele>
        <time>2015-10-24T12:44:26Z</time>
      </trkpt>
      <trkpt lat="43.08719" lon="-0.37208">
        <ele>665.85</ele>
        <time>2015-10-24T12:44:27Z</time>
      </trkpt>
      <trkpt lat="43.08719" lon="-0.37209">
        <ele>665.85</ele>
        <time>2015-10-24T12:44:28Z</time>
      </trkpt>
      <trkpt lat="43.08719" lon="-0.37212">
        <ele>666.33</ele>
        <time>2015-10-24T12:44:29Z</time>
      </trkpt>
      <trkpt lat="43.08719" lon="-0.37214">
        <ele>666.81</ele>
        <time>2015-10-24T12:44:30Z</time>
      </trkpt>
      <trkpt lat="43.08718" lon="-0.37216">
        <ele>666.81</ele>
        <time>2015-10-24T12:44:31Z</time>
      </trkpt>
      <trkpt lat="43.08717" lon="-0.37218">
        <ele>666.81</ele>
        <time>2015-10-24T12:44:32Z</time>
      </trkpt>
      <trkpt lat="43.08713" lon="-0.37241">
        <ele>670.66</ele>
        <time>2015-10-24T12:44:43Z</time>
      </trkpt>
      <trkpt lat="43.08714" lon="-0.37252">
        <ele>670.66</ele>
        <time>2015-10-24T12:44:48Z</time>
      </trkpt>
      <trkpt lat="43.08712" lon="-0.37264">
        <ele>671.62</ele>
        <time>2015-10-24T12:44:54Z</time>
      </trkpt>
      <trkpt lat="43.08712" lon="-0.37293">
        <ele>673.54</ele>
        <time>2015-10-24T12:45:08Z</time>
      </trkpt>
      <trkpt lat="43.08708" lon="-0.37315">
        <ele>674.5</ele>
        <time>2015-10-24T12:45:19Z</time>
      </trkpt>
      <trkpt lat="43.08708" lon="-0.37318">
        <ele>674.98</ele>
        <time>2015-10-24T12:45:20Z</time>
      </trkpt>
      <trkpt lat="43.08708" lon="-0.3733">
        <ele>675.94</ele>
        <time>2015-10-24T12:45:26Z</time>
      </trkpt>
      <trkpt lat="43.087" lon="-0.37356">
        <ele>677.87</ele>
        <time>2015-10-24T12:45:39Z</time>
      </trkpt>
      <trkpt lat="43.08696" lon="-0.37382">
        <ele>682.19</ele>
        <time>2015-10-24T12:45:52Z</time>
      </trkpt>
      <trkpt lat="43.08695" lon="-0.37385">
        <ele>682.19</ele>
        <time>2015-10-24T12:45:53Z</time>
      </trkpt>
      <trkpt lat="43.08691" lon="-0.37415">
        <ele>686.04</ele>
        <time>2015-10-24T12:46:07Z</time>
      </trkpt>
      <trkpt lat="43.08688" lon="-0.37439">
        <ele>688.92</ele>
        <time>2015-10-24T12:46:18Z</time>
      </trkpt>
      <trkpt lat="43.08687" lon="-0.37444">
        <ele>689.4</ele>
        <time>2015-10-24T12:46:21Z</time>
      </trkpt>
      <trkpt lat="43.08682" lon="-0.37474">
        <ele>692.77</ele>
        <time>2015-10-24T12:46:35Z</time>
      </trkpt>
      <trkpt lat="43.08677" lon="-0.37491">
        <ele>691.81</ele>
        <time>2015-10-24T12:46:43Z</time>
      </trkpt>
      <trkpt lat="43.08673" lon="-0.375">
        <ele>692.29</ele>
        <time>2015-10-24T12:46:47Z</time>
      </trkpt>
      <trkpt lat="43.08668" lon="-0.37507">
        <ele>693.25</ele>
        <time>2015-10-24T12:46:52Z</time>
      </trkpt>
      <trkpt lat="43.08659" lon="-0.37531">
        <ele>693.73</ele>
        <time>2015-10-24T12:47:05Z</time>
      </trkpt>
      <trkpt lat="43.08657" lon="-0.37545">
        <ele>693.73</ele>
        <time>2015-10-24T12:47:12Z</time>
      </trkpt>
      <trkpt lat="43.08656" lon="-0.37549">
        <ele>694.21</ele>
        <time>2015-10-24T12:47:14Z</time>
      </trkpt>
      <trkpt lat="43.08651" lon="-0.37557">
        <ele>694.21</ele>
        <time>2015-10-24T12:47:19Z</time>
      </trkpt>
      <trkpt lat="43.08642" lon="-0.37582">
        <ele>696.13</ele>
        <time>2015-10-24T12:47:33Z</time>
      </trkpt>
      <trkpt lat="43.08641" lon="-0.37587">
        <ele>697.57</ele>
        <time>2015-10-24T12:47:36Z</time>
      </trkpt>
      <trkpt lat="43.08639" lon="-0.37596">
        <ele>699.98</ele>
        <time>2015-10-24T12:47:41Z</time>
      </trkpt>
      <trkpt lat="43.0863" lon="-0.37617">
        <ele>703.34</ele>
        <time>2015-10-24T12:47:53Z</time>
      </trkpt>
      <trkpt lat="43.08621" lon="-0.37635">
        <ele>705.75</ele>
        <time>2015-10-24T12:48:04Z</time>
      </trkpt>
      <trkpt lat="43.08619" lon="-0.37639">
        <ele>706.23</ele>
        <time>2015-10-24T12:48:06Z</time>
      </trkpt>
      <trkpt lat="43.08611" lon="-0.3765">
        <ele>706.23</ele>
        <time>2015-10-24T12:48:13Z</time>
      </trkpt>
      <trkpt lat="43.08608" lon="-0.37654">
        <ele>706.71</ele>
        <time>2015-10-24T12:48:16Z</time>
      </trkpt>
      <trkpt lat="43.08599" lon="-0.3767">
        <ele>707.67</ele>
        <time>2015-10-24T12:48:25Z</time>
      </trkpt>
      <trkpt lat="43.08596" lon="-0.37673">
        <ele>708.15</ele>
        <time>2015-10-24T12:48:27Z</time>
      </trkpt>
      <trkpt lat="43.08591" lon="-0.37681">
        <ele>711.03</ele>
        <time>2015-10-24T12:48:32Z</time>
      </trkpt>
      <trkpt lat="43.08581" lon="-0.37696">
        <ele>714.88</ele>
        <time>2015-10-24T12:48:41Z</time>
      </trkpt>
      <trkpt lat="43.08579" lon="-0.37699">
        <ele>714.88</ele>
        <time>2015-10-24T12:48:43Z</time>
      </trkpt>
      <trkpt lat="43.08567" lon="-0.37717">
        <ele>718.24</ele>
        <time>2015-10-24T12:48:55Z</time>
      </trkpt>
      <trkpt lat="43.08562" lon="-0.37724">
        <ele>719.2</ele>
        <time>2015-10-24T12:49:01Z</time>
      </trkpt>
      <trkpt lat="43.08558" lon="-0.37744">
        <ele>722.57</ele>
        <time>2015-10-24T12:49:10Z</time>
      </trkpt>
      <trkpt lat="43.08561" lon="-0.37766">
        <ele>723.05</ele>
        <time>2015-10-24T12:49:23Z</time>
      </trkpt>
      <trkpt lat="43.0856" lon="-0.3777">
        <ele>723.05</ele>
        <time>2015-10-24T12:49:25Z</time>
      </trkpt>
      <trkpt lat="43.0856" lon="-0.37773">
        <ele>722.57</ele>
        <time>2015-10-24T12:49:27Z</time>
      </trkpt>
      <trkpt lat="43.08557" lon="-0.37785">
        <ele>719.68</ele>
        <time>2015-10-24T12:49:33Z</time>
      </trkpt>
      <trkpt lat="43.08554" lon="-0.37797">
        <ele>719.2</ele>
        <time>2015-10-24T12:49:39Z</time>
      </trkpt>
      <trkpt lat="43.08553" lon="-0.37812">
        <ele>719.68</ele>
        <time>2015-10-24T12:49:47Z</time>
      </trkpt>
      <trkpt lat="43.08551" lon="-0.37836">
        <ele>722.57</ele>
        <time>2015-10-24T12:49:59Z</time>
      </trkpt>
      <trkpt lat="43.0855" lon="-0.3785">
        <ele>723.53</ele>
        <time>2015-10-24T12:50:06Z</time>
      </trkpt>
      <trkpt lat="43.08546" lon="-0.37873">
        <ele>725.93</ele>
        <time>2015-10-24T12:50:19Z</time>
      </trkpt>
      <trkpt lat="43.0854" lon="-0.37895">
        <ele>727.37</ele>
        <time>2015-10-24T12:50:30Z</time>
      </trkpt>
      <trkpt lat="43.08533" lon="-0.37915">
        <ele>728.34</ele>
        <time>2015-10-24T12:50:40Z</time>
      </trkpt>
      <trkpt lat="43.0853" lon="-0.37921">
        <ele>728.82</ele>
        <time>2015-10-24T12:50:43Z</time>
      </trkpt>
      <trkpt lat="43.08517" lon="-0.37948">
        <ele>733.14</ele>
        <time>2015-10-24T12:50:59Z</time>
      </trkpt>
      <trkpt lat="43.08512" lon="-0.37967">
        <ele>737.47</ele>
        <time>2015-10-24T12:51:09Z</time>
      </trkpt>
      <trkpt lat="43.08506" lon="-0.37988">
        <ele>741.79</ele>
        <time>2015-10-24T12:51:22Z</time>
      </trkpt>
      <trkpt lat="43.085" lon="-0.38003">
        <ele>741.79</ele>
        <time>2015-10-24T12:51:30Z</time>
      </trkpt>
      <trkpt lat="43.08493" lon="-0.38025">
        <ele>741.31</ele>
        <time>2015-10-24T12:51:41Z</time>
      </trkpt>
      <trkpt lat="43.08487" lon="-0.38042">
        <ele>741.79</ele>
        <time>2015-10-24T12:51:49Z</time>
      </trkpt>
      <trkpt lat="43.08485" lon="-0.38051">
        <ele>742.28</ele>
        <time>2015-10-24T12:51:54Z</time>
      </trkpt>
      <trkpt lat="43.08479" lon="-0.38079">
        <ele>739.87</ele>
        <time>2015-10-24T12:52:07Z</time>
      </trkpt>
      <trkpt lat="43.08473" lon="-0.3813">
        <ele>737.95</ele>
        <time>2015-10-24T12:52:19Z</time>
      </trkpt>
      <trkpt lat="43.0847" lon="-0.38164">
        <ele>736.51</ele>
        <time>2015-10-24T12:52:29Z</time>
      </trkpt>
      <trkpt lat="43.0847" lon="-0.38168">
        <ele>736.03</ele>
        <time>2015-10-24T12:52:30Z</time>
      </trkpt>
      <trkpt lat="43.08475" lon="-0.38191">
        <ele>732.18</ele>
        <time>2015-10-24T12:52:35Z</time>
      </trkpt>
      <trkpt lat="43.08472" lon="-0.38198">
        <ele>729.78</ele>
        <time>2015-10-24T12:52:39Z</time>
      </trkpt>
      <trkpt lat="43.08468" lon="-0.3819">
        <ele>729.78</ele>
        <time>2015-10-24T12:52:46Z</time>
      </trkpt>
      <trkpt lat="43.08468" lon="-0.38181">
        <ele>730.26</ele>
        <time>2015-10-24T12:52:52Z</time>
      </trkpt>
      <trkpt lat="43.08466" lon="-0.38172">
        <ele>733.62</ele>
        <time>2015-10-24T12:53:00Z</time>
      </trkpt>
      <trkpt lat="43.08462" lon="-0.38161">
        <ele>737.47</ele>
        <time>2015-10-24T12:53:09Z</time>
      </trkpt>
      <trkpt lat="43.08461" lon="-0.38154">
        <ele>738.91</ele>
        <time>2015-10-24T12:53:13Z</time>
      </trkpt>
      <trkpt lat="43.0846" lon="-0.38147">
        <ele>740.35</ele>
        <time>2015-10-24T12:53:18Z</time>
      </trkpt>
      <trkpt lat="43.08457" lon="-0.38128">
        <ele>743.72</ele>
        <time>2015-10-24T12:53:32Z</time>
      </trkpt>
      <trkpt lat="43.08456" lon="-0.38127">
        <ele>743.72</ele>
        <time>2015-10-24T12:53:33Z</time>
      </trkpt>
      <trkpt lat="43.08454" lon="-0.3811">
        <ele>745.16</ele>
        <time>2015-10-24T12:53:46Z</time>
      </trkpt>
      <trkpt lat="43.08453" lon="-0.38105">
        <ele>745.16</ele>
        <time>2015-10-24T12:53:50Z</time>
      </trkpt>
      <trkpt lat="43.08454" lon="-0.38085">
        <ele>750.45</ele>
        <time>2015-10-24T12:54:03Z</time>
      </trkpt>
      <trkpt lat="43.08451" lon="-0.38081">
        <ele>751.89</ele>
        <time>2015-10-24T12:54:08Z</time>
      </trkpt>
      <trkpt lat="43.0845" lon="-0.38087">
        <ele>752.37</ele>
        <time>2015-10-24T12:54:12Z</time>
      </trkpt>
      <trkpt lat="43.0845" lon="-0.38092">
        <ele>753.33</ele>
        <time>2015-10-24T12:54:16Z</time>
      </trkpt>
      <trkpt lat="43.08448" lon="-0.38097">
        <ele>754.77</ele>
        <time>2015-10-24T12:54:20Z</time>
      </trkpt>
      <trkpt lat="43.08446" lon="-0.38105">
        <ele>756.21</ele>
        <time>2015-10-24T12:54:25Z</time>
      </trkpt>
      <trkpt lat="43.08446" lon="-0.38108">
        <ele>756.69</ele>
        <time>2015-10-24T12:54:27Z</time>
      </trkpt>
      <trkpt lat="43.08443" lon="-0.38113">
        <ele>757.66</ele>
        <time>2015-10-24T12:54:31Z</time>
      </trkpt>
      <trkpt lat="43.0844" lon="-0.38126">
        <ele>757.66</ele>
        <time>2015-10-24T12:54:41Z</time>
      </trkpt>
      <trkpt lat="43.08437" lon="-0.38146">
        <ele>760.06</ele>
        <time>2015-10-24T12:54:54Z</time>
      </trkpt>
      <trkpt lat="43.08438" lon="-0.3816">
        <ele>762.46</ele>
        <time>2015-10-24T12:55:04Z</time>
      </trkpt>
      <trkpt lat="43.08437" lon="-0.38174">
        <ele>765.83</ele>
        <time>2015-10-24T12:55:14Z</time>
      </trkpt>
      <trkpt lat="43.08433" lon="-0.38186">
        <ele>768.71</ele>
        <time>2015-10-24T12:55:23Z</time>
      </trkpt>
      <trkpt lat="43.08429" lon="-0.38204">
        <ele>771.6</ele>
        <time>2015-10-24T12:55:36Z</time>
      </trkpt>
      <trkpt lat="43.08428" lon="-0.38214">
        <ele>773.04</ele>
        <time>2015-10-24T12:55:43Z</time>
      </trkpt>
      <trkpt lat="43.08427" lon="-0.38222">
        <ele>773.52</ele>
        <time>2015-10-24T12:55:47Z</time>
      </trkpt>
      <trkpt lat="43.08425" lon="-0.38227">
        <ele>773.04</ele>
        <time>2015-10-24T12:55:50Z</time>
      </trkpt>
      <trkpt lat="43.08424" lon="-0.38232">
        <ele>773.04</ele>
        <time>2015-10-24T12:55:54Z</time>
      </trkpt>
      <trkpt lat="43.08422" lon="-0.38241">
        <ele>773.52</ele>
        <time>2015-10-24T12:55:59Z</time>
      </trkpt>
      <trkpt lat="43.08417" lon="-0.38256">
        <ele>773.52</ele>
        <time>2015-10-24T12:56:09Z</time>
      </trkpt>
      <trkpt lat="43.08416" lon="-0.3826">
        <ele>774.48</ele>
        <time>2015-10-24T12:56:12Z</time>
      </trkpt>
      <trkpt lat="43.08412" lon="-0.38273">
        <ele>775.92</ele>
        <time>2015-10-24T12:56:20Z</time>
      </trkpt>
      <trkpt lat="43.08407" lon="-0.38279">
        <ele>776.4</ele>
        <time>2015-10-24T12:56:26Z</time>
      </trkpt>
      <trkpt lat="43.08406" lon="-0.38282">
        <ele>776.4</ele>
        <time>2015-10-24T12:56:28Z</time>
      </trkpt>
      <trkpt lat="43.08401" lon="-0.38298">
        <ele>778.81</ele>
        <time>2015-10-24T12:56:40Z</time>
      </trkpt>
      <trkpt lat="43.08397" lon="-0.38313">
        <ele>781.69</ele>
        <time>2015-10-24T12:56:52Z</time>
      </trkpt>
      <trkpt lat="43.08392" lon="-0.38328">
        <ele>786.98</ele>
        <time>2015-10-24T12:57:04Z</time>
      </trkpt>
      <trkpt lat="43.08386" lon="-0.3834">
        <ele>787.94</ele>
        <time>2015-10-24T12:57:13Z</time>
      </trkpt>
      <trkpt lat="43.08381" lon="-0.38352">
        <ele>788.9</ele>
        <time>2015-10-24T12:57:23Z</time>
      </trkpt>
      <trkpt lat="43.0838" lon="-0.38354">
        <ele>788.9</ele>
        <time>2015-10-24T12:57:25Z</time>
      </trkpt>
      <trkpt lat="43.08379" lon="-0.38357">
        <ele>789.38</ele>
        <time>2015-10-24T12:57:27Z</time>
      </trkpt>
      <trkpt lat="43.08376" lon="-0.3836">
        <ele>789.86</ele>
        <time>2015-10-24T12:57:31Z</time>
      </trkpt>
      <trkpt lat="43.08372" lon="-0.38375">
        <ele>790.82</ele>
        <time>2015-10-24T12:57:41Z</time>
      </trkpt>
      <trkpt lat="43.08368" lon="-0.38386">
        <ele>792.74</ele>
        <time>2015-10-24T12:57:49Z</time>
      </trkpt>
      <trkpt lat="43.08357" lon="-0.38401">
        <ele>793.71</ele>
        <time>2015-10-24T12:58:01Z</time>
      </trkpt>
      <trkpt lat="43.08357" lon="-0.38402">
        <ele>794.19</ele>
        <time>2015-10-24T12:58:02Z</time>
      </trkpt>
      <trkpt lat="43.08354" lon="-0.38406">
        <ele>794.19</ele>
        <time>2015-10-24T12:58:05Z</time>
      </trkpt>
      <trkpt lat="43.08353" lon="-0.3841">
        <ele>794.19</ele>
        <time>2015-10-24T12:58:08Z</time>
      </trkpt>
      <trkpt lat="43.08349" lon="-0.38415">
        <ele>795.15</ele>
        <time>2015-10-24T12:58:12Z</time>
      </trkpt>
      <trkpt lat="43.08347" lon="-0.38419">
        <ele>795.15</ele>
        <time>2015-10-24T12:58:15Z</time>
      </trkpt>
      <trkpt lat="43.08345" lon="-0.38423">
        <ele>796.11</ele>
        <time>2015-10-24T12:58:18Z</time>
      </trkpt>
      <trkpt lat="43.08341" lon="-0.38436">
        <ele>798.03</ele>
        <time>2015-10-24T12:58:28Z</time>
      </trkpt>
      <trkpt lat="43.0834" lon="-0.38443">
        <ele>799.47</ele>
        <time>2015-10-24T12:58:33Z</time>
      </trkpt>
      <trkpt lat="43.08337" lon="-0.38454">
        <ele>800.92</ele>
        <time>2015-10-24T12:58:43Z</time>
      </trkpt>
      <trkpt lat="43.08333" lon="-0.38464">
        <ele>801.88</ele>
        <time>2015-10-24T12:58:52Z</time>
      </trkpt>
      <trkpt lat="43.08332" lon="-0.38467">
        <ele>802.84</ele>
        <time>2015-10-24T12:58:54Z</time>
      </trkpt>
      <trkpt lat="43.0833" lon="-0.38475">
        <ele>803.32</ele>
        <time>2015-10-24T12:58:59Z</time>
      </trkpt>
      <trkpt lat="43.08325" lon="-0.38482">
        <ele>804.28</ele>
        <time>2015-10-24T12:59:05Z</time>
      </trkpt>
      <trkpt lat="43.08321" lon="-0.38496">
        <ele>806.68</ele>
        <time>2015-10-24T12:59:15Z</time>
      </trkpt>
      <trkpt lat="43.08318" lon="-0.38501">
        <ele>807.64</ele>
        <time>2015-10-24T12:59:19Z</time>
      </trkpt>
      <trkpt lat="43.08316" lon="-0.38505">
        <ele>808.61</ele>
        <time>2015-10-24T12:59:22Z</time>
      </trkpt>
      <trkpt lat="43.08311" lon="-0.38519">
        <ele>811.49</ele>
        <time>2015-10-24T12:59:32Z</time>
      </trkpt>
      <trkpt lat="43.08307" lon="-0.38525">
        <ele>812.93</ele>
        <time>2015-10-24T12:59:38Z</time>
      </trkpt>
      <trkpt lat="43.08302" lon="-0.38537">
        <ele>814.85</ele>
        <time>2015-10-24T12:59:47Z</time>
      </trkpt>
      <trkpt lat="43.08294" lon="-0.38555">
        <ele>815.82</ele>
        <time>2015-10-24T13:00:00Z</time>
      </trkpt>
      <trkpt lat="43.08291" lon="-0.38562">
        <ele>817.26</ele>
        <time>2015-10-24T13:00:05Z</time>
      </trkpt>
      <trkpt lat="43.08287" lon="-0.38566">
        <ele>817.26</ele>
        <time>2015-10-24T13:00:10Z</time>
      </trkpt>
      <trkpt lat="43.08286" lon="-0.38573">
        <ele>818.22</ele>
        <time>2015-10-24T13:00:14Z</time>
      </trkpt>
      <trkpt lat="43.08285" lon="-0.38576">
        <ele>818.22</ele>
        <time>2015-10-24T13:00:17Z</time>
      </trkpt>
      <trkpt lat="43.08282" lon="-0.38584">
        <ele>818.7</ele>
        <time>2015-10-24T13:00:24Z</time>
      </trkpt>
      <trkpt lat="43.08281" lon="-0.38592">
        <ele>819.18</ele>
        <time>2015-10-24T13:00:37Z</time>
      </trkpt>
      <trkpt lat="43.08279" lon="-0.38603">
        <ele>821.58</ele>
        <time>2015-10-24T13:00:58Z</time>
      </trkpt>
      <trkpt lat="43.08275" lon="-0.38614">
        <ele>823.51</ele>
        <time>2015-10-24T13:01:08Z</time>
      </trkpt>
      <trkpt lat="43.0827" lon="-0.38633">
        <ele>825.43</ele>
        <time>2015-10-24T13:01:20Z</time>
      </trkpt>
      <trkpt lat="43.08269" lon="-0.38638">
        <ele>825.43</ele>
        <time>2015-10-24T13:01:23Z</time>
      </trkpt>
      <trkpt lat="43.08269" lon="-0.38649">
        <ele>825.91</ele>
        <time>2015-10-24T13:01:30Z</time>
      </trkpt>
      <trkpt lat="43.08267" lon="-0.38655">
        <ele>826.87</ele>
        <time>2015-10-24T13:01:33Z</time>
      </trkpt>
      <trkpt lat="43.08269" lon="-0.38675">
        <ele>830.24</ele>
        <time>2015-10-24T13:01:45Z</time>
      </trkpt>
      <trkpt lat="43.08269" lon="-0.38686">
        <ele>834.08</ele>
        <time>2015-10-24T13:01:54Z</time>
      </trkpt>
      <trkpt lat="43.08271" lon="-0.38706">
        <ele>836</ele>
        <time>2015-10-24T13:02:07Z</time>
      </trkpt>
      <trkpt lat="43.08272" lon="-0.38725">
        <ele>835.04</ele>
        <time>2015-10-24T13:02:19Z</time>
      </trkpt>
      <trkpt lat="43.08271" lon="-0.38727">
        <ele>835.52</ele>
        <time>2015-10-24T13:02:21Z</time>
      </trkpt>
      <trkpt lat="43.08272" lon="-0.3874">
        <ele>837.93</ele>
        <time>2015-10-24T13:02:30Z</time>
      </trkpt>
      <trkpt lat="43.08272" lon="-0.38745">
        <ele>838.89</ele>
        <time>2015-10-24T13:02:33Z</time>
      </trkpt>
      <trkpt lat="43.0827" lon="-0.3876">
        <ele>839.85</ele>
        <time>2015-10-24T13:02:44Z</time>
      </trkpt>
      <trkpt lat="43.08268" lon="-0.38775">
        <ele>840.33</ele>
        <time>2015-10-24T13:02:54Z</time>
      </trkpt>
      <trkpt lat="43.08267" lon="-0.38779">
        <ele>840.33</ele>
        <time>2015-10-24T13:02:57Z</time>
      </trkpt>
      <trkpt lat="43.08265" lon="-0.38794">
        <ele>842.25</ele>
        <time>2015-10-24T13:03:09Z</time>
      </trkpt>
      <trkpt lat="43.08262" lon="-0.38799">
        <ele>843.21</ele>
        <time>2015-10-24T13:03:14Z</time>
      </trkpt>
      <trkpt lat="43.08262" lon="-0.38814">
        <ele>847.54</ele>
        <time>2015-10-24T13:03:24Z</time>
      </trkpt>
      <trkpt lat="43.08262" lon="-0.38815">
        <ele>848.02</ele>
        <time>2015-10-24T13:03:25Z</time>
      </trkpt>
      <trkpt lat="43.08259" lon="-0.38821">
        <ele>848.98</ele>
        <time>2015-10-24T13:03:29Z</time>
      </trkpt>
      <trkpt lat="43.08257" lon="-0.3883">
        <ele>850.9</ele>
        <time>2015-10-24T13:03:34Z</time>
      </trkpt>
      <trkpt lat="43.08255" lon="-0.38845">
        <ele>852.35</ele>
        <time>2015-10-24T13:03:44Z</time>
      </trkpt>
      <trkpt lat="43.08252" lon="-0.38861">
        <ele>852.35</ele>
        <time>2015-10-24T13:03:55Z</time>
      </trkpt>
      <trkpt lat="43.08255" lon="-0.38875">
        <ele>853.31</ele>
        <time>2015-10-24T13:04:03Z</time>
      </trkpt>
      <trkpt lat="43.08255" lon="-0.38878">
        <ele>854.27</ele>
        <time>2015-10-24T13:04:05Z</time>
      </trkpt>
      <trkpt lat="43.08262" lon="-0.38905">
        <ele>857.63</ele>
        <time>2015-10-24T13:04:19Z</time>
      </trkpt>
      <trkpt lat="43.08263" lon="-0.38917">
        <ele>858.11</ele>
        <time>2015-10-24T13:04:26Z</time>
      </trkpt>
      <trkpt lat="43.08264" lon="-0.38923">
        <ele>857.63</ele>
        <time>2015-10-24T13:04:29Z</time>
      </trkpt>
      <trkpt lat="43.08262" lon="-0.38942">
        <ele>858.11</ele>
        <time>2015-10-24T13:04:39Z</time>
      </trkpt>
      <trkpt lat="43.0826" lon="-0.38957">
        <ele>859.08</ele>
        <time>2015-10-24T13:04:47Z</time>
      </trkpt>
      <trkpt lat="43.08258" lon="-0.38971">
        <ele>860.04</ele>
        <time>2015-10-24T13:04:56Z</time>
      </trkpt>
      <trkpt lat="43.08258" lon="-0.38983">
        <ele>861</ele>
        <time>2015-10-24T13:05:04Z</time>
      </trkpt>
      <trkpt lat="43.08257" lon="-0.38997">
        <ele>861.96</ele>
        <time>2015-10-24T13:05:13Z</time>
      </trkpt>
      <trkpt lat="43.08255" lon="-0.39014">
        <ele>861.96</ele>
        <time>2015-10-24T13:05:23Z</time>
      </trkpt>
      <trkpt lat="43.08255" lon="-0.39019">
        <ele>861.96</ele>
        <time>2015-10-24T13:05:26Z</time>
      </trkpt>
      <trkpt lat="43.08253" lon="-0.39025">
        <ele>861.96</ele>
        <time>2015-10-24T13:05:30Z</time>
      </trkpt>
      <trkpt lat="43.08253" lon="-0.39028">
        <ele>862.92</ele>
        <time>2015-10-24T13:05:32Z</time>
      </trkpt>
      <trkpt lat="43.08253" lon="-0.39045">
        <ele>865.8</ele>
        <time>2015-10-24T13:05:43Z</time>
      </trkpt>
      <trkpt lat="43.08253" lon="-0.39059">
        <ele>870.13</ele>
        <time>2015-10-24T13:05:53Z</time>
      </trkpt>
      <trkpt lat="43.08255" lon="-0.39066">
        <ele>871.09</ele>
        <time>2015-10-24T13:05:58Z</time>
      </trkpt>
      <trkpt lat="43.08256" lon="-0.3907">
        <ele>871.09</ele>
        <time>2015-10-24T13:06:01Z</time>
      </trkpt>
      <trkpt lat="43.08258" lon="-0.39083">
        <ele>871.57</ele>
        <time>2015-10-24T13:06:10Z</time>
      </trkpt>
      <trkpt lat="43.08258" lon="-0.3909">
        <ele>873.5</ele>
        <time>2015-10-24T13:06:15Z</time>
      </trkpt>
      <trkpt lat="43.08259" lon="-0.39102">
        <ele>875.42</ele>
        <time>2015-10-24T13:06:24Z</time>
      </trkpt>
      <trkpt lat="43.08258" lon="-0.39121">
        <ele>878.3</ele>
        <time>2015-10-24T13:06:37Z</time>
      </trkpt>
      <trkpt lat="43.08259" lon="-0.39138">
        <ele>881.67</ele>
        <time>2015-10-24T13:06:49Z</time>
      </trkpt>
      <trkpt lat="43.08259" lon="-0.3914">
        <ele>881.67</ele>
        <time>2015-10-24T13:06:50Z</time>
      </trkpt>
      <trkpt lat="43.08259" lon="-0.39143">
        <ele>882.15</ele>
        <time>2015-10-24T13:06:52Z</time>
      </trkpt>
      <trkpt lat="43.08257" lon="-0.39164">
        <ele>882.63</ele>
        <time>2015-10-24T13:07:06Z</time>
      </trkpt>
      <trkpt lat="43.08258" lon="-0.3917">
        <ele>883.11</ele>
        <time>2015-10-24T13:07:11Z</time>
      </trkpt>
      <trkpt lat="43.08256" lon="-0.3918">
        <ele>884.55</ele>
        <time>2015-10-24T13:07:18Z</time>
      </trkpt>
      <trkpt lat="43.08257" lon="-0.39185">
        <ele>885.51</ele>
        <time>2015-10-24T13:07:21Z</time>
      </trkpt>
      <trkpt lat="43.08257" lon="-0.39191">
        <ele>887.43</ele>
        <time>2015-10-24T13:07:26Z</time>
      </trkpt>
      <trkpt lat="43.08258" lon="-0.39197">
        <ele>888.88</ele>
        <time>2015-10-24T13:07:30Z</time>
      </trkpt>
      <trkpt lat="43.08257" lon="-0.392">
        <ele>888.88</ele>
        <time>2015-10-24T13:07:32Z</time>
      </trkpt>
      <trkpt lat="43.08255" lon="-0.39211">
        <ele>889.36</ele>
        <time>2015-10-24T13:07:40Z</time>
      </trkpt>
      <trkpt lat="43.08258" lon="-0.39232">
        <ele>888.4</ele>
        <time>2015-10-24T13:07:52Z</time>
      </trkpt>
      <trkpt lat="43.08261" lon="-0.3924">
        <ele>889.36</ele>
        <time>2015-10-24T13:07:58Z</time>
      </trkpt>
      <trkpt lat="43.08268" lon="-0.39262">
        <ele>889.36</ele>
        <time>2015-10-24T13:08:12Z</time>
      </trkpt>
      <trkpt lat="43.08268" lon="-0.39277">
        <ele>891.28</ele>
        <time>2015-10-24T13:08:20Z</time>
      </trkpt>
      <trkpt lat="43.08267" lon="-0.39295">
        <ele>891.28</ele>
        <time>2015-10-24T13:08:31Z</time>
      </trkpt>
      <trkpt lat="43.08268" lon="-0.39305">
        <ele>892.72</ele>
        <time>2015-10-24T13:08:36Z</time>
      </trkpt>
      <trkpt lat="43.08268" lon="-0.39308">
        <ele>892.72</ele>
        <time>2015-10-24T13:08:38Z</time>
      </trkpt>
      <trkpt lat="43.08264" lon="-0.39331">
        <ele>894.64</ele>
        <time>2015-10-24T13:08:50Z</time>
      </trkpt>
      <trkpt lat="43.0826" lon="-0.39339">
        <ele>894.16</ele>
        <time>2015-10-24T13:08:55Z</time>
      </trkpt>
      <trkpt lat="43.08257" lon="-0.39352">
        <ele>895.12</ele>
        <time>2015-10-24T13:09:03Z</time>
      </trkpt>
      <trkpt lat="43.0825" lon="-0.3937">
        <ele>896.57</ele>
        <time>2015-10-24T13:09:15Z</time>
      </trkpt>
      <trkpt lat="43.08248" lon="-0.39374">
        <ele>895.61</ele>
        <time>2015-10-24T13:09:17Z</time>
      </trkpt>
      <trkpt lat="43.08243" lon="-0.39395">
        <ele>893.68</ele>
        <time>2015-10-24T13:09:27Z</time>
      </trkpt>
      <trkpt lat="43.08233" lon="-0.39432">
        <ele>893.2</ele>
        <time>2015-10-24T13:09:37Z</time>
      </trkpt>
      <trkpt lat="43.08231" lon="-0.39437">
        <ele>892.72</ele>
        <time>2015-10-24T13:09:38Z</time>
      </trkpt>
      <trkpt lat="43.08229" lon="-0.39443">
        <ele>892.24</ele>
        <time>2015-10-24T13:09:39Z</time>
      </trkpt>
      <trkpt lat="43.08228" lon="-0.39449">
        <ele>892.24</ele>
        <time>2015-10-24T13:09:40Z</time>
      </trkpt>
      <trkpt lat="43.08226" lon="-0.39456">
        <ele>891.76</ele>
        <time>2015-10-24T13:09:41Z</time>
      </trkpt>
      <trkpt lat="43.08224" lon="-0.39463">
        <ele>891.76</ele>
        <time>2015-10-24T13:09:42Z</time>
      </trkpt>
      <trkpt lat="43.08222" lon="-0.39471">
        <ele>891.28</ele>
        <time>2015-10-24T13:09:43Z</time>
      </trkpt>
      <trkpt lat="43.08219" lon="-0.39479">
        <ele>891.28</ele>
        <time>2015-10-24T13:09:44Z</time>
      </trkpt>
      <trkpt lat="43.08209" lon="-0.39518">
        <ele>888.4</ele>
        <time>2015-10-24T13:09:49Z</time>
      </trkpt>
      <trkpt lat="43.08206" lon="-0.39525">
        <ele>887.91</ele>
        <time>2015-10-24T13:09:50Z</time>
      </trkpt>
      <trkpt lat="43.08201" lon="-0.39539">
        <ele>886.95</ele>
        <time>2015-10-24T13:09:52Z</time>
      </trkpt>
      <trkpt lat="43.08198" lon="-0.39545">
        <ele>885.99</ele>
        <time>2015-10-24T13:09:53Z</time>
      </trkpt>
      <trkpt lat="43.08196" lon="-0.39551">
        <ele>885.51</ele>
        <time>2015-10-24T13:09:54Z</time>
      </trkpt>
      <trkpt lat="43.08193" lon="-0.39555">
        <ele>885.51</ele>
        <time>2015-10-24T13:09:55Z</time>
      </trkpt>
      <trkpt lat="43.08192" lon="-0.3956">
        <ele>885.03</ele>
        <time>2015-10-24T13:09:56Z</time>
      </trkpt>
      <trkpt lat="43.0819" lon="-0.39566">
        <ele>884.55</ele>
        <time>2015-10-24T13:09:57Z</time>
      </trkpt>
      <trkpt lat="43.08188" lon="-0.39572">
        <ele>884.07</ele>
        <time>2015-10-24T13:09:58Z</time>
      </trkpt>
      <trkpt lat="43.08186" lon="-0.39579">
        <ele>884.07</ele>
        <time>2015-10-24T13:09:59Z</time>
      </trkpt>
      <trkpt lat="43.08179" lon="-0.39608">
        <ele>882.15</ele>
        <time>2015-10-24T13:10:04Z</time>
      </trkpt>
      <trkpt lat="43.08176" lon="-0.3962">
        <ele>881.19</ele>
        <time>2015-10-24T13:10:06Z</time>
      </trkpt>
      <trkpt lat="43.08174" lon="-0.39625">
        <ele>880.71</ele>
        <time>2015-10-24T13:10:07Z</time>
      </trkpt>
      <trkpt lat="43.08174" lon="-0.39629">
        <ele>880.22</ele>
        <time>2015-10-24T13:10:08Z</time>
      </trkpt>
      <trkpt lat="43.08173" lon="-0.39633">
        <ele>879.74</ele>
        <time>2015-10-24T13:10:09Z</time>
      </trkpt>
      <trkpt lat="43.08172" lon="-0.39637">
        <ele>879.74</ele>
        <time>2015-10-24T13:10:10Z</time>
      </trkpt>
      <trkpt lat="43.08171" lon="-0.39642">
        <ele>878.78</ele>
        <time>2015-10-24T13:10:11Z</time>
      </trkpt>
      <trkpt lat="43.08169" lon="-0.39649">
        <ele>875.42</ele>
        <time>2015-10-24T13:10:16Z</time>
      </trkpt>
      <trkpt lat="43.08169" lon="-0.39651">
        <ele>874.46</ele>
        <time>2015-10-24T13:10:17Z</time>
      </trkpt>
      <trkpt lat="43.08171" lon="-0.39685">
        <ele>869.17</ele>
        <time>2015-10-24T13:10:24Z</time>
      </trkpt>
      <trkpt lat="43.08172" lon="-0.39691">
        <ele>868.21</ele>
        <time>2015-10-24T13:10:25Z</time>
      </trkpt>
      <trkpt lat="43.08172" lon="-0.39703">
        <ele>867.25</ele>
        <time>2015-10-24T13:10:27Z</time>
      </trkpt>
      <trkpt lat="43.08171" lon="-0.39707">
        <ele>866.77</ele>
        <time>2015-10-24T13:10:28Z</time>
      </trkpt>
      <trkpt lat="43.08168" lon="-0.39719">
        <ele>867.73</ele>
        <time>2015-10-24T13:10:32Z</time>
      </trkpt>
      <trkpt lat="43.08168" lon="-0.39721">
        <ele>868.21</ele>
        <time>2015-10-24T13:10:33Z</time>
      </trkpt>
      <trkpt lat="43.08167" lon="-0.39724">
        <ele>868.69</ele>
        <time>2015-10-24T13:10:34Z</time>
      </trkpt>
      <trkpt lat="43.08167" lon="-0.39726">
        <ele>869.17</ele>
        <time>2015-10-24T13:10:35Z</time>
      </trkpt>
      <trkpt lat="43.08167" lon="-0.39729">
        <ele>869.65</ele>
        <time>2015-10-24T13:10:36Z</time>
      </trkpt>
      <trkpt lat="43.08167" lon="-0.39732">
        <ele>870.13</ele>
        <time>2015-10-24T13:10:37Z</time>
      </trkpt>
      <trkpt lat="43.08167" lon="-0.39735">
        <ele>870.61</ele>
        <time>2015-10-24T13:10:38Z</time>
      </trkpt>
      <trkpt lat="43.08168" lon="-0.39738">
        <ele>871.09</ele>
        <time>2015-10-24T13:10:39Z</time>
      </trkpt>
      <trkpt lat="43.08169" lon="-0.3974">
        <ele>871.57</ele>
        <time>2015-10-24T13:10:40Z</time>
      </trkpt>
      <trkpt lat="43.08169" lon="-0.39742">
        <ele>872.05</ele>
        <time>2015-10-24T13:10:41Z</time>
      </trkpt>
      <trkpt lat="43.08169" lon="-0.39744">
        <ele>872.05</ele>
        <time>2015-10-24T13:10:53Z</time>
      </trkpt>
      <trkpt lat="43.08169" lon="-0.39745">
        <ele>874.94</ele>
        <time>2015-10-24T13:11:07Z</time>
      </trkpt>
      <trkpt lat="43.08169" lon="-0.39747">
        <ele>873.98</ele>
        <time>2015-10-24T13:11:21Z</time>
      </trkpt>
      <trkpt lat="43.08171" lon="-0.39748">
        <ele>874.46</ele>
        <time>2015-10-24T13:11:40Z</time>
      </trkpt>
      <trkpt lat="43.08174" lon="-0.39777">
        <ele>872.05</ele>
        <time>2015-10-24T13:11:49Z</time>
      </trkpt>
      <trkpt lat="43.08174" lon="-0.39783">
        <ele>871.09</ele>
        <time>2015-10-24T13:11:51Z</time>
      </trkpt>
      <trkpt lat="43.08175" lon="-0.39787">
        <ele>870.61</ele>
        <time>2015-10-24T13:11:52Z</time>
      </trkpt>
      <trkpt lat="43.08176" lon="-0.3979">
        <ele>870.13</ele>
        <time>2015-10-24T13:11:53Z</time>
      </trkpt>
      <trkpt lat="43.08176" lon="-0.39813">
        <ele>868.69</ele>
        <time>2015-10-24T13:12:02Z</time>
      </trkpt>
      <trkpt lat="43.08175" lon="-0.39812">
        <ele>867.73</ele>
        <time>2015-10-24T13:12:22Z</time>
      </trkpt>
      <trkpt lat="43.08174" lon="-0.39813">
        <ele>865.8</ele>
        <time>2015-10-24T13:12:39Z</time>
      </trkpt>
      <trkpt lat="43.08174" lon="-0.39812">
        <ele>865.32</ele>
        <time>2015-10-24T13:12:47Z</time>
      </trkpt>
      <trkpt lat="43.08175" lon="-0.39814">
        <ele>863.88</ele>
        <time>2015-10-24T13:12:58Z</time>
      </trkpt>
      <trkpt lat="43.08175" lon="-0.39814">
        <ele>863.88</ele>
        <time>2015-10-24T13:13:10Z</time>
      </trkpt>
      <trkpt lat="43.08173" lon="-0.39813">
        <ele>863.4</ele>
        <time>2015-10-24T13:13:20Z</time>
      </trkpt>
      <trkpt lat="43.08173" lon="-0.39815">
        <ele>864.84</ele>
        <time>2015-10-24T13:13:35Z</time>
      </trkpt>
      <trkpt lat="43.08173" lon="-0.39818">
        <ele>864.36</ele>
        <time>2015-10-24T13:13:36Z</time>
      </trkpt>
      <trkpt lat="43.08173" lon="-0.39821">
        <ele>863.88</ele>
        <time>2015-10-24T13:13:37Z</time>
      </trkpt>
      <trkpt lat="43.08173" lon="-0.39824">
        <ele>862.92</ele>
        <time>2015-10-24T13:13:38Z</time>
      </trkpt>
      <trkpt lat="43.08174" lon="-0.39827">
        <ele>861.96</ele>
        <time>2015-10-24T13:13:39Z</time>
      </trkpt>
      <trkpt lat="43.08174" lon="-0.3983">
        <ele>861</ele>
        <time>2015-10-24T13:13:40Z</time>
      </trkpt>
      <trkpt lat="43.08173" lon="-0.39834">
        <ele>860.04</ele>
        <time>2015-10-24T13:13:41Z</time>
      </trkpt>
      <trkpt lat="43.08172" lon="-0.39845">
        <ele>857.63</ele>
        <time>2015-10-24T13:13:43Z</time>
      </trkpt>
      <trkpt lat="43.08173" lon="-0.39852">
        <ele>856.67</ele>
        <time>2015-10-24T13:13:44Z</time>
      </trkpt>
      <trkpt lat="43.08172" lon="-0.39859">
        <ele>855.71</ele>
        <time>2015-10-24T13:13:45Z</time>
      </trkpt>
      <trkpt lat="43.08171" lon="-0.39864">
        <ele>854.75</ele>
        <time>2015-10-24T13:13:46Z</time>
      </trkpt>
      <trkpt lat="43.0817" lon="-0.39869">
        <ele>853.31</ele>
        <time>2015-10-24T13:13:47Z</time>
      </trkpt>
      <trkpt lat="43.08166" lon="-0.39898">
        <ele>847.54</ele>
        <time>2015-10-24T13:13:53Z</time>
      </trkpt>
      <trkpt lat="43.08164" lon="-0.39902">
        <ele>847.06</ele>
        <time>2015-10-24T13:13:54Z</time>
      </trkpt>
      <trkpt lat="43.08161" lon="-0.39938">
        <ele>838.41</ele>
        <time>2015-10-24T13:14:03Z</time>
      </trkpt>
      <trkpt lat="43.0816" lon="-0.3994">
        <ele>837.45</ele>
        <time>2015-10-24T13:14:04Z</time>
      </trkpt>
      <trkpt lat="43.0815" lon="-0.39971">
        <ele>835.04</ele>
        <time>2015-10-24T13:14:16Z</time>
      </trkpt>
      <trkpt lat="43.0815" lon="-0.39975">
        <ele>835.04</ele>
        <time>2015-10-24T13:14:18Z</time>
      </trkpt>
      <trkpt lat="43.08148" lon="-0.39977">
        <ele>835.04</ele>
        <time>2015-10-24T13:14:20Z</time>
      </trkpt>
      <trkpt lat="43.08146" lon="-0.39979">
        <ele>835.52</ele>
        <time>2015-10-24T13:14:21Z</time>
      </trkpt>
      <trkpt lat="43.08145" lon="-0.39982">
        <ele>835.52</ele>
        <time>2015-10-24T13:14:22Z</time>
      </trkpt>
      <trkpt lat="43.08143" lon="-0.39985">
        <ele>835.52</ele>
        <time>2015-10-24T13:14:23Z</time>
      </trkpt>
      <trkpt lat="43.08142" lon="-0.3999">
        <ele>835.52</ele>
        <time>2015-10-24T13:14:24Z</time>
      </trkpt>
      <trkpt lat="43.08142" lon="-0.39996">
        <ele>835.52</ele>
        <time>2015-10-24T13:14:25Z</time>
      </trkpt>
      <trkpt lat="43.0814" lon="-0.40018">
        <ele>835.04</ele>
        <time>2015-10-24T13:14:29Z</time>
      </trkpt>
      <trkpt lat="43.08141" lon="-0.40024">
        <ele>835.04</ele>
        <time>2015-10-24T13:14:30Z</time>
      </trkpt>
      <trkpt lat="43.08142" lon="-0.40032">
        <ele>835.04</ele>
        <time>2015-10-24T13:14:31Z</time>
      </trkpt>
      <trkpt lat="43.08143" lon="-0.4004">
        <ele>834.56</ele>
        <time>2015-10-24T13:14:32Z</time>
      </trkpt>
      <trkpt lat="43.08143" lon="-0.40048">
        <ele>834.56</ele>
        <time>2015-10-24T13:14:33Z</time>
      </trkpt>
      <trkpt lat="43.08147" lon="-0.40078">
        <ele>833.12</ele>
        <time>2015-10-24T13:14:37Z</time>
      </trkpt>
      <trkpt lat="43.08149" lon="-0.40092">
        <ele>833.12</ele>
        <time>2015-10-24T13:14:39Z</time>
      </trkpt>
      <trkpt lat="43.08154" lon="-0.40122">
        <ele>833.6</ele>
        <time>2015-10-24T13:14:43Z</time>
      </trkpt>
      <trkpt lat="43.08157" lon="-0.40129">
        <ele>834.08</ele>
        <time>2015-10-24T13:14:44Z</time>
      </trkpt>
      <trkpt lat="43.08162" lon="-0.40143">
        <ele>834.08</ele>
        <time>2015-10-24T13:14:46Z</time>
      </trkpt>
      <trkpt lat="43.08167" lon="-0.40164">
        <ele>834.08</ele>
        <time>2015-10-24T13:14:50Z</time>
      </trkpt>
      <trkpt lat="43.08176" lon="-0.40157">
        <ele>833.6</ele>
        <time>2015-10-24T13:14:54Z</time>
      </trkpt>
      <trkpt lat="43.08183" lon="-0.40156">
        <ele>830.24</ele>
        <time>2015-10-24T13:15:01Z</time>
      </trkpt>
      <trkpt lat="43.08205" lon="-0.40209">
        <ele>821.58</ele>
        <time>2015-10-24T13:15:11Z</time>
      </trkpt>
      <trkpt lat="43.08205" lon="-0.40213">
        <ele>821.1</ele>
        <time>2015-10-24T13:15:12Z</time>
      </trkpt>
      <trkpt lat="43.08217" lon="-0.40216">
        <ele>816.78</ele>
        <time>2015-10-24T13:15:19Z</time>
      </trkpt>
      <trkpt lat="43.0822" lon="-0.40236">
        <ele>812.93</ele>
        <time>2015-10-24T13:15:25Z</time>
      </trkpt>
      <trkpt lat="43.0824" lon="-0.40234">
        <ele>808.61</ele>
        <time>2015-10-24T13:15:33Z</time>
      </trkpt>
      <trkpt lat="43.08247" lon="-0.40249">
        <ele>807.64</ele>
        <time>2015-10-24T13:15:40Z</time>
      </trkpt>
      <trkpt lat="43.08243" lon="-0.40264">
        <ele>807.16</ele>
        <time>2015-10-24T13:15:44Z</time>
      </trkpt>
      <trkpt lat="43.08244" lon="-0.40267">
        <ele>806.68</ele>
        <time>2015-10-24T13:15:47Z</time>
      </trkpt>
      <trkpt lat="43.08247" lon="-0.40278">
        <ele>805.72</ele>
        <time>2015-10-24T13:15:51Z</time>
      </trkpt>
      <trkpt lat="43.08242" lon="-0.40291">
        <ele>804.76</ele>
        <time>2015-10-24T13:15:54Z</time>
      </trkpt>
      <trkpt lat="43.0821" lon="-0.40327">
        <ele>798.99</ele>
        <time>2015-10-24T13:16:02Z</time>
      </trkpt>
      <trkpt lat="43.08186" lon="-0.40347">
        <ele>790.82</ele>
        <time>2015-10-24T13:16:12Z</time>
      </trkpt>
      <trkpt lat="43.08181" lon="-0.40349">
        <ele>789.38</ele>
        <time>2015-10-24T13:16:14Z</time>
      </trkpt>
      <trkpt lat="43.0817" lon="-0.4035">
        <ele>784.57</ele>
        <time>2015-10-24T13:16:21Z</time>
      </trkpt>
      <trkpt lat="43.08174" lon="-0.40357">
        <ele>782.65</ele>
        <time>2015-10-24T13:16:25Z</time>
      </trkpt>
      <trkpt lat="43.08174" lon="-0.40363">
        <ele>779.77</ele>
        <time>2015-10-24T13:16:36Z</time>
      </trkpt>
      <trkpt lat="43.08179" lon="-0.40367">
        <ele>778.32</ele>
        <time>2015-10-24T13:16:51Z</time>
      </trkpt>
      <trkpt lat="43.08186" lon="-0.40373">
        <ele>775.92</ele>
        <time>2015-10-24T13:16:56Z</time>
      </trkpt>
      <trkpt lat="43.08185" lon="-0.40376">
        <ele>774.48</ele>
        <time>2015-10-24T13:16:59Z</time>
      </trkpt>
      <trkpt lat="43.08181" lon="-0.40378">
        <ele>773.04</ele>
        <time>2015-10-24T13:17:02Z</time>
      </trkpt>
      <trkpt lat="43.08178" lon="-0.4038">
        <ele>772.56</ele>
        <time>2015-10-24T13:17:05Z</time>
      </trkpt>
      <trkpt lat="43.08193" lon="-0.40392">
        <ele>771.6</ele>
        <time>2015-10-24T13:17:14Z</time>
      </trkpt>
      <trkpt lat="43.08218" lon="-0.40414">
        <ele>765.83</ele>
        <time>2015-10-24T13:17:24Z</time>
      </trkpt>
      <trkpt lat="43.08209" lon="-0.40423">
        <ele>759.58</ele>
        <time>2015-10-24T13:17:30Z</time>
      </trkpt>
      <trkpt lat="43.08202" lon="-0.40426">
        <ele>757.66</ele>
        <time>2015-10-24T13:17:32Z</time>
      </trkpt>
      <trkpt lat="43.08195" lon="-0.40428">
        <ele>754.77</ele>
        <time>2015-10-24T13:17:38Z</time>
      </trkpt>
      <trkpt lat="43.08209" lon="-0.40438">
        <ele>752.37</ele>
        <time>2015-10-24T13:17:45Z</time>
      </trkpt>
      <trkpt lat="43.08212" lon="-0.40444">
        <ele>750.93</ele>
        <time>2015-10-24T13:17:51Z</time>
      </trkpt>
      <trkpt lat="43.08208" lon="-0.40446">
        <ele>749.49</ele>
        <time>2015-10-24T13:17:53Z</time>
      </trkpt>
      <trkpt lat="43.08192" lon="-0.40453">
        <ele>748.04</ele>
        <time>2015-10-24T13:17:58Z</time>
      </trkpt>
      <trkpt lat="43.08188" lon="-0.40454">
        <ele>747.56</ele>
        <time>2015-10-24T13:18:00Z</time>
      </trkpt>
      <trkpt lat="43.08192" lon="-0.40463">
        <ele>744.68</ele>
        <time>2015-10-24T13:18:07Z</time>
      </trkpt>
      <trkpt lat="43.08207" lon="-0.40479">
        <ele>740.35</ele>
        <time>2015-10-24T13:18:16Z</time>
      </trkpt>
      <trkpt lat="43.08192" lon="-0.40489">
        <ele>734.1</ele>
        <time>2015-10-24T13:18:24Z</time>
      </trkpt>
      <trkpt lat="43.08191" lon="-0.40489">
        <ele>733.62</ele>
        <time>2015-10-24T13:18:25Z</time>
      </trkpt>
      <trkpt lat="43.0821" lon="-0.40509">
        <ele>731.7</ele>
        <time>2015-10-24T13:18:32Z</time>
      </trkpt>
      <trkpt lat="43.08215" lon="-0.40511">
        <ele>731.7</ele>
        <time>2015-10-24T13:18:33Z</time>
      </trkpt>
      <trkpt lat="43.08229" lon="-0.40519">
        <ele>730.74</ele>
        <time>2015-10-24T13:18:38Z</time>
      </trkpt>
      <trkpt lat="43.08222" lon="-0.40525">
        <ele>729.78</ele>
        <time>2015-10-24T13:18:43Z</time>
      </trkpt>
      <trkpt lat="43.08211" lon="-0.40529">
        <ele>728.34</ele>
        <time>2015-10-24T13:18:48Z</time>
      </trkpt>
      <trkpt lat="43.08217" lon="-0.40537">
        <ele>723.53</ele>
        <time>2015-10-24T13:18:56Z</time>
      </trkpt>
      <trkpt lat="43.08216" lon="-0.40538">
        <ele>721.13</ele>
        <time>2015-10-24T13:18:59Z</time>
      </trkpt>
      <trkpt lat="43.08203" lon="-0.40546">
        <ele>719.2</ele>
        <time>2015-10-24T13:19:04Z</time>
      </trkpt>
      <trkpt lat="43.08199" lon="-0.40552">
        <ele>718.24</ele>
        <time>2015-10-24T13:19:08Z</time>
      </trkpt>
      <trkpt lat="43.08211" lon="-0.4057">
        <ele>708.15</ele>
        <time>2015-10-24T13:19:17Z</time>
      </trkpt>
      <trkpt lat="43.08211" lon="-0.40573">
        <ele>706.71</ele>
        <time>2015-10-24T13:19:19Z</time>
      </trkpt>
      <trkpt lat="43.08203" lon="-0.40576">
        <ele>702.86</ele>
        <time>2015-10-24T13:19:23Z</time>
      </trkpt>
      <trkpt lat="43.08189" lon="-0.40583">
        <ele>700.46</ele>
        <time>2015-10-24T13:19:27Z</time>
      </trkpt>
      <trkpt lat="43.08177" lon="-0.40586">
        <ele>698.05</ele>
        <time>2015-10-24T13:19:32Z</time>
      </trkpt>
      <trkpt lat="43.08185" lon="-0.40597">
        <ele>693.25</ele>
        <time>2015-10-24T13:19:37Z</time>
      </trkpt>
      <trkpt lat="43.08198" lon="-0.40611">
        <ele>689.4</ele>
        <time>2015-10-24T13:19:42Z</time>
      </trkpt>
      <trkpt lat="43.08218" lon="-0.40629">
        <ele>682.19</ele>
        <time>2015-10-24T13:19:50Z</time>
      </trkpt>
      <trkpt lat="43.08221" lon="-0.40637">
        <ele>677.39</ele>
        <time>2015-10-24T13:19:57Z</time>
      </trkpt>
      <trkpt lat="43.08206" lon="-0.40644">
        <ele>674.5</ele>
        <time>2015-10-24T13:20:04Z</time>
      </trkpt>
      <trkpt lat="43.08186" lon="-0.40659">
        <ele>669.7</ele>
        <time>2015-10-24T13:20:16Z</time>
      </trkpt>
      <trkpt lat="43.08166" lon="-0.40664">
        <ele>668.73</ele>
        <time>2015-10-24T13:20:24Z</time>
      </trkpt>
      <trkpt lat="43.08184" lon="-0.40685">
        <ele>666.81</ele>
        <time>2015-10-24T13:20:32Z</time>
      </trkpt>
      <trkpt lat="43.082" lon="-0.40699">
        <ele>665.37</ele>
        <time>2015-10-24T13:20:38Z</time>
      </trkpt>
      <trkpt lat="43.08187" lon="-0.40705">
        <ele>661.04</ele>
        <time>2015-10-24T13:20:46Z</time>
      </trkpt>
      <trkpt lat="43.08182" lon="-0.40707">
        <ele>659.6</ele>
        <time>2015-10-24T13:20:49Z</time>
      </trkpt>
      <trkpt lat="43.08181" lon="-0.40708">
        <ele>659.12</ele>
        <time>2015-10-24T13:20:51Z</time>
      </trkpt>
      <trkpt lat="43.08194" lon="-0.40725">
        <ele>652.39</ele>
        <time>2015-10-24T13:21:02Z</time>
      </trkpt>
      <trkpt lat="43.08218" lon="-0.40754">
        <ele>648.55</ele>
        <time>2015-10-24T13:21:12Z</time>
      </trkpt>
      <trkpt lat="43.08224" lon="-0.40772">
        <ele>642.78</ele>
        <time>2015-10-24T13:21:20Z</time>
      </trkpt>
      <trkpt lat="43.08224" lon="-0.40774">
        <ele>642.78</ele>
        <time>2015-10-24T13:21:22Z</time>
      </trkpt>
      <trkpt lat="43.0822" lon="-0.40774">
        <ele>642.3</ele>
        <time>2015-10-24T13:21:24Z</time>
      </trkpt>
      <trkpt lat="43.08217" lon="-0.40773">
        <ele>642.3</ele>
        <time>2015-10-24T13:21:25Z</time>
      </trkpt>
      <trkpt lat="43.08204" lon="-0.4077">
        <ele>641.82</ele>
        <time>2015-10-24T13:21:28Z</time>
      </trkpt>
      <trkpt lat="43.08199" lon="-0.4077">
        <ele>641.82</ele>
        <time>2015-10-24T13:21:29Z</time>
      </trkpt>
      <trkpt lat="43.08195" lon="-0.4077">
        <ele>641.82</ele>
        <time>2015-10-24T13:21:30Z</time>
      </trkpt>
      <trkpt lat="43.08185" lon="-0.40776">
        <ele>639.41</ele>
        <time>2015-10-24T13:21:37Z</time>
      </trkpt>
      <trkpt lat="43.08176" lon="-0.40794">
        <ele>638.93</ele>
        <time>2015-10-24T13:21:44Z</time>
      </trkpt>
      <trkpt lat="43.08179" lon="-0.40806">
        <ele>638.93</ele>
        <time>2015-10-24T13:21:47Z</time>
      </trkpt>
      <trkpt lat="43.08179" lon="-0.40813">
        <ele>639.41</ele>
        <time>2015-10-24T13:21:48Z</time>
      </trkpt>
      <trkpt lat="43.08179" lon="-0.40819">
        <ele>639.41</ele>
        <time>2015-10-24T13:21:49Z</time>
      </trkpt>
      <trkpt lat="43.08177" lon="-0.40825">
        <ele>639.41</ele>
        <time>2015-10-24T13:21:50Z</time>
      </trkpt>
      <trkpt lat="43.08174" lon="-0.40831">
        <ele>639.41</ele>
        <time>2015-10-24T13:21:51Z</time>
      </trkpt>
      <trkpt lat="43.08171" lon="-0.40837">
        <ele>639.41</ele>
        <time>2015-10-24T13:21:52Z</time>
      </trkpt>
      <trkpt lat="43.08165" lon="-0.40858">
        <ele>634.13</ele>
        <time>2015-10-24T13:21:57Z</time>
      </trkpt>
      <trkpt lat="43.08166" lon="-0.4086">
        <ele>633.17</ele>
        <time>2015-10-24T13:21:58Z</time>
      </trkpt>
      <trkpt lat="43.08168" lon="-0.40862">
        <ele>632.2</ele>
        <time>2015-10-24T13:21:59Z</time>
      </trkpt>
      <trkpt lat="43.08171" lon="-0.40862">
        <ele>631.72</ele>
        <time>2015-10-24T13:22:00Z</time>
      </trkpt>
      <trkpt lat="43.08174" lon="-0.40864">
        <ele>630.76</ele>
        <time>2015-10-24T13:22:01Z</time>
      </trkpt>
      <trkpt lat="43.08178" lon="-0.40868">
        <ele>629.32</ele>
        <time>2015-10-24T13:22:02Z</time>
      </trkpt>
      <trkpt lat="43.08196" lon="-0.40886">
        <ele>617.78</ele>
        <time>2015-10-24T13:22:08Z</time>
      </trkpt>
      <trkpt lat="43.08206" lon="-0.40905">
        <ele>601.44</ele>
        <time>2015-10-24T13:22:16Z</time>
      </trkpt>
      <trkpt lat="43.08215" lon="-0.40905">
        <ele>595.19</ele>
        <time>2015-10-24T13:22:20Z</time>
      </trkpt>
      <trkpt lat="43.08213" lon="-0.4091">
        <ele>592.79</ele>
        <time>2015-10-24T13:22:22Z</time>
      </trkpt>
      <trkpt lat="43.0822" lon="-0.40919">
        <ele>587.02</ele>
        <time>2015-10-24T13:22:26Z</time>
      </trkpt>
      <trkpt lat="43.08225" lon="-0.40925">
        <ele>584.14</ele>
        <time>2015-10-24T13:22:28Z</time>
      </trkpt>
      <trkpt lat="43.08229" lon="-0.40941">
        <ele>580.77</ele>
        <time>2015-10-24T13:22:31Z</time>
      </trkpt>
      <trkpt lat="43.08229" lon="-0.40948">
        <ele>579.33</ele>
        <time>2015-10-24T13:22:32Z</time>
      </trkpt>
      <trkpt lat="43.08228" lon="-0.40963">
        <ele>576.45</ele>
        <time>2015-10-24T13:22:34Z</time>
      </trkpt>
      <trkpt lat="43.08226" lon="-0.4097">
        <ele>575.01</ele>
        <time>2015-10-24T13:22:35Z</time>
      </trkpt>
      <trkpt lat="43.08222" lon="-0.40982">
        <ele>571.16</ele>
        <time>2015-10-24T13:22:38Z</time>
      </trkpt>
      <trkpt lat="43.08224" lon="-0.40984">
        <ele>569.72</ele>
        <time>2015-10-24T13:22:39Z</time>
      </trkpt>
      <trkpt lat="43.08226" lon="-0.40986">
        <ele>568.28</ele>
        <time>2015-10-24T13:22:40Z</time>
      </trkpt>
      <trkpt lat="43.08228" lon="-0.40988">
        <ele>566.83</ele>
        <time>2015-10-24T13:22:41Z</time>
      </trkpt>
      <trkpt lat="43.0823" lon="-0.40991">
        <ele>565.39</ele>
        <time>2015-10-24T13:22:42Z</time>
      </trkpt>
      <trkpt lat="43.08229" lon="-0.40995">
        <ele>564.43</ele>
        <time>2015-10-24T13:22:43Z</time>
      </trkpt>
      <trkpt lat="43.08229" lon="-0.40999">
        <ele>562.99</ele>
        <time>2015-10-24T13:22:44Z</time>
      </trkpt>
      <trkpt lat="43.08225" lon="-0.41019">
        <ele>557.22</ele>
        <time>2015-10-24T13:22:50Z</time>
      </trkpt>
      <trkpt lat="43.08226" lon="-0.41025">
        <ele>556.26</ele>
        <time>2015-10-24T13:22:51Z</time>
      </trkpt>
      <trkpt lat="43.08227" lon="-0.41032">
        <ele>554.34</ele>
        <time>2015-10-24T13:22:52Z</time>
      </trkpt>
      <trkpt lat="43.08228" lon="-0.41039">
        <ele>552.9</ele>
        <time>2015-10-24T13:22:53Z</time>
      </trkpt>
      <trkpt lat="43.0823" lon="-0.41044">
        <ele>550.49</ele>
        <time>2015-10-24T13:22:54Z</time>
      </trkpt>
      <trkpt lat="43.08233" lon="-0.41049">
        <ele>549.05</ele>
        <time>2015-10-24T13:22:55Z</time>
      </trkpt>
      <trkpt lat="43.08236" lon="-0.41065">
        <ele>544.72</ele>
        <time>2015-10-24T13:22:58Z</time>
      </trkpt>
      <trkpt lat="43.08236" lon="-0.41071">
        <ele>543.76</ele>
        <time>2015-10-24T13:22:59Z</time>
      </trkpt>
      <trkpt lat="43.08234" lon="-0.41078">
        <ele>542.8</ele>
        <time>2015-10-24T13:23:00Z</time>
      </trkpt>
      <trkpt lat="43.08232" lon="-0.41084">
        <ele>541.36</ele>
        <time>2015-10-24T13:23:01Z</time>
      </trkpt>
      <trkpt lat="43.08229" lon="-0.41089">
        <ele>540.4</ele>
        <time>2015-10-24T13:23:02Z</time>
      </trkpt>
      <trkpt lat="43.08226" lon="-0.41093">
        <ele>538.96</ele>
        <time>2015-10-24T13:23:03Z</time>
      </trkpt>
      <trkpt lat="43.08223" lon="-0.41096">
        <ele>537.99</ele>
        <time>2015-10-24T13:23:04Z</time>
      </trkpt>
      <trkpt lat="43.08221" lon="-0.41098">
        <ele>536.55</ele>
        <time>2015-10-24T13:23:05Z</time>
      </trkpt>
      <trkpt lat="43.08221" lon="-0.41101">
        <ele>535.59</ele>
        <time>2015-10-24T13:23:06Z</time>
      </trkpt>
      <trkpt lat="43.08222" lon="-0.41105">
        <ele>534.15</ele>
        <time>2015-10-24T13:23:07Z</time>
      </trkpt>
      <trkpt lat="43.08223" lon="-0.41109">
        <ele>532.71</ele>
        <time>2015-10-24T13:23:08Z</time>
      </trkpt>
      <trkpt lat="43.08227" lon="-0.41113">
        <ele>531.27</ele>
        <time>2015-10-24T13:23:09Z</time>
      </trkpt>
      <trkpt lat="43.08231" lon="-0.41116">
        <ele>530.3</ele>
        <time>2015-10-24T13:23:10Z</time>
      </trkpt>
      <trkpt lat="43.08236" lon="-0.41118">
        <ele>528.86</ele>
        <time>2015-10-24T13:23:11Z</time>
      </trkpt>
      <trkpt lat="43.08241" lon="-0.41118">
        <ele>528.38</ele>
        <time>2015-10-24T13:23:12Z</time>
      </trkpt>
      <trkpt lat="43.08246" lon="-0.41118">
        <ele>527.42</ele>
        <time>2015-10-24T13:23:13Z</time>
      </trkpt>
      <trkpt lat="43.0825" lon="-0.41118">
        <ele>526.94</ele>
        <time>2015-10-24T13:23:14Z</time>
      </trkpt>
      <trkpt lat="43.08254" lon="-0.4112">
        <ele>525.98</ele>
        <time>2015-10-24T13:23:15Z</time>
      </trkpt>
      <trkpt lat="43.08257" lon="-0.41124">
        <ele>525.02</ele>
        <time>2015-10-24T13:23:16Z</time>
      </trkpt>
      <trkpt lat="43.08259" lon="-0.41129">
        <ele>524.54</ele>
        <time>2015-10-24T13:23:17Z</time>
      </trkpt>
      <trkpt lat="43.08262" lon="-0.41139">
        <ele>523.09</ele>
        <time>2015-10-24T13:23:19Z</time>
      </trkpt>
      <trkpt lat="43.08261" lon="-0.41146">
        <ele>522.13</ele>
        <time>2015-10-24T13:23:20Z</time>
      </trkpt>
      <trkpt lat="43.08258" lon="-0.41153">
        <ele>521.65</ele>
        <time>2015-10-24T13:23:21Z</time>
      </trkpt>
      <trkpt lat="43.08254" lon="-0.4116">
        <ele>521.17</ele>
        <time>2015-10-24T13:23:22Z</time>
      </trkpt>
      <trkpt lat="43.08251" lon="-0.41165">
        <ele>520.69</ele>
        <time>2015-10-24T13:23:23Z</time>
      </trkpt>
      <trkpt lat="43.08248" lon="-0.41171">
        <ele>520.21</ele>
        <time>2015-10-24T13:23:24Z</time>
      </trkpt>
      <trkpt lat="43.08248" lon="-0.41176">
        <ele>519.25</ele>
        <time>2015-10-24T13:23:25Z</time>
      </trkpt>
      <trkpt lat="43.0825" lon="-0.4118">
        <ele>518.77</ele>
        <time>2015-10-24T13:23:26Z</time>
      </trkpt>
      <trkpt lat="43.08253" lon="-0.41183">
        <ele>518.29</ele>
        <time>2015-10-24T13:23:27Z</time>
      </trkpt>
      <trkpt lat="43.08258" lon="-0.41185">
        <ele>517.33</ele>
        <time>2015-10-24T13:23:28Z</time>
      </trkpt>
      <trkpt lat="43.08263" lon="-0.41186">
        <ele>516.37</ele>
        <time>2015-10-24T13:23:29Z</time>
      </trkpt>
      <trkpt lat="43.08268" lon="-0.41187">
        <ele>515.88</ele>
        <time>2015-10-24T13:23:30Z</time>
      </trkpt>
      <trkpt lat="43.08272" lon="-0.41188">
        <ele>514.92</ele>
        <time>2015-10-24T13:23:31Z</time>
      </trkpt>
      <trkpt lat="43.08275" lon="-0.4119">
        <ele>513.96</ele>
        <time>2015-10-24T13:23:32Z</time>
      </trkpt>
      <trkpt lat="43.08277" lon="-0.41194">
        <ele>512.52</ele>
        <time>2015-10-24T13:23:33Z</time>
      </trkpt>
      <trkpt lat="43.08277" lon="-0.412">
        <ele>511.56</ele>
        <time>2015-10-24T13:23:34Z</time>
      </trkpt>
      <trkpt lat="43.08276" lon="-0.41206">
        <ele>510.6</ele>
        <time>2015-10-24T13:23:35Z</time>
      </trkpt>
      <trkpt lat="43.08274" lon="-0.41267">
        <ele>501.46</ele>
        <time>2015-10-24T13:23:41Z</time>
      </trkpt>
      <trkpt lat="43.08276" lon="-0.41279">
        <ele>500.02</ele>
        <time>2015-10-24T13:23:42Z</time>
      </trkpt>
      <trkpt lat="43.0828" lon="-0.41301">
        <ele>496.66</ele>
        <time>2015-10-24T13:23:44Z</time>
      </trkpt>
      <trkpt lat="43.08283" lon="-0.41311">
        <ele>494.74</ele>
        <time>2015-10-24T13:23:45Z</time>
      </trkpt>
      <trkpt lat="43.08287" lon="-0.41319">
        <ele>492.81</ele>
        <time>2015-10-24T13:23:46Z</time>
      </trkpt>
      <trkpt lat="43.08289" lon="-0.41326">
        <ele>491.37</ele>
        <time>2015-10-24T13:23:47Z</time>
      </trkpt>
      <trkpt lat="43.0829" lon="-0.41333">
        <ele>489.93</ele>
        <time>2015-10-24T13:23:48Z</time>
      </trkpt>
      <trkpt lat="43.0829" lon="-0.41339">
        <ele>488.49</ele>
        <time>2015-10-24T13:23:49Z</time>
      </trkpt>
      <trkpt lat="43.08288" lon="-0.41345">
        <ele>487.05</ele>
        <time>2015-10-24T13:23:50Z</time>
      </trkpt>
      <trkpt lat="43.08285" lon="-0.41351">
        <ele>485.12</ele>
        <time>2015-10-24T13:23:51Z</time>
      </trkpt>
      <trkpt lat="43.08281" lon="-0.41353">
        <ele>483.68</ele>
        <time>2015-10-24T13:23:52Z</time>
      </trkpt>
      <trkpt lat="43.08278" lon="-0.41352">
        <ele>481.76</ele>
        <time>2015-10-24T13:23:53Z</time>
      </trkpt>
      <trkpt lat="43.08274" lon="-0.41348">
        <ele>480.8</ele>
        <time>2015-10-24T13:23:54Z</time>
      </trkpt>
      <trkpt lat="43.0827" lon="-0.41345">
        <ele>480.32</ele>
        <time>2015-10-24T13:23:55Z</time>
      </trkpt>
      <trkpt lat="43.08267" lon="-0.41344">
        <ele>479.35</ele>
        <time>2015-10-24T13:23:56Z</time>
      </trkpt>
      <trkpt lat="43.08262" lon="-0.41347">
        <ele>478.87</ele>
        <time>2015-10-24T13:23:57Z</time>
      </trkpt>
      <trkpt lat="43.08259" lon="-0.41352">
        <ele>478.39</ele>
        <time>2015-10-24T13:23:58Z</time>
      </trkpt>
      <trkpt lat="43.08257" lon="-0.41359">
        <ele>477.91</ele>
        <time>2015-10-24T13:23:59Z</time>
      </trkpt>
      <trkpt lat="43.08258" lon="-0.41366">
        <ele>477.43</ele>
        <time>2015-10-24T13:24:00Z</time>
      </trkpt>
      <trkpt lat="43.0826" lon="-0.41373">
        <ele>476.47</ele>
        <time>2015-10-24T13:24:01Z</time>
      </trkpt>
      <trkpt lat="43.08264" lon="-0.4138">
        <ele>475.99</ele>
        <time>2015-10-24T13:24:02Z</time>
      </trkpt>
      <trkpt lat="43.08276" lon="-0.41407">
        <ele>474.07</ele>
        <time>2015-10-24T13:24:05Z</time>
      </trkpt>
      <trkpt lat="43.08282" lon="-0.41416">
        <ele>473.59</ele>
        <time>2015-10-24T13:24:06Z</time>
      </trkpt>
      <trkpt lat="43.08288" lon="-0.41423">
        <ele>473.11</ele>
        <time>2015-10-24T13:24:07Z</time>
      </trkpt>
      <trkpt lat="43.08294" lon="-0.41429">
        <ele>472.14</ele>
        <time>2015-10-24T13:24:08Z</time>
      </trkpt>
      <trkpt lat="43.083" lon="-0.41435">
        <ele>471.66</ele>
        <time>2015-10-24T13:24:09Z</time>
      </trkpt>
      <trkpt lat="43.08305" lon="-0.4144">
        <ele>470.7</ele>
        <time>2015-10-24T13:24:10Z</time>
      </trkpt>
      <trkpt lat="43.08315" lon="-0.41453">
        <ele>468.78</ele>
        <time>2015-10-24T13:24:12Z</time>
      </trkpt>
      <trkpt lat="43.08321" lon="-0.41457">
        <ele>467.34</ele>
        <time>2015-10-24T13:24:13Z</time>
      </trkpt>
      <trkpt lat="43.08328" lon="-0.4146">
        <ele>466.38</ele>
        <time>2015-10-24T13:24:14Z</time>
      </trkpt>
      <trkpt lat="43.08335" lon="-0.41463">
        <ele>464.93</ele>
        <time>2015-10-24T13:24:15Z</time>
      </trkpt>
      <trkpt lat="43.08342" lon="-0.41467">
        <ele>464.45</ele>
        <time>2015-10-24T13:24:16Z</time>
      </trkpt>
      <trkpt lat="43.08349" lon="-0.41473">
        <ele>463.01</ele>
        <time>2015-10-24T13:24:17Z</time>
      </trkpt>
      <trkpt lat="43.08355" lon="-0.4148">
        <ele>462.53</ele>
        <time>2015-10-24T13:24:18Z</time>
      </trkpt>
      <trkpt lat="43.08368" lon="-0.41497">
        <ele>460.61</ele>
        <time>2015-10-24T13:24:20Z</time>
      </trkpt>
      <trkpt lat="43.08374" lon="-0.41508">
        <ele>459.65</ele>
        <time>2015-10-24T13:24:21Z</time>
      </trkpt>
      <trkpt lat="43.08378" lon="-0.41519">
        <ele>458.21</ele>
        <time>2015-10-24T13:24:22Z</time>
      </trkpt>
      <trkpt lat="43.08383" lon="-0.41529">
        <ele>456.76</ele>
        <time>2015-10-24T13:24:23Z</time>
      </trkpt>
      <trkpt lat="43.08387" lon="-0.41538">
        <ele>455.8</ele>
        <time>2015-10-24T13:24:24Z</time>
      </trkpt>
      <trkpt lat="43.08392" lon="-0.41547">
        <ele>454.36</ele>
        <time>2015-10-24T13:24:25Z</time>
      </trkpt>
      <trkpt lat="43.08396" lon="-0.41557">
        <ele>452.92</ele>
        <time>2015-10-24T13:24:26Z</time>
      </trkpt>
      <trkpt lat="43.08399" lon="-0.41567">
        <ele>451.48</ele>
        <time>2015-10-24T13:24:27Z</time>
      </trkpt>
      <trkpt lat="43.08403" lon="-0.41579">
        <ele>450.52</ele>
        <time>2015-10-24T13:24:28Z</time>
      </trkpt>
      <trkpt lat="43.08412" lon="-0.41603">
        <ele>447.63</ele>
        <time>2015-10-24T13:24:30Z</time>
      </trkpt>
      <trkpt lat="43.08417" lon="-0.41614">
        <ele>446.19</ele>
        <time>2015-10-24T13:24:31Z</time>
      </trkpt>
      <trkpt lat="43.08423" lon="-0.41623">
        <ele>444.75</ele>
        <time>2015-10-24T13:24:32Z</time>
      </trkpt>
      <trkpt lat="43.08431" lon="-0.41631">
        <ele>443.79</ele>
        <time>2015-10-24T13:24:33Z</time>
      </trkpt>
      <trkpt lat="43.08439" lon="-0.41638">
        <ele>442.34</ele>
        <time>2015-10-24T13:24:34Z</time>
      </trkpt>
      <trkpt lat="43.08484" lon="-0.41683">
        <ele>435.13</ele>
        <time>2015-10-24T13:24:42Z</time>
      </trkpt>
      <trkpt lat="43.08506" lon="-0.41706">
        <ele>432.73</ele>
        <time>2015-10-24T13:24:47Z</time>
      </trkpt>
      <trkpt lat="43.0851" lon="-0.41712">
        <ele>432.73</ele>
        <time>2015-10-24T13:24:48Z</time>
      </trkpt>
      <trkpt lat="43.08513" lon="-0.41719">
        <ele>432.73</ele>
        <time>2015-10-24T13:24:49Z</time>
      </trkpt>
      <trkpt lat="43.08514" lon="-0.41727">
        <ele>433.21</ele>
        <time>2015-10-24T13:24:50Z</time>
      </trkpt>
      <trkpt lat="43.08514" lon="-0.41734">
        <ele>434.17</ele>
        <time>2015-10-24T13:24:51Z</time>
      </trkpt>
      <trkpt lat="43.08513" lon="-0.41741">
        <ele>434.65</ele>
        <time>2015-10-24T13:24:52Z</time>
      </trkpt>
      <trkpt lat="43.08514" lon="-0.41772">
        <ele>434.65</ele>
        <time>2015-10-24T13:24:58Z</time>
      </trkpt>
      <trkpt lat="43.08517" lon="-0.41773">
        <ele>434.65</ele>
        <time>2015-10-24T13:24:59Z</time>
      </trkpt>
      <trkpt lat="43.08551" lon="-0.41792">
        <ele>432.73</ele>
        <time>2015-10-24T13:25:10Z</time>
      </trkpt>
      <trkpt lat="43.08554" lon="-0.41795">
        <ele>432.73</ele>
        <time>2015-10-24T13:25:11Z</time>
      </trkpt>
      <trkpt lat="43.08558" lon="-0.41798">
        <ele>432.73</ele>
        <time>2015-10-24T13:25:12Z</time>
      </trkpt>
      <trkpt lat="43.08561" lon="-0.418">
        <ele>433.21</ele>
        <time>2015-10-24T13:25:13Z</time>
      </trkpt>
      <trkpt lat="43.08565" lon="-0.41801">
        <ele>432.73</ele>
        <time>2015-10-24T13:25:14Z</time>
      </trkpt>
      <trkpt lat="43.0857" lon="-0.41803">
        <ele>432.73</ele>
        <time>2015-10-24T13:25:15Z</time>
      </trkpt>
      <trkpt lat="43.08579" lon="-0.41804">
        <ele>432.25</ele>
        <time>2015-10-24T13:25:17Z</time>
      </trkpt>
      <trkpt lat="43.08583" lon="-0.41804">
        <ele>432.25</ele>
        <time>2015-10-24T13:25:18Z</time>
      </trkpt>
      <trkpt lat="43.08598" lon="-0.41802">
        <ele>431.77</ele>
        <time>2015-10-24T13:25:21Z</time>
      </trkpt>
      <trkpt lat="43.08607" lon="-0.41799">
        <ele>431.29</ele>
        <time>2015-10-24T13:25:23Z</time>
      </trkpt>
      <trkpt lat="43.08616" lon="-0.41798">
        <ele>430.81</ele>
        <time>2015-10-24T13:25:25Z</time>
      </trkpt>
      <trkpt lat="43.0862" lon="-0.41798">
        <ele>430.81</ele>
        <time>2015-10-24T13:25:26Z</time>
      </trkpt>
      <trkpt lat="43.08648" lon="-0.41798">
        <ele>429.37</ele>
        <time>2015-10-24T13:25:34Z</time>
      </trkpt>
      <trkpt lat="43.08649" lon="-0.418">
        <ele>428.89</ele>
        <time>2015-10-24T13:25:35Z</time>
      </trkpt>
      <trkpt lat="43.08651" lon="-0.41803">
        <ele>428.89</ele>
        <time>2015-10-24T13:25:36Z</time>
      </trkpt>
      <trkpt lat="43.08652" lon="-0.41807">
        <ele>428.89</ele>
        <time>2015-10-24T13:25:37Z</time>
      </trkpt>
      <trkpt lat="43.08653" lon="-0.41812">
        <ele>428.4</ele>
        <time>2015-10-24T13:25:38Z</time>
      </trkpt>
      <trkpt lat="43.08653" lon="-0.41817">
        <ele>428.4</ele>
        <time>2015-10-24T13:25:39Z</time>
      </trkpt>
      <trkpt lat="43.08653" lon="-0.41822">
        <ele>428.4</ele>
        <time>2015-10-24T13:25:40Z</time>
      </trkpt>
      <trkpt lat="43.08652" lon="-0.41827">
        <ele>427.92</ele>
        <time>2015-10-24T13:25:41Z</time>
      </trkpt>
      <trkpt lat="43.0865" lon="-0.41843">
        <ele>427.92</ele>
        <time>2015-10-24T13:25:44Z</time>
      </trkpt>
      <trkpt lat="43.08646" lon="-0.41868">
        <ele>427.44</ele>
        <time>2015-10-24T13:25:48Z</time>
      </trkpt>
      <trkpt lat="43.08645" lon="-0.41881">
        <ele>426.48</ele>
        <time>2015-10-24T13:25:50Z</time>
      </trkpt>
      <trkpt lat="43.08644" lon="-0.41888">
        <ele>426.48</ele>
        <time>2015-10-24T13:25:51Z</time>
      </trkpt>
      <trkpt lat="43.08643" lon="-0.41895">
        <ele>426.48</ele>
        <time>2015-10-24T13:25:52Z</time>
      </trkpt>
      <trkpt lat="43.08642" lon="-0.41901">
        <ele>426.48</ele>
        <time>2015-10-24T13:25:53Z</time>
      </trkpt>
      <trkpt lat="43.08641" lon="-0.41907">
        <ele>426.48</ele>
        <time>2015-10-24T13:25:54Z</time>
      </trkpt>
      <trkpt lat="43.08641" lon="-0.41913">
        <ele>426.48</ele>
        <time>2015-10-24T13:25:55Z</time>
      </trkpt>
      <trkpt lat="43.08633" lon="-0.4196">
        <ele>424.56</ele>
        <time>2015-10-24T13:26:02Z</time>
      </trkpt>
      <trkpt lat="43.08631" lon="-0.41967">
        <ele>424.08</ele>
        <time>2015-10-24T13:26:03Z</time>
      </trkpt>
      <trkpt lat="43.0863" lon="-0.41974">
        <ele>423.6</ele>
        <time>2015-10-24T13:26:04Z</time>
      </trkpt>
      <trkpt lat="43.08623" lon="-0.42012">
        <ele>423.12</ele>
        <time>2015-10-24T13:26:09Z</time>
      </trkpt>
      <trkpt lat="43.08623" lon="-0.4202">
        <ele>422.64</ele>
        <time>2015-10-24T13:26:10Z</time>
      </trkpt>
      <trkpt lat="43.08623" lon="-0.42027">
        <ele>422.64</ele>
        <time>2015-10-24T13:26:11Z</time>
      </trkpt>
      <trkpt lat="43.08624" lon="-0.42034">
        <ele>422.64</ele>
        <time>2015-10-24T13:26:12Z</time>
      </trkpt>
      <trkpt lat="43.08625" lon="-0.42041">
        <ele>422.64</ele>
        <time>2015-10-24T13:26:13Z</time>
      </trkpt>
      <trkpt lat="43.08631" lon="-0.4207">
        <ele>423.12</ele>
        <time>2015-10-24T13:26:17Z</time>
      </trkpt>
      <trkpt lat="43.08632" lon="-0.42077">
        <ele>423.6</ele>
        <time>2015-10-24T13:26:18Z</time>
      </trkpt>
      <trkpt lat="43.08636" lon="-0.42115">
        <ele>425.52</ele>
        <time>2015-10-24T13:26:27Z</time>
      </trkpt>
      <trkpt lat="43.08635" lon="-0.4212">
        <ele>425.52</ele>
        <time>2015-10-24T13:26:28Z</time>
      </trkpt>
      <trkpt lat="43.08632" lon="-0.42123">
        <ele>425.52</ele>
        <time>2015-10-24T13:26:29Z</time>
      </trkpt>
      <trkpt lat="43.08629" lon="-0.42126">
        <ele>425.52</ele>
        <time>2015-10-24T13:26:30Z</time>
      </trkpt>
      <trkpt lat="43.08627" lon="-0.4213">
        <ele>425.52</ele>
        <time>2015-10-24T13:26:31Z</time>
      </trkpt>
      <trkpt lat="43.08626" lon="-0.42134">
        <ele>424.56</ele>
        <time>2015-10-24T13:26:32Z</time>
      </trkpt>
      <trkpt lat="43.08623" lon="-0.42137">
        <ele>424.56</ele>
        <time>2015-10-24T13:26:33Z</time>
      </trkpt>
      <trkpt lat="43.08602" lon="-0.42182">
        <ele>422.16</ele>
        <time>2015-10-24T13:26:43Z</time>
      </trkpt>
      <trkpt lat="43.08593" lon="-0.42203">
        <ele>421.68</ele>
        <time>2015-10-24T13:26:47Z</time>
      </trkpt>
      <trkpt lat="43.08591" lon="-0.42209">
        <ele>421.19</ele>
        <time>2015-10-24T13:26:48Z</time>
      </trkpt>
      <trkpt lat="43.0859" lon="-0.42216">
        <ele>421.19</ele>
        <time>2015-10-24T13:26:49Z</time>
      </trkpt>
      <trkpt lat="43.08591" lon="-0.42224">
        <ele>420.71</ele>
        <time>2015-10-24T13:26:50Z</time>
      </trkpt>
      <trkpt lat="43.08593" lon="-0.4223">
        <ele>420.71</ele>
        <time>2015-10-24T13:26:51Z</time>
      </trkpt>
      <trkpt lat="43.08596" lon="-0.42235">
        <ele>420.71</ele>
        <time>2015-10-24T13:26:52Z</time>
      </trkpt>
      <trkpt lat="43.08601" lon="-0.42237">
        <ele>420.71</ele>
        <time>2015-10-24T13:26:53Z</time>
      </trkpt>
      <trkpt lat="43.08604" lon="-0.42235">
        <ele>420.71</ele>
        <time>2015-10-24T13:26:54Z</time>
      </trkpt>
      <trkpt lat="43.08606" lon="-0.42231">
        <ele>420.71</ele>
        <time>2015-10-24T13:26:55Z</time>
      </trkpt>
      <trkpt lat="43.08608" lon="-0.42226">
        <ele>420.71</ele>
        <time>2015-10-24T13:26:56Z</time>
      </trkpt>
      <trkpt lat="43.08609" lon="-0.42224">
        <ele>420.71</ele>
        <time>2015-10-24T13:26:57Z</time>
      </trkpt>
      <trkpt lat="43.08611" lon="-0.42224">
        <ele>420.71</ele>
        <time>2015-10-24T13:26:59Z</time>
      </trkpt>
      <trkpt lat="43.08635" lon="-0.42241">
        <ele>423.6</ele>
        <time>2015-10-24T13:27:09Z</time>
      </trkpt>
      <trkpt lat="43.08657" lon="-0.42264">
        <ele>426.48</ele>
        <time>2015-10-24T13:27:16Z</time>
      </trkpt>
      <trkpt lat="43.0866" lon="-0.42268">
        <ele>427.44</ele>
        <time>2015-10-24T13:27:17Z</time>
      </trkpt>
      <trkpt lat="43.08682" lon="-0.42288">
        <ele>431.29</ele>
        <time>2015-10-24T13:27:23Z</time>
      </trkpt>
      <trkpt lat="43.08708" lon="-0.42305">
        <ele>433.21</ele>
        <time>2015-10-24T13:27:30Z</time>
      </trkpt>
      <trkpt lat="43.08712" lon="-0.42309">
        <ele>433.69</ele>
        <time>2015-10-24T13:27:31Z</time>
      </trkpt>
      <trkpt lat="43.08715" lon="-0.42312">
        <ele>434.17</ele>
        <time>2015-10-24T13:27:32Z</time>
      </trkpt>
      <trkpt lat="43.08719" lon="-0.42316">
        <ele>434.65</ele>
        <time>2015-10-24T13:27:33Z</time>
      </trkpt>
      <trkpt lat="43.08722" lon="-0.42319">
        <ele>435.13</ele>
        <time>2015-10-24T13:27:34Z</time>
      </trkpt>
      <trkpt lat="43.08725" lon="-0.42322">
        <ele>435.61</ele>
        <time>2015-10-24T13:27:35Z</time>
      </trkpt>
      <trkpt lat="43.08756" lon="-0.42351">
        <ele>438.02</ele>
        <time>2015-10-24T13:27:44Z</time>
      </trkpt>
      <trkpt lat="43.08799" lon="-0.42397">
        <ele>440.42</ele>
        <time>2015-10-24T13:27:57Z</time>
      </trkpt>
      <trkpt lat="43.08805" lon="-0.42405">
        <ele>440.42</ele>
        <time>2015-10-24T13:27:59Z</time>
      </trkpt>
      <trkpt lat="43.08809" lon="-0.42409">
        <ele>440.42</ele>
        <time>2015-10-24T13:28:00Z</time>
      </trkpt>
      <trkpt lat="43.08841" lon="-0.42448">
        <ele>441.38</ele>
        <time>2015-10-24T13:28:11Z</time>
      </trkpt>
      <trkpt lat="43.08874" lon="-0.42481">
        <ele>441.86</ele>
        <time>2015-10-24T13:28:22Z</time>
      </trkpt>
      <trkpt lat="43.08875" lon="-0.42481">
        <ele>439.94</ele>
        <time>2015-10-24T13:28:33Z</time>
      </trkpt>
      <trkpt lat="43.08876" lon="-0.42481">
        <ele>438.98</ele>
        <time>2015-10-24T13:28:37Z</time>
      </trkpt>
      <trkpt lat="43.08877" lon="-0.42482">
        <ele>438.98</ele>
        <time>2015-10-24T13:28:38Z</time>
      </trkpt>
      <trkpt lat="43.08907" lon="-0.42498">
        <ele>436.1</ele>
        <time>2015-10-24T13:28:48Z</time>
      </trkpt>
      <trkpt lat="43.08911" lon="-0.425">
        <ele>435.61</ele>
        <time>2015-10-24T13:28:49Z</time>
      </trkpt>
      <trkpt lat="43.08915" lon="-0.42504">
        <ele>434.65</ele>
        <time>2015-10-24T13:28:50Z</time>
      </trkpt>
      <trkpt lat="43.08919" lon="-0.42507">
        <ele>434.17</ele>
        <time>2015-10-24T13:28:51Z</time>
      </trkpt>
      <trkpt lat="43.08923" lon="-0.42508">
        <ele>433.21</ele>
        <time>2015-10-24T13:28:52Z</time>
      </trkpt>
      <trkpt lat="43.08928" lon="-0.42509">
        <ele>432.73</ele>
        <time>2015-10-24T13:28:53Z</time>
      </trkpt>
      <trkpt lat="43.08932" lon="-0.4251">
        <ele>431.77</ele>
        <time>2015-10-24T13:28:54Z</time>
      </trkpt>
      <trkpt lat="43.08936" lon="-0.42512">
        <ele>431.29</ele>
        <time>2015-10-24T13:28:55Z</time>
      </trkpt>
      <trkpt lat="43.0894" lon="-0.42513">
        <ele>430.81</ele>
        <time>2015-10-24T13:28:56Z</time>
      </trkpt>
      <trkpt lat="43.08944" lon="-0.42513">
        <ele>430.33</ele>
        <time>2015-10-24T13:28:57Z</time>
      </trkpt>
      <trkpt lat="43.08948" lon="-0.42514">
        <ele>430.33</ele>
        <time>2015-10-24T13:28:58Z</time>
      </trkpt>
      <trkpt lat="43.0895" lon="-0.42514">
        <ele>429.85</ele>
        <time>2015-10-24T13:28:59Z</time>
      </trkpt>
      <trkpt lat="43.08953" lon="-0.42515">
        <ele>428.89</ele>
        <time>2015-10-24T13:29:00Z</time>
      </trkpt>
      <trkpt lat="43.08956" lon="-0.42516">
        <ele>427.92</ele>
        <time>2015-10-24T13:29:01Z</time>
      </trkpt>
      <trkpt lat="43.08958" lon="-0.42516">
        <ele>427.44</ele>
        <time>2015-10-24T13:29:02Z</time>
      </trkpt>
      <trkpt lat="43.0896" lon="-0.42517">
        <ele>426.96</ele>
        <time>2015-10-24T13:29:03Z</time>
      </trkpt>
      <trkpt lat="43.08976" lon="-0.42518">
        <ele>427.44</ele>
        <time>2015-10-24T13:29:09Z</time>
      </trkpt>
      <trkpt lat="43.08978" lon="-0.42519">
        <ele>427.92</ele>
        <time>2015-10-24T13:29:10Z</time>
      </trkpt>
      <trkpt lat="43.08979" lon="-0.42521">
        <ele>427.92</ele>
        <time>2015-10-24T13:29:11Z</time>
      </trkpt>
      <trkpt lat="43.08982" lon="-0.42521">
        <ele>427.92</ele>
        <time>2015-10-24T13:29:12Z</time>
      </trkpt>
      <trkpt lat="43.08985" lon="-0.42522">
        <ele>427.92</ele>
        <time>2015-10-24T13:29:13Z</time>
      </trkpt>
      <trkpt lat="43.08987" lon="-0.42522">
        <ele>427.92</ele>
        <time>2015-10-24T13:29:14Z</time>
      </trkpt>
      <trkpt lat="43.09023" lon="-0.42527">
        <ele>429.85</ele>
        <time>2015-10-24T13:29:24Z</time>
      </trkpt>
      <trkpt lat="43.09069" lon="-0.42538">
        <ele>427.92</ele>
        <time>2015-10-24T13:29:36Z</time>
      </trkpt>
      <trkpt lat="43.09084" lon="-0.42551">
        <ele>428.89</ele>
        <time>2015-10-24T13:29:42Z</time>
      </trkpt>
      <trkpt lat="43.09086" lon="-0.42549">
        <ele>429.37</ele>
        <time>2015-10-24T13:29:43Z</time>
      </trkpt>
      <trkpt lat="43.09087" lon="-0.42546">
        <ele>429.37</ele>
        <time>2015-10-24T13:29:44Z</time>
      </trkpt>
      <trkpt lat="43.09089" lon="-0.42542">
        <ele>429.37</ele>
        <time>2015-10-24T13:29:45Z</time>
      </trkpt>
      <trkpt lat="43.09091" lon="-0.42538">
        <ele>429.37</ele>
        <time>2015-10-24T13:29:46Z</time>
      </trkpt>
      <trkpt lat="43.09093" lon="-0.42534">
        <ele>429.37</ele>
        <time>2015-10-24T13:29:47Z</time>
      </trkpt>
      <trkpt lat="43.09096" lon="-0.42531">
        <ele>429.85</ele>
        <time>2015-10-24T13:29:48Z</time>
      </trkpt>
      <trkpt lat="43.091" lon="-0.42528">
        <ele>429.85</ele>
        <time>2015-10-24T13:29:49Z</time>
      </trkpt>
      <trkpt lat="43.09104" lon="-0.42527">
        <ele>430.33</ele>
        <time>2015-10-24T13:29:50Z</time>
      </trkpt>
      <trkpt lat="43.09112" lon="-0.42523">
        <ele>430.33</ele>
        <time>2015-10-24T13:29:52Z</time>
      </trkpt>
      <trkpt lat="43.09114" lon="-0.42519">
        <ele>430.33</ele>
        <time>2015-10-24T13:29:53Z</time>
      </trkpt>
      <trkpt lat="43.09116" lon="-0.42515">
        <ele>430.33</ele>
        <time>2015-10-24T13:29:54Z</time>
      </trkpt>
      <trkpt lat="43.0912" lon="-0.42507">
        <ele>427.92</ele>
        <time>2015-10-24T13:29:56Z</time>
      </trkpt>
      <trkpt lat="43.09123" lon="-0.42502">
        <ele>427.92</ele>
        <time>2015-10-24T13:29:57Z</time>
      </trkpt>
      <trkpt lat="43.09126" lon="-0.42498">
        <ele>427.44</ele>
        <time>2015-10-24T13:29:58Z</time>
      </trkpt>
      <trkpt lat="43.09147" lon="-0.42481">
        <ele>423.6</ele>
        <time>2015-10-24T13:30:03Z</time>
      </trkpt>
      <trkpt lat="43.09151" lon="-0.42477">
        <ele>423.12</ele>
        <time>2015-10-24T13:30:04Z</time>
      </trkpt>
      <trkpt lat="43.09154" lon="-0.42473">
        <ele>422.64</ele>
        <time>2015-10-24T13:30:05Z</time>
      </trkpt>
      <trkpt lat="43.09158" lon="-0.42469">
        <ele>422.16</ele>
        <time>2015-10-24T13:30:06Z</time>
      </trkpt>
      <trkpt lat="43.09163" lon="-0.42464">
        <ele>421.68</ele>
        <time>2015-10-24T13:30:07Z</time>
      </trkpt>
      <trkpt lat="43.09175" lon="-0.42451">
        <ele>421.19</ele>
        <time>2015-10-24T13:30:10Z</time>
      </trkpt>
      <trkpt lat="43.09179" lon="-0.42446">
        <ele>420.71</ele>
        <time>2015-10-24T13:30:11Z</time>
      </trkpt>
      <trkpt lat="43.09184" lon="-0.42443">
        <ele>420.71</ele>
        <time>2015-10-24T13:30:12Z</time>
      </trkpt>
      <trkpt lat="43.09196" lon="-0.42433">
        <ele>420.23</ele>
        <time>2015-10-24T13:30:15Z</time>
      </trkpt>
      <trkpt lat="43.092" lon="-0.42429">
        <ele>419.75</ele>
        <time>2015-10-24T13:30:16Z</time>
      </trkpt>
      <trkpt lat="43.09204" lon="-0.42424">
        <ele>419.27</ele>
        <time>2015-10-24T13:30:17Z</time>
      </trkpt>
      <trkpt lat="43.09227" lon="-0.42406">
        <ele>417.35</ele>
        <time>2015-10-24T13:30:22Z</time>
      </trkpt>
      <trkpt lat="43.09231" lon="-0.42403">
        <ele>417.35</ele>
        <time>2015-10-24T13:30:23Z</time>
      </trkpt>
      <trkpt lat="43.09236" lon="-0.424">
        <ele>416.87</ele>
        <time>2015-10-24T13:30:24Z</time>
      </trkpt>
      <trkpt lat="43.09248" lon="-0.42394">
        <ele>415.91</ele>
        <time>2015-10-24T13:30:27Z</time>
      </trkpt>
      <trkpt lat="43.0925" lon="-0.42394">
        <ele>415.43</ele>
        <time>2015-10-24T13:30:28Z</time>
      </trkpt>
      <trkpt lat="43.09252" lon="-0.42395">
        <ele>414.95</ele>
        <time>2015-10-24T13:30:30Z</time>
      </trkpt>
      <trkpt lat="43.09254" lon="-0.42395">
        <ele>414.47</ele>
        <time>2015-10-24T13:30:31Z</time>
      </trkpt>
      <trkpt lat="43.09256" lon="-0.42395">
        <ele>414.47</ele>
        <time>2015-10-24T13:30:32Z</time>
      </trkpt>
      <trkpt lat="43.09259" lon="-0.42395">
        <ele>414.47</ele>
        <time>2015-10-24T13:30:33Z</time>
      </trkpt>
      <trkpt lat="43.09262" lon="-0.42395">
        <ele>414.47</ele>
        <time>2015-10-24T13:30:34Z</time>
      </trkpt>
      <trkpt lat="43.09266" lon="-0.42394">
        <ele>414.95</ele>
        <time>2015-10-24T13:30:35Z</time>
      </trkpt>
      <trkpt lat="43.09269" lon="-0.42394">
        <ele>415.43</ele>
        <time>2015-10-24T13:30:36Z</time>
      </trkpt>
      <trkpt lat="43.09273" lon="-0.42394">
        <ele>415.43</ele>
        <time>2015-10-24T13:30:37Z</time>
      </trkpt>
      <trkpt lat="43.09289" lon="-0.42396">
        <ele>414.95</ele>
        <time>2015-10-24T13:30:41Z</time>
      </trkpt>
      <trkpt lat="43.09293" lon="-0.42395">
        <ele>414.95</ele>
        <time>2015-10-24T13:30:42Z</time>
      </trkpt>
      <trkpt lat="43.09297" lon="-0.42394">
        <ele>414.95</ele>
        <time>2015-10-24T13:30:43Z</time>
      </trkpt>
      <trkpt lat="43.09301" lon="-0.42392">
        <ele>414.95</ele>
        <time>2015-10-24T13:30:44Z</time>
      </trkpt>
      <trkpt lat="43.09305" lon="-0.42391">
        <ele>414.95</ele>
        <time>2015-10-24T13:30:45Z</time>
      </trkpt>
      <trkpt lat="43.0931" lon="-0.42391">
        <ele>415.43</ele>
        <time>2015-10-24T13:30:46Z</time>
      </trkpt>
      <trkpt lat="43.09327" lon="-0.42389">
        <ele>414.95</ele>
        <time>2015-10-24T13:30:50Z</time>
      </trkpt>
      <trkpt lat="43.09331" lon="-0.42389">
        <ele>414.95</ele>
        <time>2015-10-24T13:30:51Z</time>
      </trkpt>
      <trkpt lat="43.09348" lon="-0.42387">
        <ele>415.43</ele>
        <time>2015-10-24T13:30:55Z</time>
      </trkpt>
      <trkpt lat="43.09353" lon="-0.42387">
        <ele>415.43</ele>
        <time>2015-10-24T13:30:56Z</time>
      </trkpt>
      <trkpt lat="43.09357" lon="-0.42388">
        <ele>415.43</ele>
        <time>2015-10-24T13:30:57Z</time>
      </trkpt>
      <trkpt lat="43.09361" lon="-0.42389">
        <ele>415.91</ele>
        <time>2015-10-24T13:30:58Z</time>
      </trkpt>
      <trkpt lat="43.09366" lon="-0.42389">
        <ele>415.91</ele>
        <time>2015-10-24T13:30:59Z</time>
      </trkpt>
      <trkpt lat="43.0937" lon="-0.4239">
        <ele>415.91</ele>
        <time>2015-10-24T13:31:00Z</time>
      </trkpt>
      <trkpt lat="43.09393" lon="-0.4239">
        <ele>415.91</ele>
        <time>2015-10-24T13:31:05Z</time>
      </trkpt>
      <trkpt lat="43.09407" lon="-0.42393">
        <ele>416.39</ele>
        <time>2015-10-24T13:31:08Z</time>
      </trkpt>
      <trkpt lat="43.09412" lon="-0.42394">
        <ele>415.91</ele>
        <time>2015-10-24T13:31:09Z</time>
      </trkpt>
      <trkpt lat="43.09449" lon="-0.42401">
        <ele>414.95</ele>
        <time>2015-10-24T13:31:17Z</time>
      </trkpt>
      <trkpt lat="43.09453" lon="-0.42403">
        <ele>414.95</ele>
        <time>2015-10-24T13:31:18Z</time>
      </trkpt>
      <trkpt lat="43.09457" lon="-0.42405">
        <ele>414.95</ele>
        <time>2015-10-24T13:31:19Z</time>
      </trkpt>
      <trkpt lat="43.0946" lon="-0.42409">
        <ele>414.95</ele>
        <time>2015-10-24T13:31:20Z</time>
      </trkpt>
      <trkpt lat="43.09464" lon="-0.42412">
        <ele>414.95</ele>
        <time>2015-10-24T13:31:21Z</time>
      </trkpt>
      <trkpt lat="43.09468" lon="-0.42415">
        <ele>415.43</ele>
        <time>2015-10-24T13:31:22Z</time>
      </trkpt>
      <trkpt lat="43.09472" lon="-0.42418">
        <ele>415.43</ele>
        <time>2015-10-24T13:31:23Z</time>
      </trkpt>
      <trkpt lat="43.09477" lon="-0.4242">
        <ele>415.43</ele>
        <time>2015-10-24T13:31:24Z</time>
      </trkpt>
      <trkpt lat="43.09504" lon="-0.42431">
        <ele>416.39</ele>
        <time>2015-10-24T13:31:30Z</time>
      </trkpt>
      <trkpt lat="43.09522" lon="-0.42437">
        <ele>414.95</ele>
        <time>2015-10-24T13:31:34Z</time>
      </trkpt>
      <trkpt lat="43.09526" lon="-0.42439">
        <ele>414.47</ele>
        <time>2015-10-24T13:31:35Z</time>
      </trkpt>
      <trkpt lat="43.0953" lon="-0.4244">
        <ele>414.47</ele>
        <time>2015-10-24T13:31:36Z</time>
      </trkpt>
      <trkpt lat="43.09535" lon="-0.42441">
        <ele>414.95</ele>
        <time>2015-10-24T13:31:37Z</time>
      </trkpt>
      <trkpt lat="43.0954" lon="-0.42442">
        <ele>414.95</ele>
        <time>2015-10-24T13:31:38Z</time>
      </trkpt>
      <trkpt lat="43.09544" lon="-0.42443">
        <ele>415.43</ele>
        <time>2015-10-24T13:31:39Z</time>
      </trkpt>
      <trkpt lat="43.09548" lon="-0.42444">
        <ele>415.91</ele>
        <time>2015-10-24T13:31:40Z</time>
      </trkpt>
      <trkpt lat="43.09553" lon="-0.42445">
        <ele>415.91</ele>
        <time>2015-10-24T13:31:41Z</time>
      </trkpt>
      <trkpt lat="43.09557" lon="-0.42445">
        <ele>416.39</ele>
        <time>2015-10-24T13:31:42Z</time>
      </trkpt>
      <trkpt lat="43.09561" lon="-0.42445">
        <ele>416.87</ele>
        <time>2015-10-24T13:31:43Z</time>
      </trkpt>
      <trkpt lat="43.09587" lon="-0.4244">
        <ele>419.27</ele>
        <time>2015-10-24T13:31:49Z</time>
      </trkpt>
      <trkpt lat="43.09592" lon="-0.42439">
        <ele>419.75</ele>
        <time>2015-10-24T13:31:50Z</time>
      </trkpt>
      <trkpt lat="43.09596" lon="-0.42438">
        <ele>420.23</ele>
        <time>2015-10-24T13:31:51Z</time>
      </trkpt>
      <trkpt lat="43.096" lon="-0.42438">
        <ele>420.71</ele>
        <time>2015-10-24T13:31:52Z</time>
      </trkpt>
      <trkpt lat="43.09604" lon="-0.42436">
        <ele>421.19</ele>
        <time>2015-10-24T13:31:53Z</time>
      </trkpt>
      <trkpt lat="43.09608" lon="-0.42434">
        <ele>421.68</ele>
        <time>2015-10-24T13:31:54Z</time>
      </trkpt>
      <trkpt lat="43.09612" lon="-0.42432">
        <ele>422.16</ele>
        <time>2015-10-24T13:31:55Z</time>
      </trkpt>
      <trkpt lat="43.09615" lon="-0.4243">
        <ele>422.64</ele>
        <time>2015-10-24T13:31:56Z</time>
      </trkpt>
      <trkpt lat="43.09618" lon="-0.42429">
        <ele>423.6</ele>
        <time>2015-10-24T13:31:57Z</time>
      </trkpt>
      <trkpt lat="43.0962" lon="-0.42428">
        <ele>424.08</ele>
        <time>2015-10-24T13:31:58Z</time>
      </trkpt>
      <trkpt lat="43.09634" lon="-0.42419">
        <ele>426.96</ele>
        <time>2015-10-24T13:32:04Z</time>
      </trkpt>
      <trkpt lat="43.09635" lon="-0.42421">
        <ele>427.92</ele>
        <time>2015-10-24T13:32:05Z</time>
      </trkpt>
      <trkpt lat="43.09636" lon="-0.42422">
        <ele>426.48</ele>
        <time>2015-10-24T13:32:06Z</time>
      </trkpt>
      <trkpt lat="43.09637" lon="-0.42423">
        <ele>426</ele>
        <time>2015-10-24T13:32:07Z</time>
      </trkpt>
      <trkpt lat="43.09638" lon="-0.42425">
        <ele>426.48</ele>
        <time>2015-10-24T13:32:08Z</time>
      </trkpt>
      <trkpt lat="43.09641" lon="-0.42432">
        <ele>428.4</ele>
        <time>2015-10-24T13:32:12Z</time>
      </trkpt>
      <trkpt lat="43.09645" lon="-0.42437">
        <ele>431.29</ele>
        <time>2015-10-24T13:32:17Z</time>
      </trkpt>
      <trkpt lat="43.09657" lon="-0.4247">
        <ele>440.9</ele>
        <time>2015-10-24T13:32:30Z</time>
      </trkpt>
      <trkpt lat="43.09661" lon="-0.42494">
        <ele>450.03</ele>
        <time>2015-10-24T13:32:40Z</time>
      </trkpt>
      <trkpt lat="43.09662" lon="-0.42516">
        <ele>457.24</ele>
        <time>2015-10-24T13:32:49Z</time>
      </trkpt>
      <trkpt lat="43.09663" lon="-0.42522">
        <ele>459.17</ele>
        <time>2015-10-24T13:32:51Z</time>
      </trkpt>
      <trkpt lat="43.09666" lon="-0.42527">
        <ele>460.61</ele>
        <time>2015-10-24T13:32:53Z</time>
      </trkpt>
      <trkpt lat="43.09696" lon="-0.42548">
        <ele>469.74</ele>
        <time>2015-10-24T13:33:05Z</time>
      </trkpt>
      <trkpt lat="43.09703" lon="-0.42566">
        <ele>471.18</ele>
        <time>2015-10-24T13:33:09Z</time>
      </trkpt>
      <trkpt lat="43.09737" lon="-0.42605">
        <ele>469.26</ele>
        <time>2015-10-24T13:33:18Z</time>
      </trkpt>
      <trkpt lat="43.09744" lon="-0.42613">
        <ele>468.78</ele>
        <time>2015-10-24T13:33:21Z</time>
      </trkpt>
      <trkpt lat="43.09749" lon="-0.4262">
        <ele>468.3</ele>
        <time>2015-10-24T13:33:23Z</time>
      </trkpt>
      <trkpt lat="43.09783" lon="-0.42673">
        <ele>474.07</ele>
        <time>2015-10-24T13:33:35Z</time>
      </trkpt>
      <trkpt lat="43.09785" lon="-0.42675">
        <ele>474.55</ele>
        <time>2015-10-24T13:33:36Z</time>
      </trkpt>
      <trkpt lat="43.09788" lon="-0.42676">
        <ele>475.51</ele>
        <time>2015-10-24T13:33:37Z</time>
      </trkpt>
      <trkpt lat="43.0979" lon="-0.42677">
        <ele>476.47</ele>
        <time>2015-10-24T13:33:38Z</time>
      </trkpt>
      <trkpt lat="43.09791" lon="-0.42679">
        <ele>477.43</ele>
        <time>2015-10-24T13:33:39Z</time>
      </trkpt>
      <trkpt lat="43.09793" lon="-0.42681">
        <ele>477.91</ele>
        <time>2015-10-24T13:33:40Z</time>
      </trkpt>
      <trkpt lat="43.09821" lon="-0.42709">
        <ele>484.16</ele>
        <time>2015-10-24T13:33:49Z</time>
      </trkpt>
      <trkpt lat="43.09824" lon="-0.42714">
        <ele>484.16</ele>
        <time>2015-10-24T13:33:50Z</time>
      </trkpt>
      <trkpt lat="43.09826" lon="-0.42719">
        <ele>484.16</ele>
        <time>2015-10-24T13:33:51Z</time>
      </trkpt>
      <trkpt lat="43.09848" lon="-0.42762">
        <ele>477.91</ele>
        <time>2015-10-24T13:34:02Z</time>
      </trkpt>
      <trkpt lat="43.0985" lon="-0.42765">
        <ele>477.43</ele>
        <time>2015-10-24T13:34:03Z</time>
      </trkpt>
      <trkpt lat="43.09861" lon="-0.42781">
        <ele>476.47</ele>
        <time>2015-10-24T13:34:11Z</time>
      </trkpt>
      <trkpt lat="43.09861" lon="-0.42783">
        <ele>476.95</ele>
        <time>2015-10-24T13:34:12Z</time>
      </trkpt>
      <trkpt lat="43.09866" lon="-0.428">
        <ele>475.51</ele>
        <time>2015-10-24T13:34:19Z</time>
      </trkpt>
      <trkpt lat="43.09867" lon="-0.42801">
        <ele>476.47</ele>
        <time>2015-10-24T13:34:21Z</time>
      </trkpt>
      <trkpt lat="43.09868" lon="-0.42802">
        <ele>475.99</ele>
        <time>2015-10-24T13:34:22Z</time>
      </trkpt>
      <trkpt lat="43.09871" lon="-0.42803">
        <ele>475.03</ele>
        <time>2015-10-24T13:34:25Z</time>
      </trkpt>
      <trkpt lat="43.09878" lon="-0.42801">
        <ele>474.55</ele>
        <time>2015-10-24T13:34:31Z</time>
      </trkpt>
      <trkpt lat="43.09884" lon="-0.42804">
        <ele>473.11</ele>
        <time>2015-10-24T13:34:35Z</time>
      </trkpt>
      <trkpt lat="43.09885" lon="-0.42805">
        <ele>473.11</ele>
        <time>2015-10-24T13:34:36Z</time>
      </trkpt>
      <trkpt lat="43.09887" lon="-0.42805">
        <ele>473.59</ele>
        <time>2015-10-24T13:34:37Z</time>
      </trkpt>
      <trkpt lat="43.09907" lon="-0.42807">
        <ele>469.26</ele>
        <time>2015-10-24T13:34:48Z</time>
      </trkpt>
      <trkpt lat="43.0991" lon="-0.42806">
        <ele>468.3</ele>
        <time>2015-10-24T13:34:49Z</time>
      </trkpt>
      <trkpt lat="43.09912" lon="-0.42806">
        <ele>467.82</ele>
        <time>2015-10-24T13:34:50Z</time>
      </trkpt>
      <trkpt lat="43.09913" lon="-0.42807">
        <ele>467.34</ele>
        <time>2015-10-24T13:34:51Z</time>
      </trkpt>
      <trkpt lat="43.09915" lon="-0.42806">
        <ele>466.38</ele>
        <time>2015-10-24T13:34:52Z</time>
      </trkpt>
      <trkpt lat="43.09918" lon="-0.42806">
        <ele>465.9</ele>
        <time>2015-10-24T13:34:53Z</time>
      </trkpt>
      <trkpt lat="43.09921" lon="-0.42806">
        <ele>465.42</ele>
        <time>2015-10-24T13:34:54Z</time>
      </trkpt>
      <trkpt lat="43.09924" lon="-0.42806">
        <ele>464.45</ele>
        <time>2015-10-24T13:34:55Z</time>
      </trkpt>
      <trkpt lat="43.09927" lon="-0.42805">
        <ele>463.49</ele>
        <time>2015-10-24T13:34:56Z</time>
      </trkpt>
      <trkpt lat="43.0993" lon="-0.42805">
        <ele>462.05</ele>
        <time>2015-10-24T13:34:57Z</time>
      </trkpt>
      <trkpt lat="43.09933" lon="-0.42806">
        <ele>461.09</ele>
        <time>2015-10-24T13:34:58Z</time>
      </trkpt>
      <trkpt lat="43.09936" lon="-0.42807">
        <ele>460.13</ele>
        <time>2015-10-24T13:34:59Z</time>
      </trkpt>
      <trkpt lat="43.09952" lon="-0.42814">
        <ele>457.72</ele>
        <time>2015-10-24T13:35:05Z</time>
      </trkpt>
      <trkpt lat="43.09955" lon="-0.42816">
        <ele>457.24</ele>
        <time>2015-10-24T13:35:06Z</time>
      </trkpt>
      <trkpt lat="43.09957" lon="-0.42818">
        <ele>456.76</ele>
        <time>2015-10-24T13:35:07Z</time>
      </trkpt>
      <trkpt lat="43.09959" lon="-0.42819">
        <ele>456.28</ele>
        <time>2015-10-24T13:35:08Z</time>
      </trkpt>
      <trkpt lat="43.09962" lon="-0.42821">
        <ele>456.28</ele>
        <time>2015-10-24T13:35:09Z</time>
      </trkpt>
      <trkpt lat="43.09964" lon="-0.42823">
        <ele>455.8</ele>
        <time>2015-10-24T13:35:10Z</time>
      </trkpt>
      <trkpt lat="43.09966" lon="-0.42826">
        <ele>455.8</ele>
        <time>2015-10-24T13:35:11Z</time>
      </trkpt>
      <trkpt lat="43.09988" lon="-0.42843">
        <ele>455.8</ele>
        <time>2015-10-24T13:35:17Z</time>
      </trkpt>
      <trkpt lat="43.09992" lon="-0.42847">
        <ele>456.28</ele>
        <time>2015-10-24T13:35:18Z</time>
      </trkpt>
      <trkpt lat="43.09996" lon="-0.42851">
        <ele>456.28</ele>
        <time>2015-10-24T13:35:19Z</time>
      </trkpt>
      <trkpt lat="43.1" lon="-0.42854">
        <ele>456.28</ele>
        <time>2015-10-24T13:35:20Z</time>
      </trkpt>
      <trkpt lat="43.10002" lon="-0.42859">
        <ele>456.76</ele>
        <time>2015-10-24T13:35:21Z</time>
      </trkpt>
      <trkpt lat="43.10003" lon="-0.42864">
        <ele>457.24</ele>
        <time>2015-10-24T13:35:22Z</time>
      </trkpt>
      <trkpt lat="43.10003" lon="-0.42869">
        <ele>457.24</ele>
        <time>2015-10-24T13:35:23Z</time>
      </trkpt>
      <trkpt lat="43.10002" lon="-0.42873">
        <ele>457.24</ele>
        <time>2015-10-24T13:35:24Z</time>
      </trkpt>
      <trkpt lat="43.1" lon="-0.42876">
        <ele>457.24</ele>
        <time>2015-10-24T13:35:25Z</time>
      </trkpt>
      <trkpt lat="43.10003" lon="-0.42901">
        <ele>434.65</ele>
        <time>2015-10-24T13:35:31Z</time>
      </trkpt>
      <trkpt lat="43.09999" lon="-0.42913">
        <ele>431.77</ele>
        <time>2015-10-24T13:35:33Z</time>
      </trkpt>
      <trkpt lat="43.09995" lon="-0.42927">
        <ele>427.92</ele>
        <time>2015-10-24T13:35:35Z</time>
      </trkpt>
      <trkpt lat="43.09981" lon="-0.42965">
        <ele>421.19</ele>
        <time>2015-10-24T13:35:43Z</time>
      </trkpt>
      <trkpt lat="43.09979" lon="-0.42968">
        <ele>421.19</ele>
        <time>2015-10-24T13:35:44Z</time>
      </trkpt>
      <trkpt lat="43.09977" lon="-0.4297">
        <ele>420.71</ele>
        <time>2015-10-24T13:35:45Z</time>
      </trkpt>
      <trkpt lat="43.09948" lon="-0.42997">
        <ele>418.31</ele>
        <time>2015-10-24T13:35:56Z</time>
      </trkpt>
      <trkpt lat="43.09937" lon="-0.43013">
        <ele>417.83</ele>
        <time>2015-10-24T13:36:00Z</time>
      </trkpt>
      <trkpt lat="43.09936" lon="-0.43019">
        <ele>417.83</ele>
        <time>2015-10-24T13:36:01Z</time>
      </trkpt>
      <trkpt lat="43.09935" lon="-0.43025">
        <ele>417.35</ele>
        <time>2015-10-24T13:36:02Z</time>
      </trkpt>
      <trkpt lat="43.09935" lon="-0.43033">
        <ele>416.87</ele>
        <time>2015-10-24T13:36:03Z</time>
      </trkpt>
      <trkpt lat="43.09936" lon="-0.43041">
        <ele>416.87</ele>
        <time>2015-10-24T13:36:04Z</time>
      </trkpt>
      <trkpt lat="43.09938" lon="-0.4305">
        <ele>416.39</ele>
        <time>2015-10-24T13:36:05Z</time>
      </trkpt>
      <trkpt lat="43.09942" lon="-0.43057">
        <ele>415.91</ele>
        <time>2015-10-24T13:36:06Z</time>
      </trkpt>
      <trkpt lat="43.09947" lon="-0.43062">
        <ele>415.91</ele>
        <time>2015-10-24T13:36:07Z</time>
      </trkpt>
      <trkpt lat="43.09953" lon="-0.43065">
        <ele>415.43</ele>
        <time>2015-10-24T13:36:08Z</time>
      </trkpt>
      <trkpt lat="43.09958" lon="-0.43066">
        <ele>414.95</ele>
        <time>2015-10-24T13:36:09Z</time>
      </trkpt>
      <trkpt lat="43.09963" lon="-0.43068">
        <ele>414.95</ele>
        <time>2015-10-24T13:36:10Z</time>
      </trkpt>
      <trkpt lat="43.09973" lon="-0.43073">
        <ele>414.95</ele>
        <time>2015-10-24T13:36:12Z</time>
      </trkpt>
      <trkpt lat="43.09977" lon="-0.43078">
        <ele>414.47</ele>
        <time>2015-10-24T13:36:13Z</time>
      </trkpt>
      <trkpt lat="43.09979" lon="-0.43084">
        <ele>414.47</ele>
        <time>2015-10-24T13:36:14Z</time>
      </trkpt>
      <trkpt lat="43.09982" lon="-0.4309">
        <ele>414.47</ele>
        <time>2015-10-24T13:36:15Z</time>
      </trkpt>
      <trkpt lat="43.09983" lon="-0.43096">
        <ele>414.47</ele>
        <time>2015-10-24T13:36:16Z</time>
      </trkpt>
      <trkpt lat="43.09985" lon="-0.43102">
        <ele>413.98</ele>
        <time>2015-10-24T13:36:17Z</time>
      </trkpt>
      <trkpt lat="43.09988" lon="-0.43107">
        <ele>413.98</ele>
        <time>2015-10-24T13:36:18Z</time>
      </trkpt>
      <trkpt lat="43.09991" lon="-0.43112">
        <ele>413.98</ele>
        <time>2015-10-24T13:36:19Z</time>
      </trkpt>
      <trkpt lat="43.09994" lon="-0.43117">
        <ele>413.98</ele>
        <time>2015-10-24T13:36:20Z</time>
      </trkpt>
      <trkpt lat="43.09996" lon="-0.43122">
        <ele>413.98</ele>
        <time>2015-10-24T13:36:21Z</time>
      </trkpt>
      <trkpt lat="43.09997" lon="-0.43128">
        <ele>413.98</ele>
        <time>2015-10-24T13:36:22Z</time>
      </trkpt>
      <trkpt lat="43.09999" lon="-0.43134">
        <ele>413.98</ele>
        <time>2015-10-24T13:36:23Z</time>
      </trkpt>
      <trkpt lat="43.10001" lon="-0.43139">
        <ele>413.98</ele>
        <time>2015-10-24T13:36:24Z</time>
      </trkpt>
      <trkpt lat="43.10009" lon="-0.4318">
        <ele>414.95</ele>
        <time>2015-10-24T13:36:34Z</time>
      </trkpt>
      <trkpt lat="43.10007" lon="-0.43182">
        <ele>415.43</ele>
        <time>2015-10-24T13:36:35Z</time>
      </trkpt>
      <trkpt lat="43.10003" lon="-0.43218">
        <ele>415.91</ele>
        <time>2015-10-24T13:36:46Z</time>
      </trkpt>
      <trkpt lat="43.10001" lon="-0.43229">
        <ele>415.43</ele>
        <time>2015-10-24T13:36:48Z</time>
      </trkpt>
      <trkpt lat="43.10001" lon="-0.43236">
        <ele>414.95</ele>
        <time>2015-10-24T13:36:49Z</time>
      </trkpt>
      <trkpt lat="43.1" lon="-0.43243">
        <ele>414.47</ele>
        <time>2015-10-24T13:36:50Z</time>
      </trkpt>
      <trkpt lat="43.09999" lon="-0.43249">
        <ele>413.98</ele>
        <time>2015-10-24T13:36:51Z</time>
      </trkpt>
      <trkpt lat="43.1" lon="-0.43255">
        <ele>413.5</ele>
        <time>2015-10-24T13:36:52Z</time>
      </trkpt>
      <trkpt lat="43.10003" lon="-0.43259">
        <ele>413.5</ele>
        <time>2015-10-24T13:36:53Z</time>
      </trkpt>
      <trkpt lat="43.10007" lon="-0.43262">
        <ele>413.02</ele>
        <time>2015-10-24T13:36:54Z</time>
      </trkpt>
      <trkpt lat="43.10011" lon="-0.43264">
        <ele>413.02</ele>
        <time>2015-10-24T13:36:55Z</time>
      </trkpt>
      <trkpt lat="43.10015" lon="-0.43265">
        <ele>412.54</ele>
        <time>2015-10-24T13:36:56Z</time>
      </trkpt>
      <trkpt lat="43.10055" lon="-0.4329">
        <ele>412.06</ele>
        <time>2015-10-24T13:37:08Z</time>
      </trkpt>
      <trkpt lat="43.10063" lon="-0.43296">
        <ele>412.06</ele>
        <time>2015-10-24T13:37:10Z</time>
      </trkpt>
      <trkpt lat="43.10067" lon="-0.433">
        <ele>412.06</ele>
        <time>2015-10-24T13:37:11Z</time>
      </trkpt>
      <trkpt lat="43.10073" lon="-0.43309">
        <ele>411.58</ele>
        <time>2015-10-24T13:37:13Z</time>
      </trkpt>
      <trkpt lat="43.10076" lon="-0.43315">
        <ele>411.58</ele>
        <time>2015-10-24T13:37:14Z</time>
      </trkpt>
      <trkpt lat="43.10081" lon="-0.43326">
        <ele>411.58</ele>
        <time>2015-10-24T13:37:16Z</time>
      </trkpt>
      <trkpt lat="43.1009" lon="-0.43343">
        <ele>411.58</ele>
        <time>2015-10-24T13:37:19Z</time>
      </trkpt>
      <trkpt lat="43.10094" lon="-0.43355">
        <ele>411.58</ele>
        <time>2015-10-24T13:37:21Z</time>
      </trkpt>
      <trkpt lat="43.10095" lon="-0.43361">
        <ele>412.06</ele>
        <time>2015-10-24T13:37:22Z</time>
      </trkpt>
      <trkpt lat="43.10095" lon="-0.43368">
        <ele>412.06</ele>
        <time>2015-10-24T13:37:23Z</time>
      </trkpt>
      <trkpt lat="43.10095" lon="-0.43382">
        <ele>412.06</ele>
        <time>2015-10-24T13:37:25Z</time>
      </trkpt>
      <trkpt lat="43.10096" lon="-0.43389">
        <ele>412.06</ele>
        <time>2015-10-24T13:37:26Z</time>
      </trkpt>
      <trkpt lat="43.10098" lon="-0.43395">
        <ele>412.06</ele>
        <time>2015-10-24T13:37:27Z</time>
      </trkpt>
      <trkpt lat="43.101" lon="-0.43401">
        <ele>412.06</ele>
        <time>2015-10-24T13:37:28Z</time>
      </trkpt>
      <trkpt lat="43.10104" lon="-0.43407">
        <ele>412.06</ele>
        <time>2015-10-24T13:37:29Z</time>
      </trkpt>
      <trkpt lat="43.10107" lon="-0.43412">
        <ele>412.06</ele>
        <time>2015-10-24T13:37:30Z</time>
      </trkpt>
      <trkpt lat="43.10111" lon="-0.43416">
        <ele>412.06</ele>
        <time>2015-10-24T13:37:31Z</time>
      </trkpt>
      <trkpt lat="43.10115" lon="-0.43419">
        <ele>411.58</ele>
        <time>2015-10-24T13:37:32Z</time>
      </trkpt>
      <trkpt lat="43.1012" lon="-0.43423">
        <ele>411.58</ele>
        <time>2015-10-24T13:37:33Z</time>
      </trkpt>
      <trkpt lat="43.10124" lon="-0.43425">
        <ele>411.58</ele>
        <time>2015-10-24T13:37:34Z</time>
      </trkpt>
      <trkpt lat="43.10129" lon="-0.43427">
        <ele>411.58</ele>
        <time>2015-10-24T13:37:35Z</time>
      </trkpt>
      <trkpt lat="43.10133" lon="-0.43429">
        <ele>411.1</ele>
        <time>2015-10-24T13:37:36Z</time>
      </trkpt>
      <trkpt lat="43.10138" lon="-0.43432">
        <ele>411.1</ele>
        <time>2015-10-24T13:37:37Z</time>
      </trkpt>
      <trkpt lat="43.10143" lon="-0.43434">
        <ele>411.1</ele>
        <time>2015-10-24T13:37:38Z</time>
      </trkpt>
      <trkpt lat="43.10147" lon="-0.43437">
        <ele>411.1</ele>
        <time>2015-10-24T13:37:39Z</time>
      </trkpt>
      <trkpt lat="43.10152" lon="-0.43439">
        <ele>410.62</ele>
        <time>2015-10-24T13:37:40Z</time>
      </trkpt>
      <trkpt lat="43.10166" lon="-0.43449">
        <ele>411.1</ele>
        <time>2015-10-24T13:37:43Z</time>
      </trkpt>
      <trkpt lat="43.10171" lon="-0.43452">
        <ele>411.1</ele>
        <time>2015-10-24T13:37:44Z</time>
      </trkpt>
      <trkpt lat="43.10176" lon="-0.43455">
        <ele>411.1</ele>
        <time>2015-10-24T13:37:45Z</time>
      </trkpt>
      <trkpt lat="43.10211" lon="-0.43471">
        <ele>411.1</ele>
        <time>2015-10-24T13:37:52Z</time>
      </trkpt>
      <trkpt lat="43.10263" lon="-0.43483">
        <ele>411.1</ele>
        <time>2015-10-24T13:38:02Z</time>
      </trkpt>
      <trkpt lat="43.10268" lon="-0.43484">
        <ele>411.1</ele>
        <time>2015-10-24T13:38:03Z</time>
      </trkpt>
      <trkpt lat="43.10273" lon="-0.43485">
        <ele>411.1</ele>
        <time>2015-10-24T13:38:04Z</time>
      </trkpt>
      <trkpt lat="43.10299" lon="-0.43488">
        <ele>411.58</ele>
        <time>2015-10-24T13:38:09Z</time>
      </trkpt>
      <trkpt lat="43.10313" lon="-0.43491">
        <ele>411.1</ele>
        <time>2015-10-24T13:38:12Z</time>
      </trkpt>
      <trkpt lat="43.10318" lon="-0.43492">
        <ele>411.1</ele>
        <time>2015-10-24T13:38:13Z</time>
      </trkpt>
      <trkpt lat="43.10374" lon="-0.43515">
        <ele>409.66</ele>
        <time>2015-10-24T13:38:24Z</time>
      </trkpt>
      <trkpt lat="43.1038" lon="-0.43517">
        <ele>409.66</ele>
        <time>2015-10-24T13:38:25Z</time>
      </trkpt>
      <trkpt lat="43.1039" lon="-0.4352">
        <ele>409.66</ele>
        <time>2015-10-24T13:38:27Z</time>
      </trkpt>
      <trkpt lat="43.10395" lon="-0.43522">
        <ele>409.66</ele>
        <time>2015-10-24T13:38:28Z</time>
      </trkpt>
      <trkpt lat="43.10464" lon="-0.43535">
        <ele>410.62</ele>
        <time>2015-10-24T13:38:42Z</time>
      </trkpt>
      <trkpt lat="43.10468" lon="-0.43533">
        <ele>410.14</ele>
        <time>2015-10-24T13:38:43Z</time>
      </trkpt>
      <trkpt lat="43.10473" lon="-0.43533">
        <ele>410.14</ele>
        <time>2015-10-24T13:38:44Z</time>
      </trkpt>
      <trkpt lat="43.10476" lon="-0.43532">
        <ele>409.66</ele>
        <time>2015-10-24T13:38:45Z</time>
      </trkpt>
      <trkpt lat="43.10476" lon="-0.43533">
        <ele>408.7</ele>
        <time>2015-10-24T13:38:52Z</time>
      </trkpt>
      <trkpt lat="43.10476" lon="-0.43533">
        <ele>408.7</ele>
        <time>2015-10-24T13:39:08Z</time>
      </trkpt>
      <trkpt lat="43.10476" lon="-0.43534">
        <ele>409.18</ele>
        <time>2015-10-24T13:39:26Z</time>
      </trkpt>
      <trkpt lat="43.10476" lon="-0.43534">
        <ele>409.66</ele>
        <time>2015-10-24T13:39:44Z</time>
      </trkpt>
      <trkpt lat="43.10477" lon="-0.43535">
        <ele>410.14</ele>
        <time>2015-10-24T13:39:57Z</time>
      </trkpt>
      <trkpt lat="43.10476" lon="-0.43534">
        <ele>410.62</ele>
        <time>2015-10-24T13:40:09Z</time>
      </trkpt>
      <trkpt lat="43.10476" lon="-0.43534">
        <ele>411.58</ele>
        <time>2015-10-24T13:40:26Z</time>
      </trkpt>
      <trkpt lat="43.10476" lon="-0.43535">
        <ele>412.06</ele>
        <time>2015-10-24T13:40:43Z</time>
      </trkpt>
      <trkpt lat="43.10475" lon="-0.43534">
        <ele>412.54</ele>
        <time>2015-10-24T13:41:01Z</time>
      </trkpt>
      <trkpt lat="43.10477" lon="-0.43534">
        <ele>413.98</ele>
        <time>2015-10-24T13:41:07Z</time>
      </trkpt>
      <trkpt lat="43.10478" lon="-0.43535">
        <ele>413.98</ele>
        <time>2015-10-24T13:41:08Z</time>
      </trkpt>
      <trkpt lat="43.10479" lon="-0.43536">
        <ele>414.47</ele>
        <time>2015-10-24T13:41:09Z</time>
      </trkpt>
      <trkpt lat="43.10481" lon="-0.43538">
        <ele>414.95</ele>
        <time>2015-10-24T13:41:10Z</time>
      </trkpt>
      <trkpt lat="43.10483" lon="-0.4354">
        <ele>414.95</ele>
        <time>2015-10-24T13:41:11Z</time>
      </trkpt>
      <trkpt lat="43.10485" lon="-0.43541">
        <ele>415.43</ele>
        <time>2015-10-24T13:41:12Z</time>
      </trkpt>
      <trkpt lat="43.10489" lon="-0.43542">
        <ele>415.43</ele>
        <time>2015-10-24T13:41:13Z</time>
      </trkpt>
      <trkpt lat="43.10492" lon="-0.43542">
        <ele>415.43</ele>
        <time>2015-10-24T13:41:14Z</time>
      </trkpt>
      <trkpt lat="43.10534" lon="-0.4355">
        <ele>416.87</ele>
        <time>2015-10-24T13:41:25Z</time>
      </trkpt>
      <trkpt lat="43.10558" lon="-0.43554">
        <ele>416.39</ele>
        <time>2015-10-24T13:41:30Z</time>
      </trkpt>
      <trkpt lat="43.10637" lon="-0.43566">
        <ele>416.87</ele>
        <time>2015-10-24T13:41:46Z</time>
      </trkpt>
      <trkpt lat="43.10704" lon="-0.43554">
        <ele>418.31</ele>
        <time>2015-10-24T13:42:01Z</time>
      </trkpt>
      <trkpt lat="43.10726" lon="-0.43546">
        <ele>417.35</ele>
        <time>2015-10-24T13:42:06Z</time>
      </trkpt>
      <trkpt lat="43.10784" lon="-0.43534">
        <ele>417.83</ele>
        <time>2015-10-24T13:42:17Z</time>
      </trkpt>
      <trkpt lat="43.10805" lon="-0.43528">
        <ele>417.35</ele>
        <time>2015-10-24T13:42:21Z</time>
      </trkpt>
      <trkpt lat="43.10892" lon="-0.43546">
        <ele>414.95</ele>
        <time>2015-10-24T13:42:36Z</time>
      </trkpt>
      <trkpt lat="43.10984" lon="-0.43578">
        <ele>411.1</ele>
        <time>2015-10-24T13:42:49Z</time>
      </trkpt>
      <trkpt lat="43.10992" lon="-0.43583">
        <ele>410.62</ele>
        <time>2015-10-24T13:42:50Z</time>
      </trkpt>
      <trkpt lat="43.10998" lon="-0.43591">
        <ele>409.66</ele>
        <time>2015-10-24T13:42:51Z</time>
      </trkpt>
      <trkpt lat="43.11004" lon="-0.43601">
        <ele>408.7</ele>
        <time>2015-10-24T13:42:52Z</time>
      </trkpt>
      <trkpt lat="43.11008" lon="-0.43612">
        <ele>408.22</ele>
        <time>2015-10-24T13:42:53Z</time>
      </trkpt>
      <trkpt lat="43.1101" lon="-0.43625">
        <ele>407.26</ele>
        <time>2015-10-24T13:42:54Z</time>
      </trkpt>
      <trkpt lat="43.11012" lon="-0.43639">
        <ele>406.29</ele>
        <time>2015-10-24T13:42:55Z</time>
      </trkpt>
      <trkpt lat="43.11015" lon="-0.43667">
        <ele>404.37</ele>
        <time>2015-10-24T13:42:57Z</time>
      </trkpt>
      <trkpt lat="43.1102" lon="-0.4368">
        <ele>403.89</ele>
        <time>2015-10-24T13:42:58Z</time>
      </trkpt>
      <trkpt lat="43.11025" lon="-0.43692">
        <ele>402.93</ele>
        <time>2015-10-24T13:42:59Z</time>
      </trkpt>
      <trkpt lat="43.11032" lon="-0.43703">
        <ele>402.45</ele>
        <time>2015-10-24T13:43:00Z</time>
      </trkpt>
      <trkpt lat="43.11038" lon="-0.43713">
        <ele>401.97</ele>
        <time>2015-10-24T13:43:01Z</time>
      </trkpt>
      <trkpt lat="43.11052" lon="-0.43731">
        <ele>401.01</ele>
        <time>2015-10-24T13:43:03Z</time>
      </trkpt>
      <trkpt lat="43.11059" lon="-0.43737">
        <ele>400.53</ele>
        <time>2015-10-24T13:43:04Z</time>
      </trkpt>
      <trkpt lat="43.11066" lon="-0.43741">
        <ele>400.05</ele>
        <time>2015-10-24T13:43:05Z</time>
      </trkpt>
      <trkpt lat="43.11077" lon="-0.43747">
        <ele>399.57</ele>
        <time>2015-10-24T13:43:07Z</time>
      </trkpt>
      <trkpt lat="43.1108" lon="-0.4375">
        <ele>399.08</ele>
        <time>2015-10-24T13:43:08Z</time>
      </trkpt>
      <trkpt lat="43.11081" lon="-0.4376">
        <ele>398.12</ele>
        <time>2015-10-24T13:43:15Z</time>
      </trkpt>
      <trkpt lat="43.11082" lon="-0.4376">
        <ele>398.12</ele>
        <time>2015-10-24T13:43:26Z</time>
      </trkpt>
      <trkpt lat="43.11082" lon="-0.43761">
        <ele>397.16</ele>
        <time>2015-10-24T13:43:53Z</time>
      </trkpt>
      <trkpt lat="43.11082" lon="-0.4376">
        <ele>396.68</ele>
        <time>2015-10-24T13:44:21Z</time>
      </trkpt>
      <trkpt lat="43.11082" lon="-0.43759">
        <ele>396.2</ele>
        <time>2015-10-24T13:44:41Z</time>
      </trkpt>
      <trkpt lat="43.11082" lon="-0.4376">
        <ele>396.2</ele>
        <time>2015-10-24T13:44:45Z</time>
      </trkpt>
      <trkpt lat="43.11064" lon="-0.43757">
        <ele>396.68</ele>
        <time>2015-10-24T13:44:52Z</time>
      </trkpt>
      <trkpt lat="43.1106" lon="-0.43756">
        <ele>396.2</ele>
        <time>2015-10-24T13:44:53Z</time>
      </trkpt>
      <trkpt lat="43.11055" lon="-0.43756">
        <ele>395.72</ele>
        <time>2015-10-24T13:44:54Z</time>
      </trkpt>
      <trkpt lat="43.11051" lon="-0.43758">
        <ele>395.72</ele>
        <time>2015-10-24T13:44:55Z</time>
      </trkpt>
      <trkpt lat="43.11047" lon="-0.43761">
        <ele>395.24</ele>
        <time>2015-10-24T13:44:56Z</time>
      </trkpt>
      <trkpt lat="43.11043" lon="-0.43764">
        <ele>395.24</ele>
        <time>2015-10-24T13:44:57Z</time>
      </trkpt>
      <trkpt lat="43.11039" lon="-0.43768">
        <ele>395.24</ele>
        <time>2015-10-24T13:44:58Z</time>
      </trkpt>
      <trkpt lat="43.11034" lon="-0.4377">
        <ele>395.24</ele>
        <time>2015-10-24T13:44:59Z</time>
      </trkpt>
      <trkpt lat="43.11031" lon="-0.43774">
        <ele>395.24</ele>
        <time>2015-10-24T13:45:00Z</time>
      </trkpt>
      <trkpt lat="43.11027" lon="-0.43778">
        <ele>395.24</ele>
        <time>2015-10-24T13:45:01Z</time>
      </trkpt>
      <trkpt lat="43.11023" lon="-0.43783">
        <ele>395.24</ele>
        <time>2015-10-24T13:45:02Z</time>
      </trkpt>
      <trkpt lat="43.1102" lon="-0.43788">
        <ele>395.24</ele>
        <time>2015-10-24T13:45:03Z</time>
      </trkpt>
      <trkpt lat="43.11017" lon="-0.43793">
        <ele>395.24</ele>
        <time>2015-10-24T13:45:04Z</time>
      </trkpt>
      <trkpt lat="43.10989" lon="-0.43845">
        <ele>398.6</ele>
        <time>2015-10-24T13:45:16Z</time>
      </trkpt>
      <trkpt lat="43.10982" lon="-0.43855">
        <ele>400.53</ele>
        <time>2015-10-24T13:45:21Z</time>
      </trkpt>
      <trkpt lat="43.10981" lon="-0.43858">
        <ele>401.01</ele>
        <time>2015-10-24T13:45:22Z</time>
      </trkpt>
      <trkpt lat="43.10981" lon="-0.43861">
        <ele>401.49</ele>
        <time>2015-10-24T13:45:23Z</time>
      </trkpt>
      <trkpt lat="43.1098" lon="-0.43863">
        <ele>401.49</ele>
        <time>2015-10-24T13:45:24Z</time>
      </trkpt>
      <trkpt lat="43.1098" lon="-0.43865">
        <ele>401.97</ele>
        <time>2015-10-24T13:45:25Z</time>
      </trkpt>
      <trkpt lat="43.10979" lon="-0.43867">
        <ele>402.45</ele>
        <time>2015-10-24T13:45:26Z</time>
      </trkpt>
      <trkpt lat="43.10979" lon="-0.43869">
        <ele>402.93</ele>
        <time>2015-10-24T13:45:27Z</time>
      </trkpt>
      <trkpt lat="43.10978" lon="-0.4387">
        <ele>403.41</ele>
        <time>2015-10-24T13:45:28Z</time>
      </trkpt>
      <trkpt lat="43.10976" lon="-0.43871">
        <ele>403.89</ele>
        <time>2015-10-24T13:45:29Z</time>
      </trkpt>
      <trkpt lat="43.10974" lon="-0.43871">
        <ele>404.37</ele>
        <time>2015-10-24T13:45:30Z</time>
      </trkpt>
      <trkpt lat="43.10972" lon="-0.43873">
        <ele>404.85</ele>
        <time>2015-10-24T13:45:31Z</time>
      </trkpt>
      <trkpt lat="43.10972" lon="-0.43875">
        <ele>405.81</ele>
        <time>2015-10-24T13:45:32Z</time>
      </trkpt>
      <trkpt lat="43.10971" lon="-0.43877">
        <ele>406.29</ele>
        <time>2015-10-24T13:45:33Z</time>
      </trkpt>
      <trkpt lat="43.1097" lon="-0.43879">
        <ele>406.77</ele>
        <time>2015-10-24T13:45:34Z</time>
      </trkpt>
      <trkpt lat="43.10969" lon="-0.43881">
        <ele>407.26</ele>
        <time>2015-10-24T13:45:35Z</time>
      </trkpt>
      <trkpt lat="43.10968" lon="-0.43883">
        <ele>407.74</ele>
        <time>2015-10-24T13:45:36Z</time>
      </trkpt>
      <trkpt lat="43.10966" lon="-0.43887">
        <ele>408.7</ele>
        <time>2015-10-24T13:45:38Z</time>
      </trkpt>
      <trkpt lat="43.10966" lon="-0.43889">
        <ele>409.66</ele>
        <time>2015-10-24T13:45:39Z</time>
      </trkpt>
      <trkpt lat="43.10965" lon="-0.43891">
        <ele>410.14</ele>
        <time>2015-10-24T13:45:40Z</time>
      </trkpt>
      <trkpt lat="43.10964" lon="-0.43893">
        <ele>410.14</ele>
        <time>2015-10-24T13:45:41Z</time>
      </trkpt>
      <trkpt lat="43.10964" lon="-0.43896">
        <ele>410.62</ele>
        <time>2015-10-24T13:45:42Z</time>
      </trkpt>
      <trkpt lat="43.10964" lon="-0.43898">
        <ele>411.1</ele>
        <time>2015-10-24T13:45:43Z</time>
      </trkpt>
      <trkpt lat="43.10963" lon="-0.4391">
        <ele>412.54</ele>
        <time>2015-10-24T13:45:47Z</time>
      </trkpt>
      <trkpt lat="43.10963" lon="-0.43913">
        <ele>412.06</ele>
        <time>2015-10-24T13:45:48Z</time>
      </trkpt>
      <trkpt lat="43.10964" lon="-0.43916">
        <ele>412.06</ele>
        <time>2015-10-24T13:45:49Z</time>
      </trkpt>
      <trkpt lat="43.10964" lon="-0.43918">
        <ele>411.58</ele>
        <time>2015-10-24T13:45:50Z</time>
      </trkpt>
      <trkpt lat="43.10964" lon="-0.43922">
        <ele>412.06</ele>
        <time>2015-10-24T13:45:51Z</time>
      </trkpt>
      <trkpt lat="43.1097" lon="-0.43965">
        <ele>412.54</ele>
        <time>2015-10-24T13:46:05Z</time>
      </trkpt>
      <trkpt lat="43.10976" lon="-0.44005">
        <ele>415.43</ele>
        <time>2015-10-24T13:46:19Z</time>
      </trkpt>
      <trkpt lat="43.10977" lon="-0.44045">
        <ele>422.16</ele>
        <time>2015-10-24T13:46:33Z</time>
      </trkpt>
      <trkpt lat="43.10977" lon="-0.44074">
        <ele>426</ele>
        <time>2015-10-24T13:46:43Z</time>
      </trkpt>
      <trkpt lat="43.10981" lon="-0.44098">
        <ele>428.89</ele>
        <time>2015-10-24T13:46:54Z</time>
      </trkpt>
      <trkpt lat="43.10981" lon="-0.44101">
        <ele>428.89</ele>
        <time>2015-10-24T13:46:55Z</time>
      </trkpt>
      <trkpt lat="43.10981" lon="-0.44104">
        <ele>428.89</ele>
        <time>2015-10-24T13:46:56Z</time>
      </trkpt>
      <trkpt lat="43.1098" lon="-0.44107">
        <ele>429.37</ele>
        <time>2015-10-24T13:46:57Z</time>
      </trkpt>
      <trkpt lat="43.1098" lon="-0.44109">
        <ele>429.37</ele>
        <time>2015-10-24T13:46:58Z</time>
      </trkpt>
      <trkpt lat="43.1098" lon="-0.44138">
        <ele>429.85</ele>
        <time>2015-10-24T13:47:12Z</time>
      </trkpt>
      <trkpt lat="43.1098" lon="-0.44142">
        <ele>429.85</ele>
        <time>2015-10-24T13:47:14Z</time>
      </trkpt>
      <trkpt lat="43.10979" lon="-0.44144">
        <ele>429.85</ele>
        <time>2015-10-24T13:47:15Z</time>
      </trkpt>
      <trkpt lat="43.10978" lon="-0.44145">
        <ele>429.85</ele>
        <time>2015-10-24T13:47:16Z</time>
      </trkpt>
      <trkpt lat="43.10978" lon="-0.44147">
        <ele>429.85</ele>
        <time>2015-10-24T13:47:17Z</time>
      </trkpt>
      <trkpt lat="43.10979" lon="-0.44153">
        <ele>430.33</ele>
        <time>2015-10-24T13:47:21Z</time>
      </trkpt>
      <trkpt lat="43.10979" lon="-0.44154">
        <ele>430.33</ele>
        <time>2015-10-24T13:47:22Z</time>
      </trkpt>
      <trkpt lat="43.10979" lon="-0.44156">
        <ele>430.33</ele>
        <time>2015-10-24T13:47:23Z</time>
      </trkpt>
      <trkpt lat="43.10982" lon="-0.44176">
        <ele>431.29</ele>
        <time>2015-10-24T13:47:34Z</time>
      </trkpt>
      <trkpt lat="43.10982" lon="-0.44179">
        <ele>431.77</ele>
        <time>2015-10-24T13:47:36Z</time>
      </trkpt>
      <trkpt lat="43.10986" lon="-0.44196">
        <ele>433.69</ele>
        <time>2015-10-24T13:47:48Z</time>
      </trkpt>
      <trkpt lat="43.10989" lon="-0.44203">
        <ele>435.13</ele>
        <time>2015-10-24T13:47:54Z</time>
      </trkpt>
      <trkpt lat="43.10994" lon="-0.44213">
        <ele>438.5</ele>
        <time>2015-10-24T13:48:06Z</time>
      </trkpt>
      <trkpt lat="43.11004" lon="-0.44221">
        <ele>443.31</ele>
        <time>2015-10-24T13:48:19Z</time>
      </trkpt>
      <trkpt lat="43.11012" lon="-0.44227">
        <ele>447.15</ele>
        <time>2015-10-24T13:48:29Z</time>
      </trkpt>
      <trkpt lat="43.11015" lon="-0.44232">
        <ele>447.63</ele>
        <time>2015-10-24T13:48:37Z</time>
      </trkpt>
      <trkpt lat="43.11022" lon="-0.44239">
        <ele>450.52</ele>
        <time>2015-10-24T13:48:48Z</time>
      </trkpt>
      <trkpt lat="43.11029" lon="-0.44246">
        <ele>452.44</ele>
        <time>2015-10-24T13:48:58Z</time>
      </trkpt>
      <trkpt lat="43.1103" lon="-0.44247">
        <ele>452.92</ele>
        <time>2015-10-24T13:48:59Z</time>
      </trkpt>
      <trkpt lat="43.11036" lon="-0.44252">
        <ele>453.4</ele>
        <time>2015-10-24T13:49:10Z</time>
      </trkpt>
      <trkpt lat="43.11041" lon="-0.4425">
        <ele>453.4</ele>
        <time>2015-10-24T13:49:21Z</time>
      </trkpt>
      <trkpt lat="43.11056" lon="-0.44258">
        <ele>455.32</ele>
        <time>2015-10-24T13:49:34Z</time>
      </trkpt>
      <trkpt lat="43.11058" lon="-0.44261">
        <ele>456.28</ele>
        <time>2015-10-24T13:49:37Z</time>
      </trkpt>
      <trkpt lat="43.1107" lon="-0.44266">
        <ele>460.13</ele>
        <time>2015-10-24T13:49:49Z</time>
      </trkpt>
      <trkpt lat="43.1108" lon="-0.44282">
        <ele>463.97</ele>
        <time>2015-10-24T13:50:02Z</time>
      </trkpt>
      <trkpt lat="43.11083" lon="-0.44287">
        <ele>464.93</ele>
        <time>2015-10-24T13:50:05Z</time>
      </trkpt>
      <trkpt lat="43.11098" lon="-0.4431">
        <ele>466.38</ele>
        <time>2015-10-24T13:50:16Z</time>
      </trkpt>
      <trkpt lat="43.11118" lon="-0.44341">
        <ele>465.42</ele>
        <time>2015-10-24T13:50:27Z</time>
      </trkpt>
      <trkpt lat="43.11122" lon="-0.44345">
        <ele>464.93</ele>
        <time>2015-10-24T13:50:28Z</time>
      </trkpt>
      <trkpt lat="43.11126" lon="-0.44348">
        <ele>464.93</ele>
        <time>2015-10-24T13:50:29Z</time>
      </trkpt>
      <trkpt lat="43.1113" lon="-0.44352">
        <ele>463.97</ele>
        <time>2015-10-24T13:50:30Z</time>
      </trkpt>
      <trkpt lat="43.11133" lon="-0.44356">
        <ele>463.49</ele>
        <time>2015-10-24T13:50:31Z</time>
      </trkpt>
      <trkpt lat="43.11137" lon="-0.44361">
        <ele>462.53</ele>
        <time>2015-10-24T13:50:32Z</time>
      </trkpt>
      <trkpt lat="43.1114" lon="-0.44365">
        <ele>462.05</ele>
        <time>2015-10-24T13:50:33Z</time>
      </trkpt>
      <trkpt lat="43.11141" lon="-0.4437">
        <ele>462.05</ele>
        <time>2015-10-24T13:50:34Z</time>
      </trkpt>
      <trkpt lat="43.11142" lon="-0.44374">
        <ele>461.57</ele>
        <time>2015-10-24T13:50:35Z</time>
      </trkpt>
      <trkpt lat="43.11144" lon="-0.44382">
        <ele>459.65</ele>
        <time>2015-10-24T13:50:44Z</time>
      </trkpt>
      <trkpt lat="43.11148" lon="-0.44399">
        <ele>459.17</ele>
        <time>2015-10-24T13:50:54Z</time>
      </trkpt>
      <trkpt lat="43.11149" lon="-0.44402">
        <ele>459.17</ele>
        <time>2015-10-24T13:50:55Z</time>
      </trkpt>
      <trkpt lat="43.1115" lon="-0.44407">
        <ele>459.65</ele>
        <time>2015-10-24T13:50:57Z</time>
      </trkpt>
      <trkpt lat="43.11154" lon="-0.44423">
        <ele>461.57</ele>
        <time>2015-10-24T13:51:04Z</time>
      </trkpt>
      <trkpt lat="43.11156" lon="-0.44428">
        <ele>462.05</ele>
        <time>2015-10-24T13:51:06Z</time>
      </trkpt>
      <trkpt lat="43.1116" lon="-0.44443">
        <ele>463.49</ele>
        <time>2015-10-24T13:51:11Z</time>
      </trkpt>
      <trkpt lat="43.11171" lon="-0.44488">
        <ele>465.9</ele>
        <time>2015-10-24T13:51:25Z</time>
      </trkpt>
      <trkpt lat="43.11171" lon="-0.44517">
        <ele>471.18</ele>
        <time>2015-10-24T13:51:36Z</time>
      </trkpt>
      <trkpt lat="43.1118" lon="-0.44553">
        <ele>475.03</ele>
        <time>2015-10-24T13:51:47Z</time>
      </trkpt>
      <trkpt lat="43.11192" lon="-0.44614">
        <ele>473.59</ele>
        <time>2015-10-24T13:51:59Z</time>
      </trkpt>
      <trkpt lat="43.11191" lon="-0.44623">
        <ele>471.66</ele>
        <time>2015-10-24T13:52:07Z</time>
      </trkpt>
      <trkpt lat="43.11191" lon="-0.44632">
        <ele>472.14</ele>
        <time>2015-10-24T13:52:15Z</time>
      </trkpt>
      <trkpt lat="43.11191" lon="-0.44647">
        <ele>472.63</ele>
        <time>2015-10-24T13:52:22Z</time>
      </trkpt>
      <trkpt lat="43.1119" lon="-0.44658">
        <ele>473.11</ele>
        <time>2015-10-24T13:52:27Z</time>
      </trkpt>
      <trkpt lat="43.11187" lon="-0.4467">
        <ele>475.03</ele>
        <time>2015-10-24T13:52:32Z</time>
      </trkpt>
      <trkpt lat="43.1119" lon="-0.44719">
        <ele>475.99</ele>
        <time>2015-10-24T13:52:43Z</time>
      </trkpt>
      <trkpt lat="43.11198" lon="-0.44791">
        <ele>475.51</ele>
        <time>2015-10-24T13:52:54Z</time>
      </trkpt>
      <trkpt lat="43.11207" lon="-0.44823">
        <ele>471.18</ele>
        <time>2015-10-24T13:53:04Z</time>
      </trkpt>
      <trkpt lat="43.11208" lon="-0.44835">
        <ele>470.22</ele>
        <time>2015-10-24T13:53:08Z</time>
      </trkpt>
      <trkpt lat="43.1121" lon="-0.44877">
        <ele>473.11</ele>
        <time>2015-10-24T13:53:20Z</time>
      </trkpt>
      <trkpt lat="43.11212" lon="-0.44893">
        <ele>474.55</ele>
        <time>2015-10-24T13:53:25Z</time>
      </trkpt>
      <trkpt lat="43.11223" lon="-0.44929">
        <ele>473.11</ele>
        <time>2015-10-24T13:53:35Z</time>
      </trkpt>
      <trkpt lat="43.11235" lon="-0.44952">
        <ele>472.63</ele>
        <time>2015-10-24T13:53:45Z</time>
      </trkpt>
      <trkpt lat="43.11247" lon="-0.44975">
        <ele>474.07</ele>
        <time>2015-10-24T13:53:58Z</time>
      </trkpt>
      <trkpt lat="43.11254" lon="-0.44995">
        <ele>474.55</ele>
        <time>2015-10-24T13:54:09Z</time>
      </trkpt>
      <trkpt lat="43.11277" lon="-0.45006">
        <ele>476.47</ele>
        <time>2015-10-24T13:54:20Z</time>
      </trkpt>
      <trkpt lat="43.11281" lon="-0.45007">
        <ele>476.95</ele>
        <time>2015-10-24T13:54:22Z</time>
      </trkpt>
      <trkpt lat="43.11298" lon="-0.45015">
        <ele>472.14</ele>
        <time>2015-10-24T13:54:34Z</time>
      </trkpt>
      <trkpt lat="43.11311" lon="-0.45015">
        <ele>471.66</ele>
        <time>2015-10-24T13:54:46Z</time>
      </trkpt>
      <trkpt lat="43.1132" lon="-0.45007">
        <ele>473.59</ele>
        <time>2015-10-24T13:54:59Z</time>
      </trkpt>
      <trkpt lat="43.1132" lon="-0.45007">
        <ele>473.59</ele>
        <time>2015-10-24T13:55:02Z</time>
      </trkpt>
      <trkpt lat="43.11328" lon="-0.44989">
        <ele>473.11</ele>
        <time>2015-10-24T13:55:15Z</time>
      </trkpt>
      <trkpt lat="43.11338" lon="-0.44976">
        <ele>471.66</ele>
        <time>2015-10-24T13:55:27Z</time>
      </trkpt>
      <trkpt lat="43.11351" lon="-0.44963">
        <ele>472.63</ele>
        <time>2015-10-24T13:55:41Z</time>
      </trkpt>
      <trkpt lat="43.11359" lon="-0.44956">
        <ele>474.07</ele>
        <time>2015-10-24T13:55:54Z</time>
      </trkpt>
      <trkpt lat="43.11364" lon="-0.44948">
        <ele>477.91</ele>
        <time>2015-10-24T13:56:04Z</time>
      </trkpt>
      <trkpt lat="43.11366" lon="-0.44935">
        <ele>481.28</ele>
        <time>2015-10-24T13:56:17Z</time>
      </trkpt>
      <trkpt lat="43.11365" lon="-0.44923">
        <ele>482.72</ele>
        <time>2015-10-24T13:56:30Z</time>
      </trkpt>
      <trkpt lat="43.11366" lon="-0.44913">
        <ele>485.12</ele>
        <time>2015-10-24T13:56:44Z</time>
      </trkpt>
      <trkpt lat="43.11369" lon="-0.44903">
        <ele>487.05</ele>
        <time>2015-10-24T13:56:57Z</time>
      </trkpt>
      <trkpt lat="43.11374" lon="-0.44893">
        <ele>488.49</ele>
        <time>2015-10-24T13:57:12Z</time>
      </trkpt>
      <trkpt lat="43.11376" lon="-0.44886">
        <ele>490.89</ele>
        <time>2015-10-24T13:57:23Z</time>
      </trkpt>
      <trkpt lat="43.11379" lon="-0.44876">
        <ele>494.74</ele>
        <time>2015-10-24T13:57:37Z</time>
      </trkpt>
      <trkpt lat="43.11379" lon="-0.4487">
        <ele>497.14</ele>
        <time>2015-10-24T13:57:45Z</time>
      </trkpt>
      <trkpt lat="43.11383" lon="-0.44869">
        <ele>499.06</ele>
        <time>2015-10-24T13:57:57Z</time>
      </trkpt>
      <trkpt lat="43.11383" lon="-0.4487">
        <ele>499.06</ele>
        <time>2015-10-24T13:58:01Z</time>
      </trkpt>
      <trkpt lat="43.11392" lon="-0.44876">
        <ele>501.95</ele>
        <time>2015-10-24T13:58:11Z</time>
      </trkpt>
      <trkpt lat="43.11404" lon="-0.4489">
        <ele>507.71</ele>
        <time>2015-10-24T13:58:27Z</time>
      </trkpt>
      <trkpt lat="43.11406" lon="-0.44893">
        <ele>508.67</ele>
        <time>2015-10-24T13:58:30Z</time>
      </trkpt>
      <trkpt lat="43.11419" lon="-0.44896">
        <ele>511.08</ele>
        <time>2015-10-24T13:58:44Z</time>
      </trkpt>
      <trkpt lat="43.11432" lon="-0.44896">
        <ele>512.52</ele>
        <time>2015-10-24T13:58:57Z</time>
      </trkpt>
      <trkpt lat="43.11437" lon="-0.44898">
        <ele>515.4</ele>
        <time>2015-10-24T13:59:06Z</time>
      </trkpt>
      <trkpt lat="43.11445" lon="-0.44896">
        <ele>519.25</ele>
        <time>2015-10-24T13:59:16Z</time>
      </trkpt>
      <trkpt lat="43.11451" lon="-0.44897">
        <ele>523.09</ele>
        <time>2015-10-24T13:59:28Z</time>
      </trkpt>
      <trkpt lat="43.11456" lon="-0.44903">
        <ele>526.94</ele>
        <time>2015-10-24T13:59:38Z</time>
      </trkpt>
      <trkpt lat="43.11464" lon="-0.44904">
        <ele>532.71</ele>
        <time>2015-10-24T13:59:52Z</time>
      </trkpt>
      <trkpt lat="43.1147" lon="-0.44904">
        <ele>536.07</ele>
        <time>2015-10-24T14:00:03Z</time>
      </trkpt>
      <trkpt lat="43.11477" lon="-0.44905">
        <ele>537.51</ele>
        <time>2015-10-24T14:00:15Z</time>
      </trkpt>
      <trkpt lat="43.11478" lon="-0.44905">
        <ele>537.51</ele>
        <time>2015-10-24T14:00:16Z</time>
      </trkpt>
      <trkpt lat="43.11486" lon="-0.44909">
        <ele>539.44</ele>
        <time>2015-10-24T14:00:27Z</time>
      </trkpt>
      <trkpt lat="43.11488" lon="-0.44908">
        <ele>539.92</ele>
        <time>2015-10-24T14:00:30Z</time>
      </trkpt>
      <trkpt lat="43.11531" lon="-0.44903">
        <ele>533.67</ele>
        <time>2015-10-24T14:00:42Z</time>
      </trkpt>
      <trkpt lat="43.11563" lon="-0.44893">
        <ele>525.5</ele>
        <time>2015-10-24T14:00:51Z</time>
      </trkpt>
      <trkpt lat="43.11568" lon="-0.44893">
        <ele>525.02</ele>
        <time>2015-10-24T14:00:52Z</time>
      </trkpt>
      <trkpt lat="43.11605" lon="-0.44886">
        <ele>521.17</ele>
        <time>2015-10-24T14:01:02Z</time>
      </trkpt>
      <trkpt lat="43.11627" lon="-0.44894">
        <ele>517.81</ele>
        <time>2015-10-24T14:01:07Z</time>
      </trkpt>
      <trkpt lat="43.11633" lon="-0.44897">
        <ele>517.33</ele>
        <time>2015-10-24T14:01:08Z</time>
      </trkpt>
      <trkpt lat="43.11639" lon="-0.44898">
        <ele>516.85</ele>
        <time>2015-10-24T14:01:09Z</time>
      </trkpt>
      <trkpt lat="43.11645" lon="-0.44898">
        <ele>516.37</ele>
        <time>2015-10-24T14:01:10Z</time>
      </trkpt>
      <trkpt lat="43.11651" lon="-0.44898">
        <ele>515.88</ele>
        <time>2015-10-24T14:01:11Z</time>
      </trkpt>
      <trkpt lat="43.1167" lon="-0.449">
        <ele>514.44</ele>
        <time>2015-10-24T14:01:15Z</time>
      </trkpt>
      <trkpt lat="43.11675" lon="-0.44899">
        <ele>513.48</ele>
        <time>2015-10-24T14:01:16Z</time>
      </trkpt>
      <trkpt lat="43.11712" lon="-0.44897">
        <ele>509.16</ele>
        <time>2015-10-24T14:01:22Z</time>
      </trkpt>
      <trkpt lat="43.1178" lon="-0.44914">
        <ele>502.91</ele>
        <time>2015-10-24T14:01:32Z</time>
      </trkpt>
      <trkpt lat="43.11794" lon="-0.44921">
        <ele>501.95</ele>
        <time>2015-10-24T14:01:34Z</time>
      </trkpt>
      <trkpt lat="43.118" lon="-0.44926">
        <ele>501.95</ele>
        <time>2015-10-24T14:01:35Z</time>
      </trkpt>
      <trkpt lat="43.11804" lon="-0.44933">
        <ele>501.46</ele>
        <time>2015-10-24T14:01:36Z</time>
      </trkpt>
      <trkpt lat="43.11807" lon="-0.4494">
        <ele>501.46</ele>
        <time>2015-10-24T14:01:37Z</time>
      </trkpt>
      <trkpt lat="43.11809" lon="-0.44948">
        <ele>500.98</ele>
        <time>2015-10-24T14:01:38Z</time>
      </trkpt>
      <trkpt lat="43.11809" lon="-0.44956">
        <ele>500.5</ele>
        <time>2015-10-24T14:01:39Z</time>
      </trkpt>
      <trkpt lat="43.11812" lon="-0.44971">
        <ele>499.54</ele>
        <time>2015-10-24T14:01:41Z</time>
      </trkpt>
      <trkpt lat="43.11816" lon="-0.44977">
        <ele>499.06</ele>
        <time>2015-10-24T14:01:42Z</time>
      </trkpt>
      <trkpt lat="43.11821" lon="-0.44981">
        <ele>498.58</ele>
        <time>2015-10-24T14:01:43Z</time>
      </trkpt>
      <trkpt lat="43.11826" lon="-0.44983">
        <ele>498.58</ele>
        <time>2015-10-24T14:01:44Z</time>
      </trkpt>
      <trkpt lat="43.11832" lon="-0.44983">
        <ele>498.1</ele>
        <time>2015-10-24T14:01:45Z</time>
      </trkpt>
      <trkpt lat="43.11838" lon="-0.44982">
        <ele>498.1</ele>
        <time>2015-10-24T14:01:46Z</time>
      </trkpt>
      <trkpt lat="43.11843" lon="-0.44982">
        <ele>498.1</ele>
        <time>2015-10-24T14:01:47Z</time>
      </trkpt>
      <trkpt lat="43.11848" lon="-0.44982">
        <ele>498.1</ele>
        <time>2015-10-24T14:01:48Z</time>
      </trkpt>
      <trkpt lat="43.11853" lon="-0.44983">
        <ele>498.1</ele>
        <time>2015-10-24T14:01:49Z</time>
      </trkpt>
      <trkpt lat="43.11857" lon="-0.44985">
        <ele>497.62</ele>
        <time>2015-10-24T14:01:50Z</time>
      </trkpt>
      <trkpt lat="43.11861" lon="-0.44987">
        <ele>497.62</ele>
        <time>2015-10-24T14:01:51Z</time>
      </trkpt>
      <trkpt lat="43.11865" lon="-0.44989">
        <ele>497.14</ele>
        <time>2015-10-24T14:01:52Z</time>
      </trkpt>
      <trkpt lat="43.11868" lon="-0.44992">
        <ele>496.66</ele>
        <time>2015-10-24T14:01:53Z</time>
      </trkpt>
      <trkpt lat="43.11872" lon="-0.44994">
        <ele>496.18</ele>
        <time>2015-10-24T14:01:54Z</time>
      </trkpt>
      <trkpt lat="43.11876" lon="-0.44995">
        <ele>495.7</ele>
        <time>2015-10-24T14:01:55Z</time>
      </trkpt>
      <trkpt lat="43.1188" lon="-0.44995">
        <ele>495.7</ele>
        <time>2015-10-24T14:01:56Z</time>
      </trkpt>
      <trkpt lat="43.11882" lon="-0.44992">
        <ele>495.22</ele>
        <time>2015-10-24T14:01:57Z</time>
      </trkpt>
      <trkpt lat="43.11884" lon="-0.44989">
        <ele>495.22</ele>
        <time>2015-10-24T14:01:58Z</time>
      </trkpt>
      <trkpt lat="43.11893" lon="-0.44947">
        <ele>498.58</ele>
        <time>2015-10-24T14:02:09Z</time>
      </trkpt>
      <trkpt lat="43.1189" lon="-0.44926">
        <ele>499.06</ele>
        <time>2015-10-24T14:02:14Z</time>
      </trkpt>
      <trkpt lat="43.1189" lon="-0.4492">
        <ele>499.06</ele>
        <time>2015-10-24T14:02:15Z</time>
      </trkpt>
      <trkpt lat="43.11896" lon="-0.4488">
        <ele>500.5</ele>
        <time>2015-10-24T14:02:25Z</time>
      </trkpt>
      <trkpt lat="43.11904" lon="-0.44836">
        <ele>499.54</ele>
        <time>2015-10-24T14:02:35Z</time>
      </trkpt>
      <trkpt lat="43.11919" lon="-0.44797">
        <ele>500.5</ele>
        <time>2015-10-24T14:02:47Z</time>
      </trkpt>
      <trkpt lat="43.1194" lon="-0.44778">
        <ele>501.46</ele>
        <time>2015-10-24T14:02:58Z</time>
      </trkpt>
      <trkpt lat="43.11953" lon="-0.44746">
        <ele>501.46</ele>
        <time>2015-10-24T14:03:09Z</time>
      </trkpt>
      <trkpt lat="43.11947" lon="-0.44725">
        <ele>503.39</ele>
        <time>2015-10-24T14:03:21Z</time>
      </trkpt>
      <trkpt lat="43.11945" lon="-0.4472">
        <ele>503.39</ele>
        <time>2015-10-24T14:03:26Z</time>
      </trkpt>
      <trkpt lat="43.11944" lon="-0.44717">
        <ele>503.39</ele>
        <time>2015-10-24T14:03:28Z</time>
      </trkpt>
      <trkpt lat="43.11944" lon="-0.44715">
        <ele>503.39</ele>
        <time>2015-10-24T14:03:29Z</time>
      </trkpt>
      <trkpt lat="43.11943" lon="-0.44713">
        <ele>503.39</ele>
        <time>2015-10-24T14:03:30Z</time>
      </trkpt>
      <trkpt lat="43.11943" lon="-0.44712">
        <ele>503.39</ele>
        <time>2015-10-24T14:03:31Z</time>
      </trkpt>
      <trkpt lat="43.11942" lon="-0.44711">
        <ele>503.39</ele>
        <time>2015-10-24T14:03:32Z</time>
      </trkpt>
      <trkpt lat="43.11941" lon="-0.44709">
        <ele>503.39</ele>
        <time>2015-10-24T14:03:33Z</time>
      </trkpt>
      <trkpt lat="43.11941" lon="-0.44708">
        <ele>503.39</ele>
        <time>2015-10-24T14:03:34Z</time>
      </trkpt>
      <trkpt lat="43.11933" lon="-0.44691">
        <ele>507.23</ele>
        <time>2015-10-24T14:03:46Z</time>
      </trkpt>
      <trkpt lat="43.11925" lon="-0.44674">
        <ele>507.71</ele>
        <time>2015-10-24T14:03:50Z</time>
      </trkpt>
      <trkpt lat="43.11922" lon="-0.4467">
        <ele>507.71</ele>
        <time>2015-10-24T14:03:51Z</time>
      </trkpt>
      <trkpt lat="43.1191" lon="-0.44636">
        <ele>509.64</ele>
        <time>2015-10-24T14:04:00Z</time>
      </trkpt>
      <trkpt lat="43.11899" lon="-0.44604">
        <ele>514.44</ele>
        <time>2015-10-24T14:04:14Z</time>
      </trkpt>
      <trkpt lat="43.11894" lon="-0.44569">
        <ele>513.96</ele>
        <time>2015-10-24T14:04:25Z</time>
      </trkpt>
      <trkpt lat="43.11892" lon="-0.44525">
        <ele>510.12</ele>
        <time>2015-10-24T14:04:30Z</time>
      </trkpt>
      <trkpt lat="43.11894" lon="-0.44518">
        <ele>509.16</ele>
        <time>2015-10-24T14:04:31Z</time>
      </trkpt>
      <trkpt lat="43.11897" lon="-0.44512">
        <ele>508.67</ele>
        <time>2015-10-24T14:04:32Z</time>
      </trkpt>
      <trkpt lat="43.11902" lon="-0.44509">
        <ele>508.19</ele>
        <time>2015-10-24T14:04:33Z</time>
      </trkpt>
      <trkpt lat="43.11906" lon="-0.44509">
        <ele>507.71</ele>
        <time>2015-10-24T14:04:34Z</time>
      </trkpt>
      <trkpt lat="43.11911" lon="-0.44509">
        <ele>507.23</ele>
        <time>2015-10-24T14:04:35Z</time>
      </trkpt>
      <trkpt lat="43.11916" lon="-0.4451">
        <ele>506.75</ele>
        <time>2015-10-24T14:04:36Z</time>
      </trkpt>
      <trkpt lat="43.11922" lon="-0.44511">
        <ele>506.27</ele>
        <time>2015-10-24T14:04:37Z</time>
      </trkpt>
      <trkpt lat="43.11927" lon="-0.44513">
        <ele>505.79</ele>
        <time>2015-10-24T14:04:38Z</time>
      </trkpt>
      <trkpt lat="43.11965" lon="-0.44523">
        <ele>503.39</ele>
        <time>2015-10-24T14:04:44Z</time>
      </trkpt>
      <trkpt lat="43.12007" lon="-0.44525">
        <ele>500.98</ele>
        <time>2015-10-24T14:04:50Z</time>
      </trkpt>
      <trkpt lat="43.12014" lon="-0.44524">
        <ele>500.02</ele>
        <time>2015-10-24T14:04:51Z</time>
      </trkpt>
      <trkpt lat="43.1203" lon="-0.44521">
        <ele>499.54</ele>
        <time>2015-10-24T14:04:53Z</time>
      </trkpt>
      <trkpt lat="43.12037" lon="-0.44521">
        <ele>499.54</ele>
        <time>2015-10-24T14:04:54Z</time>
      </trkpt>
      <trkpt lat="43.12045" lon="-0.44522">
        <ele>499.06</ele>
        <time>2015-10-24T14:04:55Z</time>
      </trkpt>
      <trkpt lat="43.12074" lon="-0.4453">
        <ele>499.06</ele>
        <time>2015-10-24T14:04:59Z</time>
      </trkpt>
      <trkpt lat="43.12109" lon="-0.44538">
        <ele>498.58</ele>
        <time>2015-10-24T14:05:04Z</time>
      </trkpt>
      <trkpt lat="43.12115" lon="-0.44541">
        <ele>498.58</ele>
        <time>2015-10-24T14:05:05Z</time>
      </trkpt>
      <trkpt lat="43.12122" lon="-0.44543">
        <ele>498.1</ele>
        <time>2015-10-24T14:05:06Z</time>
      </trkpt>
      <trkpt lat="43.12172" lon="-0.44545">
        <ele>497.14</ele>
        <time>2015-10-24T14:05:13Z</time>
      </trkpt>
      <trkpt lat="43.1218" lon="-0.44546">
        <ele>497.14</ele>
        <time>2015-10-24T14:05:14Z</time>
      </trkpt>
      <trkpt lat="43.12196" lon="-0.44549">
        <ele>497.14</ele>
        <time>2015-10-24T14:05:16Z</time>
      </trkpt>
      <trkpt lat="43.12202" lon="-0.44552">
        <ele>496.66</ele>
        <time>2015-10-24T14:05:17Z</time>
      </trkpt>
      <trkpt lat="43.12207" lon="-0.44554">
        <ele>496.66</ele>
        <time>2015-10-24T14:05:18Z</time>
      </trkpt>
      <trkpt lat="43.1222" lon="-0.44557">
        <ele>496.18</ele>
        <time>2015-10-24T14:05:20Z</time>
      </trkpt>
      <trkpt lat="43.12226" lon="-0.44558">
        <ele>495.7</ele>
        <time>2015-10-24T14:05:21Z</time>
      </trkpt>
      <trkpt lat="43.12232" lon="-0.44559">
        <ele>495.22</ele>
        <time>2015-10-24T14:05:22Z</time>
      </trkpt>
      <trkpt lat="43.12237" lon="-0.44562">
        <ele>494.74</ele>
        <time>2015-10-24T14:05:23Z</time>
      </trkpt>
      <trkpt lat="43.1224" lon="-0.44567">
        <ele>494.26</ele>
        <time>2015-10-24T14:05:24Z</time>
      </trkpt>
      <trkpt lat="43.12243" lon="-0.44573">
        <ele>494.26</ele>
        <time>2015-10-24T14:05:25Z</time>
      </trkpt>
      <trkpt lat="43.12244" lon="-0.44578">
        <ele>493.77</ele>
        <time>2015-10-24T14:05:26Z</time>
      </trkpt>
      <trkpt lat="43.12242" lon="-0.44589">
        <ele>493.77</ele>
        <time>2015-10-24T14:05:29Z</time>
      </trkpt>
      <trkpt lat="43.12236" lon="-0.44609">
        <ele>495.22</ele>
        <time>2015-10-24T14:05:33Z</time>
      </trkpt>
      <trkpt lat="43.1224" lon="-0.44616">
        <ele>495.22</ele>
        <time>2015-10-24T14:05:34Z</time>
      </trkpt>
      <trkpt lat="43.12244" lon="-0.44623">
        <ele>495.22</ele>
        <time>2015-10-24T14:05:35Z</time>
      </trkpt>
      <trkpt lat="43.1225" lon="-0.4463">
        <ele>494.74</ele>
        <time>2015-10-24T14:05:36Z</time>
      </trkpt>
      <trkpt lat="43.12261" lon="-0.44645">
        <ele>494.26</ele>
        <time>2015-10-24T14:05:38Z</time>
      </trkpt>
      <trkpt lat="43.12265" lon="-0.44652">
        <ele>493.77</ele>
        <time>2015-10-24T14:05:39Z</time>
      </trkpt>
      <trkpt lat="43.12269" lon="-0.44659">
        <ele>493.77</ele>
        <time>2015-10-24T14:05:40Z</time>
      </trkpt>
      <trkpt lat="43.12274" lon="-0.44665">
        <ele>493.29</ele>
        <time>2015-10-24T14:05:41Z</time>
      </trkpt>
      <trkpt lat="43.12278" lon="-0.44671">
        <ele>492.81</ele>
        <time>2015-10-24T14:05:42Z</time>
      </trkpt>
      <trkpt lat="43.12283" lon="-0.44676">
        <ele>492.33</ele>
        <time>2015-10-24T14:05:43Z</time>
      </trkpt>
      <trkpt lat="43.12289" lon="-0.44679">
        <ele>491.37</ele>
        <time>2015-10-24T14:05:44Z</time>
      </trkpt>
      <trkpt lat="43.12295" lon="-0.4468">
        <ele>490.89</ele>
        <time>2015-10-24T14:05:45Z</time>
      </trkpt>
      <trkpt lat="43.12302" lon="-0.44683">
        <ele>488.97</ele>
        <time>2015-10-24T14:05:46Z</time>
      </trkpt>
      <trkpt lat="43.12308" lon="-0.44686">
        <ele>487.05</ele>
        <time>2015-10-24T14:05:47Z</time>
      </trkpt>
      <trkpt lat="43.12313" lon="-0.44692">
        <ele>486.08</ele>
        <time>2015-10-24T14:05:48Z</time>
      </trkpt>
      <trkpt lat="43.12317" lon="-0.447">
        <ele>485.6</ele>
        <time>2015-10-24T14:05:49Z</time>
      </trkpt>
      <trkpt lat="43.12322" lon="-0.44708">
        <ele>484.64</ele>
        <time>2015-10-24T14:05:50Z</time>
      </trkpt>
      <trkpt lat="43.1234" lon="-0.44743">
        <ele>481.28</ele>
        <time>2015-10-24T14:05:54Z</time>
      </trkpt>
      <trkpt lat="43.12345" lon="-0.44748">
        <ele>480.8</ele>
        <time>2015-10-24T14:05:55Z</time>
      </trkpt>
      <trkpt lat="43.1235" lon="-0.44751">
        <ele>479.84</ele>
        <time>2015-10-24T14:05:56Z</time>
      </trkpt>
      <trkpt lat="43.12369" lon="-0.44759">
        <ele>477.43</ele>
        <time>2015-10-24T14:05:59Z</time>
      </trkpt>
      <trkpt lat="43.12376" lon="-0.44763">
        <ele>477.43</ele>
        <time>2015-10-24T14:06:00Z</time>
      </trkpt>
      <trkpt lat="43.12389" lon="-0.44772">
        <ele>476.47</ele>
        <time>2015-10-24T14:06:02Z</time>
      </trkpt>
      <trkpt lat="43.12403" lon="-0.44779">
        <ele>475.99</ele>
        <time>2015-10-24T14:06:04Z</time>
      </trkpt>
      <trkpt lat="43.12408" lon="-0.44781">
        <ele>475.51</ele>
        <time>2015-10-24T14:06:05Z</time>
      </trkpt>
      <trkpt lat="43.12412" lon="-0.4478">
        <ele>474.55</ele>
        <time>2015-10-24T14:06:06Z</time>
      </trkpt>
      <trkpt lat="43.12421" lon="-0.44777">
        <ele>472.63</ele>
        <time>2015-10-24T14:06:08Z</time>
      </trkpt>
      <trkpt lat="43.12427" lon="-0.44776">
        <ele>471.66</ele>
        <time>2015-10-24T14:06:09Z</time>
      </trkpt>
      <trkpt lat="43.12433" lon="-0.44776">
        <ele>471.18</ele>
        <time>2015-10-24T14:06:10Z</time>
      </trkpt>
      <trkpt lat="43.1244" lon="-0.44777">
        <ele>469.74</ele>
        <time>2015-10-24T14:06:11Z</time>
      </trkpt>
      <trkpt lat="43.12447" lon="-0.44777">
        <ele>468.78</ele>
        <time>2015-10-24T14:06:12Z</time>
      </trkpt>
      <trkpt lat="43.12455" lon="-0.44776">
        <ele>467.82</ele>
        <time>2015-10-24T14:06:13Z</time>
      </trkpt>
      <trkpt lat="43.12461" lon="-0.44777">
        <ele>467.82</ele>
        <time>2015-10-24T14:06:14Z</time>
      </trkpt>
      <trkpt lat="43.12466" lon="-0.4478">
        <ele>467.34</ele>
        <time>2015-10-24T14:06:15Z</time>
      </trkpt>
      <trkpt lat="43.12472" lon="-0.44782">
        <ele>466.86</ele>
        <time>2015-10-24T14:06:16Z</time>
      </trkpt>
      <trkpt lat="43.12476" lon="-0.44781">
        <ele>466.86</ele>
        <time>2015-10-24T14:06:17Z</time>
      </trkpt>
      <trkpt lat="43.1248" lon="-0.44781">
        <ele>466.38</ele>
        <time>2015-10-24T14:06:18Z</time>
      </trkpt>
      <trkpt lat="43.12499" lon="-0.4477">
        <ele>463.49</ele>
        <time>2015-10-24T14:06:23Z</time>
      </trkpt>
      <trkpt lat="43.12503" lon="-0.44767">
        <ele>463.49</ele>
        <time>2015-10-24T14:06:24Z</time>
      </trkpt>
      <trkpt lat="43.12507" lon="-0.44765">
        <ele>463.01</ele>
        <time>2015-10-24T14:06:25Z</time>
      </trkpt>
      <trkpt lat="43.12532" lon="-0.44749">
        <ele>460.13</ele>
        <time>2015-10-24T14:06:35Z</time>
      </trkpt>
      <trkpt lat="43.12553" lon="-0.44748">
        <ele>459.17</ele>
        <time>2015-10-24T14:06:41Z</time>
      </trkpt>
      <trkpt lat="43.12557" lon="-0.44749">
        <ele>459.17</ele>
        <time>2015-10-24T14:06:42Z</time>
      </trkpt>
      <trkpt lat="43.12562" lon="-0.44749">
        <ele>459.17</ele>
        <time>2015-10-24T14:06:43Z</time>
      </trkpt>
      <trkpt lat="43.12566" lon="-0.4475">
        <ele>459.17</ele>
        <time>2015-10-24T14:06:44Z</time>
      </trkpt>
      <trkpt lat="43.12571" lon="-0.44752">
        <ele>458.69</ele>
        <time>2015-10-24T14:06:45Z</time>
      </trkpt>
      <trkpt lat="43.12576" lon="-0.44755">
        <ele>458.21</ele>
        <time>2015-10-24T14:06:46Z</time>
      </trkpt>
      <trkpt lat="43.12582" lon="-0.44757">
        <ele>457.72</ele>
        <time>2015-10-24T14:06:47Z</time>
      </trkpt>
      <trkpt lat="43.12587" lon="-0.44761">
        <ele>456.76</ele>
        <time>2015-10-24T14:06:48Z</time>
      </trkpt>
      <trkpt lat="43.12591" lon="-0.44765">
        <ele>456.28</ele>
        <time>2015-10-24T14:06:49Z</time>
      </trkpt>
      <trkpt lat="43.12594" lon="-0.44769">
        <ele>455.8</ele>
        <time>2015-10-24T14:06:50Z</time>
      </trkpt>
      <trkpt lat="43.12599" lon="-0.44773">
        <ele>455.8</ele>
        <time>2015-10-24T14:06:51Z</time>
      </trkpt>
      <trkpt lat="43.12603" lon="-0.44773">
        <ele>455.32</ele>
        <time>2015-10-24T14:06:52Z</time>
      </trkpt>
      <trkpt lat="43.12607" lon="-0.44769">
        <ele>454.84</ele>
        <time>2015-10-24T14:06:53Z</time>
      </trkpt>
      <trkpt lat="43.1261" lon="-0.44764">
        <ele>454.36</ele>
        <time>2015-10-24T14:06:54Z</time>
      </trkpt>
      <trkpt lat="43.12612" lon="-0.44757">
        <ele>454.36</ele>
        <time>2015-10-24T14:06:55Z</time>
      </trkpt>
      <trkpt lat="43.12616" lon="-0.44741">
        <ele>453.4</ele>
        <time>2015-10-24T14:06:57Z</time>
      </trkpt>
      <trkpt lat="43.12617" lon="-0.44732">
        <ele>452.92</ele>
        <time>2015-10-24T14:06:58Z</time>
      </trkpt>
      <trkpt lat="43.1262" lon="-0.44678">
        <ele>442.34</ele>
        <time>2015-10-24T14:07:04Z</time>
      </trkpt>
      <trkpt lat="43.12619" lon="-0.4467">
        <ele>440.9</ele>
        <time>2015-10-24T14:07:05Z</time>
      </trkpt>
      <trkpt lat="43.12617" lon="-0.44664">
        <ele>439.94</ele>
        <time>2015-10-24T14:07:06Z</time>
      </trkpt>
      <trkpt lat="43.12616" lon="-0.44659">
        <ele>438.98</ele>
        <time>2015-10-24T14:07:07Z</time>
      </trkpt>
      <trkpt lat="43.12615" lon="-0.44656">
        <ele>438.5</ele>
        <time>2015-10-24T14:07:08Z</time>
      </trkpt>
      <trkpt lat="43.12614" lon="-0.44651">
        <ele>436.58</ele>
        <time>2015-10-24T14:07:14Z</time>
      </trkpt>
      <trkpt lat="43.12613" lon="-0.44645">
        <ele>436.58</ele>
        <time>2015-10-24T14:07:19Z</time>
      </trkpt>
      <trkpt lat="43.12614" lon="-0.4464">
        <ele>438.02</ele>
        <time>2015-10-24T14:07:24Z</time>
      </trkpt>
      <trkpt lat="43.12615" lon="-0.44638">
        <ele>438.02</ele>
        <time>2015-10-24T14:07:25Z</time>
      </trkpt>
      <trkpt lat="43.12614" lon="-0.44636">
        <ele>438.98</ele>
        <time>2015-10-24T14:07:31Z</time>
      </trkpt>
      <trkpt lat="43.12614" lon="-0.44635">
        <ele>439.46</ele>
        <time>2015-10-24T14:07:32Z</time>
      </trkpt>
      <trkpt lat="43.12613" lon="-0.44633">
        <ele>439.94</ele>
        <time>2015-10-24T14:07:33Z</time>
      </trkpt>
      <trkpt lat="43.12605" lon="-0.44612">
        <ele>443.79</ele>
        <time>2015-10-24T14:07:42Z</time>
      </trkpt>
      <trkpt lat="43.12603" lon="-0.44603">
        <ele>445.71</ele>
        <time>2015-10-24T14:07:46Z</time>
      </trkpt>
      <trkpt lat="43.12602" lon="-0.44601">
        <ele>445.71</ele>
        <time>2015-10-24T14:07:47Z</time>
      </trkpt>
      <trkpt lat="43.12602" lon="-0.44599">
        <ele>446.19</ele>
        <time>2015-10-24T14:07:48Z</time>
      </trkpt>
      <trkpt lat="43.126" lon="-0.44585">
        <ele>449.55</ele>
        <time>2015-10-24T14:07:53Z</time>
      </trkpt>
      <trkpt lat="43.126" lon="-0.44583">
        <ele>450.03</ele>
        <time>2015-10-24T14:07:54Z</time>
      </trkpt>
      <trkpt lat="43.12599" lon="-0.44581">
        <ele>450.52</ele>
        <time>2015-10-24T14:07:55Z</time>
      </trkpt>
      <trkpt lat="43.12599" lon="-0.44579">
        <ele>450.52</ele>
        <time>2015-10-24T14:07:56Z</time>
      </trkpt>
      <trkpt lat="43.12597" lon="-0.44562">
        <ele>452.92</ele>
        <time>2015-10-24T14:08:08Z</time>
      </trkpt>
      <trkpt lat="43.12599" lon="-0.44553">
        <ele>454.36</ele>
        <time>2015-10-24T14:08:19Z</time>
      </trkpt>
      <trkpt lat="43.12602" lon="-0.44546">
        <ele>456.76</ele>
        <time>2015-10-24T14:08:30Z</time>
      </trkpt>
      <trkpt lat="43.12606" lon="-0.44531">
        <ele>459.65</ele>
        <time>2015-10-24T14:08:41Z</time>
      </trkpt>
      <trkpt lat="43.12608" lon="-0.44517">
        <ele>464.45</ele>
        <time>2015-10-24T14:08:54Z</time>
      </trkpt>
      <trkpt lat="43.1261" lon="-0.44513">
        <ele>462.53</ele>
        <time>2015-10-24T14:09:00Z</time>
      </trkpt>
      <trkpt lat="43.1261" lon="-0.44507">
        <ele>462.53</ele>
        <time>2015-10-24T14:09:03Z</time>
      </trkpt>
      <trkpt lat="43.12609" lon="-0.44502">
        <ele>461.09</ele>
        <time>2015-10-24T14:09:07Z</time>
      </trkpt>
      <trkpt lat="43.12609" lon="-0.44501">
        <ele>460.61</ele>
        <time>2015-10-24T14:09:08Z</time>
      </trkpt>
      <trkpt lat="43.12609" lon="-0.445">
        <ele>460.61</ele>
        <time>2015-10-24T14:09:09Z</time>
      </trkpt>
      <trkpt lat="43.12625" lon="-0.44495">
        <ele>461.57</ele>
        <time>2015-10-24T14:09:20Z</time>
      </trkpt>
      <trkpt lat="43.12635" lon="-0.44499">
        <ele>462.53</ele>
        <time>2015-10-24T14:09:23Z</time>
      </trkpt>
      <trkpt lat="43.12651" lon="-0.44508">
        <ele>462.53</ele>
        <time>2015-10-24T14:09:27Z</time>
      </trkpt>
      <trkpt lat="43.12671" lon="-0.4452">
        <ele>462.53</ele>
        <time>2015-10-24T14:09:31Z</time>
      </trkpt>
      <trkpt lat="43.12714" lon="-0.4455">
        <ele>459.65</ele>
        <time>2015-10-24T14:09:39Z</time>
      </trkpt>
      <trkpt lat="43.12781" lon="-0.44598">
        <ele>451.96</ele>
        <time>2015-10-24T14:09:50Z</time>
      </trkpt>
      <trkpt lat="43.12802" lon="-0.44612">
        <ele>448.59</ele>
        <time>2015-10-24T14:09:54Z</time>
      </trkpt>
      <trkpt lat="43.12815" lon="-0.44626">
        <ele>445.71</ele>
        <time>2015-10-24T14:09:57Z</time>
      </trkpt>
      <trkpt lat="43.12867" lon="-0.44646">
        <ele>436.1</ele>
        <time>2015-10-24T14:10:08Z</time>
      </trkpt>
      <trkpt lat="43.12871" lon="-0.44647">
        <ele>434.65</ele>
        <time>2015-10-24T14:10:09Z</time>
      </trkpt>
      <trkpt lat="43.12875" lon="-0.44648">
        <ele>433.69</ele>
        <time>2015-10-24T14:10:10Z</time>
      </trkpt>
      <trkpt lat="43.12879" lon="-0.44647">
        <ele>432.73</ele>
        <time>2015-10-24T14:10:11Z</time>
      </trkpt>
      <trkpt lat="43.12882" lon="-0.44644">
        <ele>431.77</ele>
        <time>2015-10-24T14:10:12Z</time>
      </trkpt>
      <trkpt lat="43.12885" lon="-0.44637">
        <ele>430.81</ele>
        <time>2015-10-24T14:10:14Z</time>
      </trkpt>
      <trkpt lat="43.12902" lon="-0.44601">
        <ele>423.12</ele>
        <time>2015-10-24T14:10:28Z</time>
      </trkpt>
      <trkpt lat="43.12922" lon="-0.44584">
        <ele>423.12</ele>
        <time>2015-10-24T14:10:40Z</time>
      </trkpt>
      <trkpt lat="43.12943" lon="-0.44571">
        <ele>421.68</ele>
        <time>2015-10-24T14:10:47Z</time>
      </trkpt>
      <trkpt lat="43.12956" lon="-0.44536">
        <ele>421.19</ele>
        <time>2015-10-24T14:10:56Z</time>
      </trkpt>
      <trkpt lat="43.12959" lon="-0.44473">
        <ele>421.68</ele>
        <time>2015-10-24T14:11:11Z</time>
      </trkpt>
      <trkpt lat="43.12939" lon="-0.44413">
        <ele>423.12</ele>
        <time>2015-10-24T14:11:26Z</time>
      </trkpt>
      <trkpt lat="43.12901" lon="-0.44385">
        <ele>425.52</ele>
        <time>2015-10-24T14:11:42Z</time>
      </trkpt>
      <trkpt lat="43.12867" lon="-0.44381">
        <ele>427.44</ele>
        <time>2015-10-24T14:11:56Z</time>
      </trkpt>
      <trkpt lat="43.12827" lon="-0.44382">
        <ele>429.85</ele>
        <time>2015-10-24T14:12:09Z</time>
      </trkpt>
      <trkpt lat="43.12781" lon="-0.44373">
        <ele>430.33</ele>
        <time>2015-10-24T14:12:24Z</time>
      </trkpt>
      <trkpt lat="43.1276" lon="-0.44357">
        <ele>429.37</ele>
        <time>2015-10-24T14:12:31Z</time>
      </trkpt>
      <trkpt lat="43.12753" lon="-0.4435">
        <ele>428.4</ele>
        <time>2015-10-24T14:12:33Z</time>
      </trkpt>
      <trkpt lat="43.12694" lon="-0.44302">
        <ele>427.44</ele>
        <time>2015-10-24T14:12:49Z</time>
      </trkpt>
      <trkpt lat="43.1269" lon="-0.44297">
        <ele>427.44</ele>
        <time>2015-10-24T14:12:51Z</time>
      </trkpt>
      <trkpt lat="43.1269" lon="-0.44293">
        <ele>427.44</ele>
        <time>2015-10-24T14:12:52Z</time>
      </trkpt>
      <trkpt lat="43.12691" lon="-0.44289">
        <ele>427.44</ele>
        <time>2015-10-24T14:12:53Z</time>
      </trkpt>
      <trkpt lat="43.12694" lon="-0.44286">
        <ele>427.44</ele>
        <time>2015-10-24T14:12:54Z</time>
      </trkpt>
      <trkpt lat="43.12697" lon="-0.44284">
        <ele>427.44</ele>
        <time>2015-10-24T14:12:55Z</time>
      </trkpt>
      <trkpt lat="43.127" lon="-0.44283">
        <ele>426.96</ele>
        <time>2015-10-24T14:12:56Z</time>
      </trkpt>
      <trkpt lat="43.12702" lon="-0.44283">
        <ele>426.96</ele>
        <time>2015-10-24T14:12:57Z</time>
      </trkpt>
      <trkpt lat="43.12705" lon="-0.44282">
        <ele>426.96</ele>
        <time>2015-10-24T14:12:58Z</time>
      </trkpt>
      <trkpt lat="43.12708" lon="-0.4428">
        <ele>426.96</ele>
        <time>2015-10-24T14:12:59Z</time>
      </trkpt>
      <trkpt lat="43.12709" lon="-0.44279">
        <ele>426.96</ele>
        <time>2015-10-24T14:13:00Z</time>
      </trkpt>
      <trkpt lat="43.12711" lon="-0.44278">
        <ele>426.96</ele>
        <time>2015-10-24T14:13:01Z</time>
      </trkpt>
      <trkpt lat="43.12713" lon="-0.44279">
        <ele>427.44</ele>
        <time>2015-10-24T14:13:02Z</time>
      </trkpt>
      <trkpt lat="43.12722" lon="-0.44281">
        <ele>427.44</ele>
        <time>2015-10-24T14:13:06Z</time>
      </trkpt>
      <trkpt lat="43.12722" lon="-0.44281">
        <ele>427.92</ele>
        <time>2015-10-24T14:13:16Z</time>
      </trkpt>
      <trkpt lat="43.12723" lon="-0.4428">
        <ele>426.96</ele>
        <time>2015-10-24T14:13:27Z</time>
      </trkpt>
      <trkpt lat="43.12723" lon="-0.4428">
        <ele>426.96</ele>
        <time>2015-10-24T14:13:46Z</time>
      </trkpt>
      <trkpt lat="43.12722" lon="-0.44281">
        <ele>427.44</ele>
        <time>2015-10-24T14:14:13Z</time>
      </trkpt>
      <trkpt lat="43.12722" lon="-0.44283">
        <ele>428.4</ele>
        <time>2015-10-24T14:14:46Z</time>
      </trkpt>
    </trkseg>
  </trk>
</gpx>